[[{"header":{"parameterUnit":"m.s-1","parameterCategory":1,"la1":30.6,"la2":29.2853,"lo1":-89.7004,"lo2":-87.6739,"dy":0.0162,"dx":0.0183,"nx":112,"ny":82,"refTime":"2024-07-29T06:00:00:Z","depth":0,"parameterNumber":2,"parameterNumberName":"U-component_of_WINDS"},"data":[0.0,0.0,0.0,0.0,0.0,0.0,0.0,0.0,0.0,0.0,0.0,0.0,0.0,0.0,0.0,0.0,0.0,0.0,0.0,0.0,0.0,0.0,0.0,0.0,0.0,0.0,0.0,0.0,0.0,0.0,0.0,0.0,0.0,0.0,0.0,0.0,0.0,0.0,0.0,0.0,0.0,0.0,0.0,0.0,0.0,0.0,0.0,0.0,0.0,0.0,0.0,0.0,0.0,0.0,0.0,0.0,0.0,0.0,0.0,0.0,0.0,0.0,0.0,0.0,0.0,0.0,0.0,0.0,0.0,0.0,0.0,0.0,0.0,0.0,0.0,0.0,0.0,0.0,0.0,0.0,0.0,0.0,0.0,0.0,0.0,0.0,0.0,0.0,0.0,0.0,1.1779,1.1737,1.1777,1.168,1.1394,1.1901,1.1532,0.9913,0.0,0.0,0.0,0.0,0.0,0.0,0.0,0.0,0.0,0.0,0.0,0.0,0.0,0.0,0.0,0.0,0.0,0.0,0.0,0.0,0.0,0.0,0.0,0.0,0.0,0.0,0.0,0.0,0.0,0.0,0.0,0.0,0.0,0.0,0.0,0.0,0.0,0.0,0.0,0.0,0.0,0.0,0.0,0.0,0.0,0.0,0.0,0.0,0.0,0.0,0.0,0.0,0.0,0.0,0.0,0.0,0.0,0.0,0.0,0.0,0.0,0.0,0.0,0.0,0.0,0.0,0.0,0.0,0.0,0.0,0.0,0.0,0.0,0.0,0.0,0.0,0.0,0.0,0.0,0.0,0.0,0.0,0.0,0.0,0.0,0.0,0.0,0.0,0.0,0.0,0.0,0.0,0.0,0.0,0.0,0.0,0.0,0.0,0.0,0.0,0.0,0.0,0.0,0.0,1.1685,1.141,1.1653,1.1771,1.1712,1.2161,1.1836,1.0379,0.0,0.0,0.0,0.0,0.0,0.0,0.0,0.0,0.0,0.0,0.0,0.0,0.0,0.0,0.0,0.0,0.0,0.0,0.0,0.0,0.0,0.0,0.0,0.0,0.0,0.0,0.0,0.0,0.0,0.0,0.0,0.0,0.0,0.0,0.0,0.0,0.0,0.0,0.0,0.0,0.0,0.0,0.0,0.0,0.0,0.0,0.0,0.0,0.0,0.0,0.0,0.0,0.0,0.0,0.0,0.0,0.0,0.0,0.0,0.0,0.0,0.0,0.0,0.0,0.0,0.0,0.0,0.0,0.0,0.0,0.0,0.0,0.0,0.0,0.0,0.0,0.0,0.0,0.0,0.0,0.0,0.0,0.0,0.0,0.0,0.0,0.0,0.0,0.0,0.0,0.0,0.0,0.0,0.0,0.0,0.0,0.0,0.0,0.0,0.0,0.0,0.0,0.0,1.185,1.1572,1.1903,1.2079,1.2174,1.2174,1.2615,1.2198,1.0554,1.0234,0.0,0.0,0.0,0.0,0.0,0.0,0.0,0.0,0.0,0.0,0.0,0.0,0.0,0.0,0.0,0.0,0.0,0.0,0.0,0.0,0.0,0.0,0.0,0.0,0.0,0.0,0.0,0.0,0.0,0.0,0.0,0.0,0.0,0.0,0.0,0.0,0.0,0.0,0.0,0.0,0.0,0.0,0.0,0.0,0.0,0.0,0.0,0.0,0.0,0.0,0.0,0.0,0.0,0.0,0.0,0.0,0.0,0.0,0.0,0.0,0.0,0.0,0.0,0.0,0.0,0.0,0.0,0.0,0.0,0.0,0.0,0.0,0.0,0.0,0.0,0.0,0.0,0.0,0.0,0.0,0.0,0.0,0.0,0.0,0.0,0.0,0.0,0.0,0.0,0.0,0.0,0.0,0.0,0.0,0.0,0.0,0.0,0.0,0.0,0.0,0.0,0.0,1.1365,1.1711,1.2425,1.2508,1.2544,1.265,1.2867,1.2274,1.0599,1.0364,0.0,0.0,0.0,0.0,0.0,0.0,0.0,0.0,0.0,0.0,0.0,0.0,0.0,0.0,0.0,0.0,0.0,0.0,0.0,0.0,0.0,0.0,0.0,0.0,0.0,0.0,0.0,0.0,0.0,0.0,0.0,0.0,0.0,0.0,0.0,0.0,0.0,0.0,0.0,0.0,0.0,0.0,0.0,0.0,0.0,0.0,0.0,0.0,0.0,0.0,0.0,0.0,0.0,0.0,0.0,0.0,0.0,0.0,0.0,0.0,0.0,0.0,0.0,0.0,0.0,0.0,0.0,0.0,0.0,0.0,0.0,0.0,0.0,0.0,0.0,0.0,0.0,0.0,0.0,0.0,0.0,0.0,0.0,0.0,0.0,0.0,0.0,0.0,0.0,0.0,0.0,0.0,0.0,0.0,0.0,0.0,0.0,0.0,0.0,0.0,0.0,0.0,1.1354,1.2425,1.2496,1.2508,1.2685,1.3129,1.2722,1.1915,1.0576,0.9962,0.0,0.0,0.0,0.0,0.0,0.0,0.0,0.0,0.0,0.0,0.0,0.0,0.0,0.0,0.0,0.0,0.0,0.0,0.0,0.0,0.0,0.0,0.0,0.0,0.0,0.0,0.0,0.0,0.0,0.0,0.0,0.0,0.0,0.0,0.0,0.0,0.0,0.0,0.0,0.0,0.0,0.0,0.0,0.0,0.0,0.0,0.0,0.0,0.0,0.0,0.0,0.0,0.0,0.0,0.0,0.0,0.0,0.0,0.0,0.0,0.0,0.0,0.0,0.0,0.0,0.0,0.0,0.0,0.0,0.0,0.0,0.0,0.0,0.0,0.0,0.0,0.0,0.0,0.0,0.0,0.0,0.0,0.0,0.0,0.0,0.0,0.0,0.0,0.0,0.0,0.0,0.0,0.0,0.0,0.0,0.0,0.0,0.0,0.0,0.0,0.0,0.0,1.0582,1.1427,1.1995,1.2318,1.2461,1.233,1.269,1.2055,1.0113,0.0,0.0,0.0,0.0,0.0,0.0,0.0,0.0,0.0,0.0,0.0,0.0,0.0,0.0,0.0,0.0,0.0,0.0,0.0,0.0,0.0,0.0,0.0,0.0,0.0,0.0,0.0,0.0,0.0,0.0,0.0,0.0,0.0,0.0,0.0,0.0,0.0,0.0,0.0,0.0,0.0,0.0,0.0,0.0,0.0,0.0,0.0,0.0,0.0,0.0,0.0,0.0,0.0,0.0,0.0,0.0,0.0,0.0,0.0,0.0,0.0,0.0,0.0,0.0,0.0,0.0,0.0,0.0,0.0,0.0,0.0,0.0,0.0,0.0,0.0,0.0,0.0,0.0,0.0,0.0,0.0,0.0,0.0,0.0,0.0,0.0,0.0,0.0,0.0,0.0,0.0,0.0,0.0,0.0,0.0,0.0,0.0,0.0,0.0,0.0,0.0,0.0,0.9635,1.0353,1.1082,1.174,1.2102,1.2138,1.1811,1.2187,1.1654,0.9818,0.0,0.0,0.0,0.0,0.0,0.0,0.0,0.0,0.0,0.0,0.0,0.0,0.0,0.0,0.0,0.0,0.0,0.0,0.0,0.0,0.0,0.0,0.0,0.0,0.0,0.0,0.0,0.0,0.0,0.0,0.0,0.0,0.0,0.0,0.0,0.0,0.0,0.0,0.0,0.0,0.0,0.0,0.0,0.0,0.0,0.0,0.0,0.0,0.0,0.0,0.0,0.0,0.0,0.0,0.0,0.0,0.0,0.0,0.0,0.0,0.0,0.0,0.0,0.0,0.0,0.0,0.0,0.0,0.0,0.0,0.0,0.0,0.0,0.0,0.0,0.0,0.0,0.0,0.0,0.0,0.0,0.0,0.0,0.0,0.0,0.0,0.0,0.0,0.0,0.0,0.0,0.0,0.0,0.0,0.0,0.0,0.0,0.0,0.0,0.0,0.0,0.0,0.9677,1.0913,1.1774,1.1774,1.1774,1.1774,1.1774,1.1191,1.0475,0.0,0.0,0.0,0.0,0.0,0.0,0.0,0.0,0.0,0.0,0.0,0.0,0.0,0.0,0.0,0.0,0.0,0.0,0.0,0.0,0.0,0.0,0.0,0.0,0.0,0.0,0.0,0.0,0.0,0.0,0.0,0.0,0.0,0.0,0.0,0.0,0.0,0.0,0.0,0.0,0.0,0.0,0.0,0.0,0.0,0.0,0.0,0.0,0.0,0.0,0.0,0.0,0.0,0.0,0.0,0.0,0.0,0.0,0.0,0.0,0.0,0.0,0.0,0.0,0.0,0.0,0.0,0.0,0.0,0.0,0.0,0.0,0.0,0.0,0.0,0.0,0.0,0.0,0.0,0.0,0.0,0.0,0.0,0.0,0.0,0.0,0.0,0.0,0.0,0.0,0.0,0.0,0.0,0.0,0.0,0.0,0.0,0.0,0.0,0.0,0.0,0.0,0.0,0.9197,1.0102,1.0736,1.0736,1.1019,1.1244,1.1244,1.1099,1.0654,0.9764,0.0,0.0,0.0,0.0,0.0,0.0,0.0,0.0,0.0,0.0,0.0,0.0,0.0,0.0,0.0,0.0,0.0,0.0,0.0,0.0,0.0,0.0,0.0,0.0,0.0,0.0,0.0,0.0,0.0,0.0,0.0,0.0,0.0,0.0,0.0,0.0,0.0,0.0,0.0,0.0,0.0,0.0,0.0,0.0,0.0,0.0,0.0,0.0,0.0,0.0,0.0,0.0,0.0,0.0,0.0,0.0,0.0,0.0,0.0,0.0,0.0,0.0,0.0,0.0,0.0,0.0,0.0,0.0,0.0,0.0,0.0,0.0,0.0,0.0,0.0,0.0,0.0,0.0,0.0,0.0,0.0,0.0,0.0,0.0,0.0,0.0,0.0,0.0,0.0,0.0,0.0,0.0,0.0,0.0,0.0,0.0,0.0,0.0,0.0,0.0,0.0,0.0,0.9004,0.9756,1.0283,1.0283,1.0534,1.0725,1.0725,1.0733,1.0379,0.9486,0.0,0.0,0.0,0.0,0.0,0.0,0.0,0.0,0.0,0.0,0.0,0.0,0.0,0.0,0.0,0.0,0.0,0.0,0.0,0.0,0.0,0.0,0.0,0.0,0.0,0.0,0.0,0.0,0.0,0.0,0.0,0.0,0.0,0.0,0.0,0.0,0.0,0.0,0.0,0.0,0.0,0.0,0.0,0.0,0.0,0.0,0.0,0.0,0.0,0.0,0.0,0.0,0.0,0.0,0.0,0.0,0.0,0.0,0.0,0.0,0.0,0.0,0.0,0.0,0.0,0.0,0.0,0.0,0.0,0.0,0.0,0.0,0.0,0.0,0.0,0.0,0.0,0.0,0.0,0.0,0.0,0.0,0.0,0.0,0.0,0.0,0.0,0.0,0.0,0.0,0.0,0.0,0.0,0.0,0.0,0.0,0.0,0.0,0.0,0.0,0.0,0.0,0.9053,0.9775,1.0283,1.0283,1.0283,1.0322,1.0361,1.0244,0.9823,0.9101,0.0,0.0,0.0,0.0,0.0,0.0,0.0,0.0,0.0,0.0,0.0,0.0,0.0,0.0,0.0,0.0,0.0,0.0,0.0,0.0,0.0,0.0,0.0,0.0,0.0,0.0,0.0,0.0,0.0,0.0,0.0,0.0,0.0,0.0,0.0,0.0,0.0,0.0,0.0,0.0,0.0,0.0,0.0,0.0,0.0,0.0,0.0,0.0,0.0,0.0,0.0,0.0,0.0,0.0,0.0,0.0,0.0,0.0,0.0,0.0,1.4707,1.3765,0.0,0.0,0.0,0.0,0.0,0.0,0.0,0.0,0.0,0.0,0.0,0.0,0.0,0.0,0.0,0.0,0.0,0.0,0.0,0.0,0.0,0.0,0.0,0.0,0.0,0.0,0.0,0.0,0.0,0.0,0.0,0.0,0.0,0.0,0.0,0.0,0.0,0.0,0.0,0.0,0.9417,0.9961,1.0283,1.0283,1.0283,1.0467,1.0829,1.016,0.9692,0.9543,0.847,0.0,0.0,0.0,0.0,0.0,0.0,0.0,0.0,0.0,0.0,0.0,0.0,0.0,0.0,0.0,0.0,0.0,0.0,0.0,0.0,0.0,0.0,0.0,0.0,0.0,0.0,0.0,0.0,0.0,0.0,0.0,0.0,0.0,0.0,0.0,0.0,0.0,0.0,0.0,0.0,0.0,0.0,0.0,0.0,0.0,0.0,0.0,0.0,0.0,0.0,0.0,0.0,0.0,0.0,0.0,0.0,0.0,0.0,0.0,1.6243,1.5606,0.0,0.0,0.0,0.0,0.0,0.0,0.0,0.0,0.0,0.0,0.0,0.0,0.0,0.0,0.0,0.0,0.0,0.0,0.0,0.0,0.0,0.0,0.0,0.0,0.0,0.0,0.0,0.0,0.0,0.0,0.0,0.0,0.0,0.0,0.0,0.0,0.0,0.0,0.0,0.0,0.9883,1.0322,1.0586,1.0586,1.04,1.039,1.0649,1.022,0.9866,0.9666,0.8634,0.0,0.0,0.0,0.0,0.0,0.0,0.0,0.0,0.0,0.0,0.0,0.0,0.0,0.0,0.0,0.0,0.0,0.0,0.0,0.0,0.0,0.0,0.0,0.0,0.0,0.0,0.0,0.0,0.0,0.0,0.0,0.0,0.0,0.0,0.0,0.0,0.0,0.0,0.0,0.0,0.0,0.0,0.0,0.0,0.0,0.0,0.0,0.0,0.0,0.0,0.0,0.0,0.0,1.6485,1.6487,1.6507,1.6512,1.6501,1.6507,1.6499,1.6426,1.6193,1.499,0.0,0.0,0.0,0.0,0.0,0.0,0.0,0.0,0.0,0.0,0.0,0.0,0.0,0.0,0.0,0.0,0.0,0.0,0.0,0.0,0.0,0.0,1.3459,1.3416,1.3765,1.3506,1.1388,0.0,0.0,0.0,0.0,0.0,0.0,0.0,0.0,0.0,0.0,0.0,1.0479,1.0811,1.0996,1.0918,1.0596,1.0361,1.0332,1.0283,1.0098,0.9622,0.8984,0.8398,0.0,0.0,0.0,0.0,0.0,0.0,0.0,0.0,0.0,0.0,0.0,0.0,0.0,0.0,0.0,0.0,0.0,0.0,0.0,0.0,0.0,0.0,0.0,0.0,0.0,0.0,0.0,0.0,0.0,0.0,0.0,0.0,0.9366,1.0069,0.0,0.0,0.0,0.0,0.0,0.0,0.0,0.0,0.0,0.0,0.0,0.0,0.0,1.5811,1.6048,1.6043,1.6196,1.6502,1.6501,1.6515,1.6511,1.6515,1.6515,1.6511,1.6515,0.0,1.5543,1.5344,0.0,0.0,0.0,0.0,0.0,0.0,0.0,0.0,0.0,0.0,0.0,0.0,0.0,0.0,0.0,0.0,0.0,0.0,0.0,0.0,0.0,0.0,1.4487,1.4026,1.3898,1.3721,1.2851,1.2709,1.246,1.1683,1.1036,1.0351,0.0,0.0,0.0,0.0,0.0,0.0,1.1332,1.1479,1.1328,1.0947,1.0859,1.0684,1.0312,1.0283,1.0098,0.9622,0.9495,0.9242,0.8857,0.8428,0.0,0.0,0.0,0.0,0.0,0.0,0.0,0.0,0.0,0.0,0.0,0.0,0.0,0.0,0.0,0.0,0.0,0.0,0.0,0.0,0.0,0.0,0.0,0.0,0.0,0.0,0.0,0.0,0.0,0.9776,1.0661,1.178,1.1244,1.036,0.0,0.0,0.0,0.0,0.0,0.0,0.0,0.0,0.0,1.4874,1.5944,1.6519,1.6488,1.6523,1.6519,1.6519,1.6489,1.6522,1.6522,1.6522,1.6522,1.6522,1.6522,1.6325,1.5992,1.5706,1.5315,1.4918,0.0,0.0,0.0,0.0,1.4542,1.4715,1.5159,1.5163,1.5016,1.5016,0.0,0.0,0.0,0.0,0.0,0.0,0.0,1.3981,1.4748,1.488,1.482,1.4867,1.4624,1.4272,1.4005,1.3923,1.3513,1.2309,1.2056,1.1558,1.0232,1.0039,0.0,0.0,0.0,1.1273,1.1855,1.1934,1.1865,1.1626,1.1211,1.084,1.0654,1.042,1.0195,1.001,0.9729,0.9515,0.933,0.8955,0.8643,0.0,0.0,0.0,0.0,0.0,0.0,0.0,0.0,0.0,0.0,0.0,0.0,0.0,0.0,0.0,0.0,0.0,0.0,0.0,0.0,0.0,0.0,0.0,0.0,0.0,0.0,0.0,0.0,1.0383,1.1409,1.2998,1.3159,1.2559,0.0,0.0,0.0,0.0,0.0,0.0,1.6386,1.6504,1.6497,1.651,1.651,1.649,1.6517,1.6516,1.6522,1.6522,1.6522,1.6522,1.6522,1.6522,1.6522,1.6522,1.6522,1.6522,1.6484,1.607,1.5686,1.5332,1.4877,1.4475,1.4257,1.46,1.4695,1.4829,1.5586,1.588,1.5906,1.5906,1.553,1.5028,1.4597,0.0,0.0,0.0,0.0,1.4641,1.5229,1.5211,1.5093,1.5316,1.4915,1.4433,1.4247,1.4247,1.3949,1.2876,1.2918,1.2619,1.1061,1.0947,0.0,1.0811,1.1318,1.1895,1.2344,1.2393,1.2353,1.219,1.1641,1.1201,1.1084,1.0684,1.0439,1.0439,1.0039,0.9795,0.9795,0.9492,0.9277,0.917,0.0,0.0,0.0,0.0,0.0,0.0,0.0,0.0,0.0,0.0,0.0,0.0,0.0,0.0,0.0,0.0,0.0,0.0,0.0,0.0,0.0,0.0,0.0,0.0,0.0,0.0,0.0,0.0,0.0,1.2931,1.3039,0.0,0.0,0.0,0.0,1.6315,1.6303,1.6369,1.6512,1.6503,1.6504,1.6492,1.6484,1.6508,1.6495,1.6498,1.6522,1.6522,1.6522,1.6522,1.6522,1.6522,1.6522,1.6522,1.6522,1.6522,1.6522,1.6484,1.6429,1.6429,1.6403,1.6348,1.6348,1.6373,1.6373,1.6391,1.6454,1.6454,1.6471,1.6471,1.6107,1.5649,1.5555,1.5148,0.0,0.0,1.5504,1.5648,1.6287,1.6003,1.5419,1.4869,1.4283,1.3684,1.3104,1.2968,1.3142,1.3622,1.3405,1.2886,1.223,0.0,1.1704,1.207,1.2122,1.2353,1.2793,1.2842,1.2686,1.2275,1.2141,1.1992,1.1606,1.1133,1.0879,1.0879,1.0478,1.0244,1.0244,1.0234,1.002,0.9573,0.9544,0.0,0.0,0.0,0.0,0.0,0.0,0.0,0.0,0.0,0.0,0.0,0.0,0.0,0.0,0.0,0.0,0.0,0.0,0.0,0.0,0.0,0.0,0.0,0.0,0.0,0.0,0.0,0.0,1.2787,1.4327,0.0,1.5222,1.6021,1.7098,1.8533,1.863,1.8624,1.8624,1.8608,1.8618,1.8618,1.8597,1.7915,1.6513,1.6498,1.6511,1.6483,1.6483,1.6504,1.6522,1.6522,1.6522,1.6522,1.6522,1.6522,1.6522,1.6522,1.6522,1.6522,1.6522,1.6522,1.6522,1.6522,1.6522,1.6522,1.6522,1.6522,1.6522,1.6522,1.6384,1.6216,1.6188,1.6059,1.5917,1.6145,1.5908,1.5632,1.5864,1.5186,1.4411,1.419,1.3647,1.3152,1.2978,1.2881,1.2968,1.32,1.307,1.2822,1.2275,1.2334,1.2373,1.22,1.2471,1.2705,1.2861,1.2881,1.2822,1.2666,1.2393,1.2158,1.2002,1.1582,1.1211,1.0928,1.0771,1.0566,1.0293,1.0283,1.0215,1.0049,0.9738,0.9242,0.0,0.0,0.0,0.0,0.0,0.0,0.0,0.0,0.0,0.0,0.0,0.0,0.0,0.0,0.0,0.0,0.0,0.0,0.0,0.0,0.0,0.0,0.0,0.0,0.0,1.2086,1.2801,1.3957,1.6208,1.7587,1.7617,1.7593,1.8227,1.969,1.9801,1.978,1.9788,1.9817,1.978,1.9788,1.9781,1.9083,1.7617,1.7591,1.7619,1.7581,1.6851,1.65,1.6511,1.6485,1.6522,1.6522,1.6522,1.6522,1.6522,1.6522,1.6522,1.6522,1.6522,1.6522,1.6522,1.6522,1.6522,1.6522,1.6522,1.6522,1.6522,1.6522,1.6522,1.6522,1.6522,1.6522,1.6479,1.6238,1.6051,1.582,1.541,1.4869,1.4318,1.3909,1.3505,1.3152,1.2929,1.2881,1.2881,1.2881,1.2881,1.2783,1.25,1.2686,1.2783,1.249,1.2695,1.2881,1.2881,1.2881,1.2881,1.2881,1.2617,1.2451,1.2451,1.2041,1.166,1.1377,1.1211,1.0937,1.0508,1.0488,1.043,1.0283,1.0,0.9785,0.9648,0.0,0.0,0.0,0.0,0.0,0.0,0.0,0.0,0.0,0.0,0.0,0.0,0.0,0.0,0.0,0.0,0.0,0.0,0.0,0.0,0.0,0.0,0.0,1.0496,1.4027,1.6593,1.6607,1.8516,1.9824,1.9777,1.9788,1.9771,1.9771,1.9822,1.9747,1.9658,1.9763,1.9812,1.9811,1.9775,1.9771,1.9771,1.9791,1.9824,1.9751,1.7618,1.6581,1.6544,1.6536,1.6516,1.6572,1.6572,1.6572,1.6572,1.6572,1.6559,1.6547,1.6522,1.6522,1.6522,1.6522,1.6522,1.6522,1.6522,1.6522,1.6522,1.6522,1.6522,1.6547,1.6547,1.6559,1.643,1.58,1.6032,1.6175,1.4971,1.5096,1.5231,1.405,1.3768,1.36,1.3017,1.2881,1.2881,1.2881,1.2881,1.2881,1.2881,1.2881,1.2881,1.2881,1.2881,0.0,1.2881,1.2881,1.2881,1.2881,1.2881,1.2881,1.2881,1.249,1.22,1.218,1.1816,1.143,1.0947,1.0928,1.0742,1.0371,1.0312,1.0508,1.0908,0.0,0.0,0.0,0.0,0.0,0.0,0.0,0.0,0.0,0.0,0.0,0.0,0.0,0.0,0.0,0.0,0.0,0.0,0.0,0.0,0.0,1.3059,1.4778,1.4801,1.7143,1.8883,1.8882,1.9453,1.9806,1.9775,1.9775,1.9775,1.9775,1.9823,1.8882,1.6694,1.863,1.9822,1.9798,1.9825,1.9775,1.9775,1.9788,1.9786,1.9765,1.9175,1.8465,1.7725,1.7421,1.7442,1.7739,1.7739,1.7739,1.7739,1.7739,1.7501,1.7099,1.6685,1.6522,1.6522,1.6522,1.6522,1.6522,1.6522,1.6522,1.6522,1.6522,1.681,1.7149,1.7149,1.7426,1.7501,1.645,1.5974,1.5521,1.437,1.3826,1.3563,1.3248,1.3152,1.3104,1.2929,1.2881,1.2881,1.2881,1.2881,1.2881,1.2881,1.2881,1.2881,1.2881,1.2881,1.2881,1.2881,1.2881,1.2881,1.2881,1.2881,1.2881,1.2881,1.2773,1.2568,1.22,1.2109,1.1846,1.1439,1.143,1.1371,1.1253,1.0898,1.0791,0.0,0.0,0.0,0.0,0.0,0.0,0.0,0.0,0.0,0.0,0.0,0.0,0.0,0.0,0.0,0.0,0.0,0.0,0.0,0.0,0.0,0.0,1.5707,1.7897,1.7897,1.9003,1.9788,1.9812,1.98,1.9813,1.9786,1.9798,1.9798,1.9798,1.9808,1.9044,1.7323,1.8855,1.9808,1.9811,1.9798,1.9798,1.9798,1.9798,1.9813,1.98,1.9823,1.9466,1.8875,1.8159,1.8047,1.8387,1.8276,1.8204,1.8204,1.8204,1.8016,1.7664,0.0,0.0,0.0,0.0,1.6522,1.6559,1.6798,1.6886,1.6923,1.7149,1.7451,1.7727,1.7727,1.7953,1.7939,1.6657,1.6112,1.555,1.4039,1.3466,1.319,1.2968,1.2881,1.2881,1.2881,1.2881,1.2881,1.2881,1.2881,0.0,1.2881,1.2881,1.2881,1.2881,1.2881,1.2881,1.2881,1.2881,1.2881,1.2881,1.2881,1.2881,1.2881,1.2881,0.0,0.0,0.0,1.2305,1.1855,1.1704,0.0,0.0,0.0,0.0,0.0,1.1484,0.0,0.0,1.0666,1.0109,0.0,0.0,0.0,0.0,0.0,0.0,0.0,0.0,0.0,0.0,0.0,0.0,0.0,0.0,0.0,0.0,1.851,1.9821,1.981,1.981,1.9812,1.9825,1.9798,1.9798,1.9798,1.9798,1.9798,1.9798,1.9815,1.9788,1.9811,1.9815,0.0,0.0,0.0,1.9798,1.9798,1.9798,1.9798,1.9798,1.9787,1.981,1.9784,1.8791,1.8551,1.8796,1.8538,1.838,1.838,1.838,1.8342,1.8242,1.7689,1.7124,1.6609,1.6609,1.6609,1.6685,1.72,0.0,0.0,1.8053,1.8242,1.8292,1.8292,1.8282,1.7958,1.6681,1.6325,1.5909,1.4074,1.368,1.3625,1.3086,1.291,1.2881,1.2881,1.2881,1.2881,1.2881,1.2881,1.2881,1.2881,1.2881,1.2881,1.2881,1.2881,1.2881,1.2881,1.2881,1.2881,1.2881,1.2881,0.0,1.2881,1.2881,1.2881,1.2881,1.2881,1.2705,1.2324,1.1924,1.1895,1.2248,1.2305,1.249,1.2881,1.2881,1.2881,1.2852,1.1172,1.0722,0.0,0.0,0.0,0.0,0.0,0.0,0.0,0.0,0.0,0.0,0.0,0.0,0.0,0.0,0.0,1.84,1.9544,1.9798,1.9788,1.9825,1.9787,1.9798,1.9798,1.9798,1.9798,1.9798,1.9798,1.9798,1.9797,1.9809,1.9811,1.9797,1.9809,1.9798,1.9798,1.9798,1.9798,1.9798,1.9798,1.9798,1.9799,0.0,1.9813,1.9611,1.951,1.9585,1.951,1.9497,1.9497,1.9497,1.9246,1.8819,1.8254,1.7702,1.7212,1.7212,1.7212,1.7237,1.735,1.7664,1.8066,1.8179,1.8505,1.8869,1.8869,1.8744,0.0,1.7197,1.6431,1.569,1.4357,1.3795,1.352,1.3389,1.3125,1.2881,1.2881,1.2881,1.2881,1.2881,1.2881,1.2881,1.2881,1.2881,1.2881,1.2881,1.2881,1.2881,1.2881,1.2881,1.2881,1.2881,1.2881,1.2881,1.2881,1.2881,1.2881,1.2881,1.2881,1.2842,1.2754,1.2676,1.2666,1.2754,1.2754,1.2803,1.2881,1.2881,1.2881,1.2871,1.2522,1.2129,0.0,0.0,0.0,0.0,0.0,0.0,0.0,0.0,0.0,0.0,0.0,1.2728,1.179,0.0,1.7116,1.9422,1.98,1.9788,1.9786,1.9798,1.9798,1.9798,1.9798,1.9798,1.9798,1.9798,1.9798,1.9798,1.9798,1.9798,1.9798,1.9798,1.9798,1.9798,1.9798,1.9798,1.9798,1.9798,1.9798,1.9798,1.9798,1.9798,1.9798,1.9798,1.9798,1.9798,1.9798,1.9798,1.9798,1.9798,1.9648,1.9384,1.9108,1.8505,1.779,1.779,1.779,1.784,1.8103,1.8392,1.8656,1.892,1.9196,1.9409,1.9409,1.9329,1.9036,1.809,1.719,1.6213,1.5242,1.4387,1.3818,1.3818,1.3662,1.3506,1.3506,1.3506,1.3506,1.3506,1.334,1.3193,1.3193,1.3018,1.2881,1.2881,1.2881,1.2881,1.2881,1.2881,1.2881,1.2881,1.2881,1.2881,1.2881,1.2881,1.2881,1.2881,1.2881,1.2881,1.2881,1.2881,1.2881,1.2881,1.2881,1.2881,1.2881,1.2881,1.2881,1.2881,1.2881,1.2715,0.0,0.0,0.0,0.0,0.0,0.0,0.0,1.377,1.4286,1.4073,1.3807,1.3716,1.4181,1.7298,1.9798,1.9798,1.98,1.9798,1.9798,1.9798,1.9798,1.9798,1.9798,1.9798,1.9798,1.9809,1.9795,1.9795,1.9793,1.979,1.979,1.979,1.979,1.979,1.979,2.0022,2.042,2.042,2.0319,2.0039,2.0039,1.9924,1.9798,1.9798,1.9798,1.9798,1.9798,1.9798,1.9798,1.9798,1.9798,1.9798,1.9798,1.9271,1.8505,1.8405,1.8367,1.843,1.8869,1.9046,1.9246,1.966,1.9798,1.9798,1.9798,1.9695,1.9475,1.8874,1.7943,1.6944,1.619,1.526,1.4409,1.4258,1.4199,1.4077,1.4077,1.4077,1.4077,1.4077,1.3857,1.3633,1.3633,1.3281,1.2978,1.2891,1.2881,1.2881,1.2881,1.2881,1.2881,1.2881,1.2881,1.2881,1.2881,1.3017,1.3017,1.2929,1.3017,1.3017,1.2881,1.2881,1.2881,1.2881,1.2881,1.2881,1.2881,1.2881,1.2881,1.2881,1.2881,1.2881,1.325,1.3725,1.4631,1.5017,1.5611,1.614,0.0,1.6906,1.7372,1.635,1.613,1.6692,1.8672,1.9472,1.9799,1.9799,1.9786,1.9798,1.9798,1.9798,1.9798,1.9798,1.9798,1.9798,1.9798,1.9812,1.9814,1.9814,1.9812,1.9817,1.9817,1.9817,1.9817,1.9817,1.9817,2.0736,2.2737,2.2737,2.2076,2.08,2.08,2.0456,1.9798,1.9798,1.9798,1.9798,1.9798,1.9798,1.9798,1.9798,1.9798,1.9798,1.9798,1.9723,1.956,1.9108,1.8883,1.8895,1.8958,1.9334,1.9723,1.9786,1.9798,1.9798,1.9798,1.9359,1.8821,1.8715,1.8132,1.739,1.6623,1.6053,1.5546,1.4864,1.4414,1.4077,1.4077,1.4077,1.4077,1.4077,1.4038,1.4009,1.4009,1.3721,1.3311,1.2939,1.2881,1.2881,1.2881,1.2881,1.2881,1.2881,1.2881,1.2881,1.2881,1.3372,1.3467,1.292,1.342,1.3467,1.2929,1.2881,1.2881,1.2881,1.2881,1.2881,1.2881,1.2881,1.2881,1.2881,1.2881,1.2881,1.4909,1.5269,1.5728,1.5961,1.7201,1.8088,1.681,1.7873,1.9016,1.8499,1.841,1.8706,1.9649,1.9825,1.9798,1.9798,1.9798,1.9798,1.9798,1.9798,1.9798,1.9798,1.9818,1.9825,1.9825,1.9789,2.032,2.1593,2.1729,2.1749,2.1749,2.1749,2.1749,2.1749,2.1749,2.2163,2.3067,2.2661,2.2142,2.1526,2.1327,2.092,2.03,2.03,2.0125,1.9823,2.0162,2.0112,1.9798,1.9798,1.9798,1.9798,1.9798,1.9798,1.9773,1.956,1.9472,1.9472,1.9472,1.9623,1.9798,1.9798,1.9798,1.9798,1.9798,1.9579,1.9359,1.9359,1.8821,1.8178,1.7841,1.7367,1.6732,1.5976,1.5619,1.5366,1.4929,1.4883,1.4883,1.4883,1.4678,1.4512,1.4512,1.416,1.3818,1.3633,1.3193,1.2881,1.2881,1.2881,1.2881,1.2881,1.2881,1.3065,1.3372,1.3637,1.3684,1.342,1.3637,1.3552,1.2929,1.2881,1.2881,1.2881,1.2881,1.2881,1.2881,1.2881,1.2881,1.2891,1.3135,1.3242,1.5822,1.5997,1.5994,1.6408,1.7713,1.8648,1.7647,1.8659,1.98,1.9812,1.9798,1.9798,1.9798,1.9822,1.978,1.978,1.9803,1.9788,1.9793,1.978,1.978,1.978,1.9781,2.0047,2.063,2.0722,2.1373,2.2976,2.3132,2.3114,2.3114,2.3114,2.3114,2.3114,2.3114,2.3114,2.3114,2.2553,2.2249,2.2096,2.1826,2.143,2.0891,2.0891,2.0665,2.0288,2.0702,2.0652,2.0263,2.0263,2.0263,2.0263,2.0263,2.0263,2.0263,2.0263,2.0075,1.9798,1.9798,1.9798,1.9798,1.9798,1.9798,1.9798,1.9798,1.9798,1.9798,1.9798,1.9423,1.898,1.8768,1.8286,1.7743,1.6978,1.681,1.6595,1.5864,1.569,1.5642,1.5468,1.5166,1.5008,1.5233,1.471,1.4361,1.4566,1.3846,1.3184,1.3066,1.2959,1.2881,1.2881,1.2881,1.3055,1.3505,1.3873,1.392,1.3552,1.3873,1.3695,1.2929,1.2881,1.2881,1.2881,1.2881,1.2881,1.2881,1.2998,1.3057,1.3066,1.3486,1.374,1.5032,1.506,1.5021,1.6218,1.6546,1.7135,1.923,1.9761,1.9786,1.9798,1.9798,1.9798,1.9798,1.98,1.9809,1.9809,1.9806,1.978,1.9792,1.9809,1.9809,1.9809,1.9809,2.0618,2.277,2.2981,2.3065,2.309,2.3103,2.31,2.31,2.31,2.31,2.31,2.31,2.31,2.31,2.31,2.2824,2.2297,2.2284,2.1995,2.1468,2.1468,2.1455,2.1443,2.1455,2.1455,2.1443,2.1443,2.1443,2.1443,2.1443,2.1443,2.1443,2.1443,2.074,1.9798,1.9798,1.9798,1.9798,1.9798,1.9798,1.9798,1.9798,1.9798,1.9798,1.9798,1.9798,1.9579,1.8874,1.8661,1.8501,1.7743,1.7578,1.7357,1.6652,1.6492,1.6265,1.5526,1.54,1.5623,1.6358,1.5537,1.5024,1.576,1.4841,1.3945,1.3545,1.3135,1.2881,1.2881,1.2881,1.2929,1.2929,1.4025,1.4154,1.3027,1.4025,1.4154,1.2978,1.2881,1.2881,1.2881,1.2881,1.2881,1.2881,1.3291,1.3486,1.3496,1.3863,1.4346,1.5448,1.4639,1.4008,1.6029,1.7582,1.8892,1.9659,1.9798,1.9798,1.9798,1.9798,1.9798,1.9798,1.9783,2.029,2.1729,2.2016,2.2011,2.2018,2.0729,1.9812,1.9812,2.1076,2.2287,2.3007,2.3116,2.3089,2.3069,2.3075,2.3078,2.3078,2.3078,2.3078,2.3078,2.3078,2.3078,2.3078,2.3078,2.2977,2.2862,2.2485,2.2221,2.2033,2.2033,2.1832,2.1506,2.1882,2.1832,2.1493,2.1493,2.1493,2.1493,2.1493,2.1493,2.1493,2.1493,2.1242,2.0928,2.0928,2.0928,2.0865,2.0489,2.0376,2.03,1.9911,1.9798,1.9798,1.9798,1.9798,1.9747,1.9475,1.9423,1.9254,1.8501,1.834,1.8004,1.6765,1.6492,1.6265,1.5526,1.541,1.5468,1.5748,1.5857,1.6038,1.6252,1.5008,1.4029,1.3945,1.3799,1.3603,1.333,1.3301,1.3681,1.4532,1.5001,1.5384,1.5807,1.6217,1.5819,1.449,1.4439,1.4195,1.3711,1.3711,1.3711,1.3711,1.3857,1.3926,1.3936,1.4365,1.4648,1.4892,1.5096,1.5719,1.7275,1.8729,1.9798,1.9798,1.9798,1.9798,1.9798,1.9798,1.9798,1.9798,1.9795,2.0275,2.1696,2.2567,2.3126,2.3111,2.1876,2.1006,2.1006,2.2259,2.3098,2.3106,2.3837,2.3952,2.3163,2.3078,2.3078,2.3078,2.3078,2.3078,2.3078,2.3078,2.3078,2.3078,2.3078,2.3078,2.3125,2.2774,2.2611,2.2611,2.2611,2.241,2.2096,2.2447,2.2397,2.2071,2.2071,2.2071,2.2071,2.2071,2.2071,2.2071,2.2071,2.2071,2.202,2.1631,2.1493,2.143,2.1079,2.0966,2.0853,2.0288,2.0112,2.0075,1.9861,1.9798,1.9798,1.9798,1.9798,1.9695,1.9202,1.9097,1.8768,1.7523,1.7302,1.6968,1.5979,1.5806,1.5806,1.5806,1.6425,1.6866,1.6866,1.5815,1.4904,1.4743,1.4583,1.4477,1.4512,1.4277,1.4572,1.5706,1.5755,1.6086,1.6912,1.7181,1.6665,1.5277,1.5184,1.4831,1.4131,1.4077,1.4077,1.4077,1.4287,1.4365,1.4375,1.4805,1.501,1.3751,1.6485,1.9798,1.9787,1.9798,1.9798,1.9798,1.9798,1.9798,1.9798,1.9798,1.9798,1.9786,1.98,1.9812,1.9797,2.1649,2.3116,2.3083,2.3083,2.3083,2.3083,2.3115,2.3167,2.3294,2.5243,2.5587,2.3437,2.3201,2.3103,2.3175,2.309,2.3078,2.3078,2.3078,2.3078,2.3078,2.3078,2.3078,2.3078,2.3078,2.3078,2.3078,2.3078,2.3078,2.3078,2.3078,2.3078,2.3078,2.3078,2.3078,2.3078,2.3078,2.3078,2.3078,2.3078,2.3078,2.2927,2.1933,2.1568,2.1568,2.1543,2.1531,2.143,2.092,2.0756,2.0589,2.0037,1.9886,1.9874,1.9849,1.9849,1.9836,1.9811,1.9823,1.9617,1.8886,1.8738,1.8309,1.6821,1.6549,1.6549,1.6549,1.7146,1.7633,1.7633,1.6978,1.6381,1.6028,1.5585,1.5558,1.6283,1.5753,1.5588,1.6384,1.6334,1.6384,1.6569,1.7116,1.6784,1.5351,1.5299,1.4955,1.4199,1.4145,1.4145,1.4145,1.4619,1.4814,1.4824,1.5225,1.541,1.7735,1.8895,1.9813,1.9786,1.9798,1.9798,1.9798,1.9798,1.9798,1.9798,1.9798,1.9787,1.9812,1.982,1.9792,1.9824,2.1669,2.3076,2.3094,2.3072,2.3072,2.3072,2.3088,2.3783,2.5465,2.6133,2.6264,2.5702,2.4042,2.3356,2.389,2.3389,2.3078,2.3078,2.3078,2.3078,2.3078,2.3078,2.3078,2.3078,2.3078,2.3078,2.3078,2.3078,2.3078,2.3078,2.3078,2.3078,2.3078,2.3078,2.3078,2.3078,2.3078,2.3078,2.3078,2.3078,2.3078,2.3027,2.2811,2.2711,2.2648,2.2234,2.2108,2.1995,2.1443,2.128,2.1242,2.1104,2.1054,2.0966,2.0552,2.0451,2.0338,1.9911,2.0125,2.0167,1.897,1.9036,1.8983,1.7601,1.7302,1.7302,1.7302,1.7468,1.7797,1.8328,1.7302,1.6666,1.7137,1.6577,1.61,1.602,1.6348,1.6621,1.6841,1.7294,1.7981,1.889,1.9068,1.853,1.7036,1.6982,1.6382,1.5078,1.5088,1.5088,1.5088,1.5195,1.5254,1.5254,1.5361,1.541,1.9221,1.9775,1.9798,1.9798,1.9798,1.9825,1.9788,1.9813,1.9825,1.9798,1.9812,1.9812,1.9801,1.902,1.8976,2.0929,2.2262,2.3122,2.3122,2.3078,2.3078,2.3078,2.3081,2.3977,2.6304,2.6231,2.6155,2.6501,2.5025,2.4267,2.4697,2.4167,2.3879,2.3879,2.3879,2.3766,2.3514,2.3203,2.3078,2.3078,2.3078,2.3078,2.3078,2.3078,2.3078,2.3078,2.3078,2.3078,2.3078,2.3078,2.3078,2.3078,2.3078,2.3078,2.3078,2.3078,2.3078,2.3078,2.3078,2.3078,2.3027,2.2774,2.2673,2.2573,2.202,2.1845,2.1794,2.1556,2.1493,2.1418,2.1104,2.1029,2.0941,2.0627,2.079,2.0819,2.0104,2.0165,2.006,1.8728,1.7999,1.7688,1.8015,1.8058,1.834,1.9097,1.8221,1.7731,1.8447,1.7633,1.7148,1.755,1.7698,1.7868,1.8182,1.8287,1.8782,1.9734,1.9798,1.915,1.7688,1.7578,1.6912,1.541,1.541,1.541,1.541,1.541,1.541,1.541,1.541,1.541,1.9267,1.9798,1.9798,1.9798,1.9798,1.9825,1.9786,1.956,1.9434,1.9747,1.9594,1.9351,1.9365,1.78,1.7864,2.197,2.2905,2.3075,2.3097,2.3078,2.3078,2.3078,2.3232,2.4129,2.6259,2.5892,2.5824,2.6483,2.5911,2.5483,2.5407,2.4998,2.482,2.482,2.482,2.4556,2.4004,2.3502,2.3153,2.3078,2.3078,2.3078,2.3078,2.3078,2.3078,2.3078,2.3078,2.3078,2.3078,2.3078,2.3078,2.3078,2.3078,2.3078,2.3078,2.3078,2.3078,2.3078,2.3078,2.3078,2.3078,2.3078,2.3078,2.2977,2.2573,2.2422,2.2322,2.1845,2.1707,2.1694,2.1619,2.1594,2.1581,2.1506,2.1543,2.1581,2.1506,2.1493,2.1151,1.9865,1.8759,1.815,1.862,1.8768,1.9044,1.9695,1.915,1.8992,1.9695,1.8608,1.8232,1.9527,1.915,1.9097,1.9592,1.915,1.9097,1.9747,1.9798,1.9202,1.7786,1.7633,1.6968,1.5584,1.5468,1.541,1.541,1.5526,1.5526,1.5526,1.5526,1.5526,1.9697,1.9798,1.9798,1.9798,1.9798,1.9825,1.9786,1.8375,0.0,1.9422,1.8364,1.7073,1.7082,1.6777,1.7364,1.995,2.1923,2.3075,2.3097,2.3078,2.3078,2.3078,2.395,2.5,2.6362,2.6347,2.6388,2.6496,2.6382,2.608,2.5589,2.5071,2.482,2.482,2.482,2.4556,2.4004,2.3904,2.3602,2.3078,2.3078,2.3078,2.3078,2.3078,2.3078,2.3078,2.3078,2.3078,2.3078,2.3078,2.3078,2.3078,2.3078,2.3078,2.3078,2.3078,2.3078,2.3078,2.3078,2.3078,2.3078,2.3078,2.3078,2.3053,2.2965,2.2927,2.2915,2.2874,2.2849,2.2749,2.2284,2.2171,2.2058,2.1594,2.1832,2.2046,2.1594,2.1493,2.1151,1.9865,1.9903,1.9858,1.8851,1.9202,1.9643,1.9798,1.915,1.8992,1.9695,1.9044,1.8608,1.8874,1.9307,1.9423,1.8927,1.9307,1.9643,1.9798,1.9798,1.9423,1.8555,1.7895,1.7191,1.6322,1.569,1.541,1.541,1.6036,1.6322,1.6322,1.6322,1.6322,1.9798,1.9798,1.9798,1.9798,1.9798,1.9775,1.9814,0.0,0.0,1.7872,1.7256,1.6517,1.6502,1.6484,1.686,1.7929,2.09,2.312,2.3114,2.4116,2.4862,2.4861,2.4974,2.5512,2.6426,2.624,2.6164,2.6496,2.6533,2.6339,2.6063,2.5812,2.5674,2.5674,2.5121,2.4695,2.4431,2.3841,2.3414,2.3078,2.3078,2.3078,2.3078,2.3078,2.3078,2.3078,2.3078,2.3078,2.3078,2.3078,2.3078,2.3078,2.3078,2.3078,2.3078,2.3078,2.3078,2.3078,2.3078,2.3078,2.3078,2.3078,2.3078,2.3078,2.3078,2.3078,2.3078,2.3078,2.3078,2.3015,2.2811,2.2736,2.2673,2.241,2.2548,2.2673,2.2397,2.2121,2.1631,2.0736,2.0635,2.0423,1.9457,1.9579,1.9798,1.9798,1.9475,1.9423,1.9747,1.9475,1.9254,1.9254,1.9579,1.9643,1.9307,1.9592,1.9798,1.9798,1.9798,1.9475,1.8715,1.8015,1.7246,1.6482,1.5748,1.5584,1.5979,1.6322,1.6708,1.709,1.709,1.6866,1.9798,1.9798,1.9798,1.9798,1.9798,1.9788,1.9799,1.8079,1.6478,1.6492,1.6504,1.6515,1.6485,1.6516,1.6517,1.648,1.9813,2.2538,2.3051,2.4827,2.6216,2.6472,2.5845,2.5714,2.6447,2.6051,2.5963,2.6496,2.6533,2.6533,2.6533,2.6533,2.6533,2.6533,2.5498,2.4933,2.482,2.3828,2.3263,2.3078,2.3078,2.3078,2.3078,2.3078,2.3078,2.3078,2.3078,2.3078,2.3078,2.3078,2.3078,2.3078,2.3078,2.3078,2.3078,2.3078,2.3078,2.3078,2.3078,2.3078,2.3078,2.3078,2.3078,2.3078,2.3078,2.3078,2.3078,2.3078,2.3078,2.3078,2.3078,2.3078,2.3078,2.3078,2.3078,2.3078,2.3078,2.2799,2.2322,2.1769,2.1317,2.0803,2.01,1.9987,1.9949,1.9823,1.9798,1.9798,1.9798,1.9798,1.9798,1.9798,1.9798,1.9798,1.9798,1.9798,1.9798,1.9798,1.9798,1.9527,1.898,1.8221,1.7578,1.6978,1.6083,1.5979,1.6765,1.6765,1.7079,1.7852,1.7852,1.7523,1.9798,1.9798,1.9798,1.9798,1.9798,1.9788,1.9799,0.0,1.649,1.6486,1.6504,1.6504,1.6479,1.6504,1.6487,1.6495,0.0,2.0785,2.2808,2.4157,2.5319,2.637,2.5936,2.5794,2.6406,2.6418,2.6471,2.6533,2.6533,2.6533,2.6533,2.6533,2.6533,2.6533,2.585,2.5297,2.4833,2.4217,2.3653,2.3078,2.3078,2.3078,2.3078,2.3078,2.3078,2.3078,2.3078,2.3078,2.3078,2.3078,2.3078,2.3078,2.3078,2.3078,2.3078,2.3078,2.3078,2.3078,2.3078,2.3078,2.3078,2.3078,2.3078,2.3078,2.3078,2.3078,2.3078,2.3078,2.3078,2.3078,2.3078,2.3078,2.3078,2.3078,2.3078,2.3078,2.3078,2.3027,2.2899,2.2347,2.2196,2.1832,2.0765,2.0643,2.0401,1.9874,1.9798,1.9798,1.9798,1.9798,1.9798,1.9798,1.9798,1.9798,1.9798,1.9798,1.9798,1.9798,1.9798,1.9747,1.9695,1.8992,1.8555,1.8501,1.7146,1.6754,1.7523,1.7523,1.7907,1.8608,1.8608,1.8555,1.9799,1.9798,1.9798,1.9798,1.9798,1.9788,1.9799,1.8106,1.6501,1.6486,1.6522,1.6522,1.6522,1.6522,1.6961,1.8257,1.922,2.0126,2.0974,2.2668,2.4128,2.4983,2.5394,2.5841,2.6418,2.6514,2.6533,2.6533,2.6533,2.6533,2.6533,2.6533,2.6533,2.6533,2.59,2.5347,2.4833,2.428,2.3703,2.3078,2.3078,2.3078,2.3078,2.3078,2.3078,2.3078,2.3078,2.3078,2.3078,2.3078,2.3078,2.3078,2.3078,2.3078,2.3078,2.3078,2.3078,2.3078,2.3078,2.3078,2.3078,2.3078,2.3078,2.3078,2.3078,2.3078,2.3078,2.3078,2.3078,2.3078,2.3078,2.3078,2.3078,2.3078,2.3078,2.3078,2.3078,2.3078,2.2915,2.2422,2.2309,2.1958,2.0853,2.0718,2.0517,1.9886,1.9798,1.9798,1.9798,1.9798,1.9798,1.9798,1.9798,1.9798,1.9798,1.9798,1.9798,1.9798,1.9798,1.9798,1.9798,1.9097,1.8715,1.8715,1.7688,1.7523,1.8286,1.8286,1.8661,1.9371,1.9371,1.915,1.9813,1.9787,1.9798,1.9798,1.9787,1.9787,1.9786,1.8091,1.6486,1.6504,1.6522,1.6522,1.6522,1.6522,1.6999,0.0,1.9347,1.9889,2.0064,2.1819,2.3357,2.4066,2.4833,2.5586,2.6151,2.6433,2.6533,2.6533,2.6533,2.6533,2.6533,2.6533,2.6533,2.6533,2.59,2.5347,2.4833,2.428,2.3703,2.3078,2.3078,2.3078,2.3078,2.3078,2.3078,2.3078,2.3078,2.3078,2.3078,2.3078,2.3078,2.3078,2.3078,2.3078,2.3078,2.3078,2.3078,2.3078,2.3078,2.3078,2.3078,2.3078,2.3078,2.3078,2.3078,2.3078,2.3078,2.3078,2.3078,2.3078,2.3078,2.3078,2.3078,2.3078,2.3078,2.3078,2.3078,2.3078,2.2965,2.2636,2.256,2.2259,2.1317,2.1154,2.0953,2.0388,2.0162,2.0062,2.0062,1.9911,1.9798,1.9798,1.9798,1.9798,1.9798,1.9798,1.9798,1.9798,1.9798,1.9798,1.9798,1.9307,1.9044,1.9044,1.8286,1.8286,1.9032,1.8821,1.9097,1.9798,1.9798,1.9527,1.9821,1.9788,1.9798,1.9798,1.9788,1.978,1.9782,1.8101,1.6479,1.6498,1.6522,1.6522,1.6522,1.6522,1.6504,1.6528,1.8392,2.0051,2.079,2.2184,2.3344,2.3953,2.4494,2.5034,2.5548,2.6126,2.6533,2.6533,2.6533,2.6533,2.6533,2.6533,2.6533,2.6533,2.59,2.5347,2.4833,2.428,2.3703,2.3078,2.3078,2.3078,2.3078,2.3078,2.3078,2.3078,2.3078,2.3078,2.3078,2.3078,2.3078,2.3078,2.3078,2.3078,2.3078,2.3078,2.3078,2.3078,2.3078,2.3078,2.3078,2.3078,2.3078,2.3078,2.3078,2.3078,2.3078,2.3078,2.3078,2.3078,2.3078,2.3078,2.3078,2.3078,2.3078,2.3078,2.3078,2.3078,2.3078,2.3065,2.3065,2.2949,2.2397,2.2297,2.2108,2.1556,2.1004,2.0706,2.0706,2.0162,1.9798,1.9798,1.9798,1.9798,1.9798,1.9798,1.9798,1.9798,1.9798,1.9798,1.9798,1.9798,1.9798,1.9798,1.9044,1.9032,1.9798,1.9044,1.9097,1.9798,1.9798,1.9798,1.9374,1.9794,1.9811,1.9811,1.9794,1.9409,1.7907,1.7016,1.6524,1.6498,1.6522,1.6522,1.6522,1.6522,1.6986,1.8535,1.9336,2.0142,2.1176,2.2362,2.3286,2.3916,2.5146,2.6,2.6163,2.642,2.6533,2.6533,2.6533,2.6533,2.6533,2.6533,2.6276,2.5887,2.5686,2.5172,2.4268,2.4456,2.4079,2.3078,2.3916,2.4092,2.3728,2.3728,2.3728,2.3703,2.3314,2.3078,2.3078,2.3078,2.3078,2.3078,2.3078,2.3078,2.3078,2.3078,2.3078,2.3078,2.3078,2.3078,2.3078,2.3078,2.3078,2.3078,2.3078,2.3078,2.3078,2.3078,2.3078,2.3078,2.3078,2.3078,2.3078,2.3078,2.3078,2.3078,2.3078,2.3078,2.3078,2.3078,2.3078,2.2902,2.241,2.2309,2.2121,2.1568,2.1343,2.1091,2.0769,2.0555,2.0238,1.9849,1.9798,1.9798,1.9798,1.9798,1.9798,1.9798,1.9798,1.9798,1.9798,1.9798,1.9798,1.9798,1.9579,1.9579,1.9798,1.9579,1.9579,1.9798,1.9798,1.9798,1.8206,1.8537,1.8545,1.8545,1.8537,1.8198,1.6827,1.6512,1.6497,1.6516,1.6522,1.6522,1.6522,1.6522,1.703,1.8703,1.9098,1.9648,2.102,2.2133,2.3188,2.4192,2.5385,2.6138,2.6138,2.6395,2.6533,2.6533,2.6533,2.6533,2.6533,2.6533,2.6189,2.5611,2.5812,2.5398,2.4318,2.4644,2.4356,2.3477,2.4167,2.4443,2.4305,2.4092,2.4004,2.3966,2.3389,2.3078,0.0,2.3078,2.3078,2.3078,2.3078,2.3078,2.3078,2.3078,2.3078,2.3078,2.3078,2.3078,2.3078,2.3078,2.3078,2.3078,2.3078,2.3078,2.3078,2.3078,2.3078,2.3078,2.3078,2.3078,2.3078,2.3078,2.3078,2.3078,2.3078,2.3078,2.3078,2.3078,2.3078,2.2965,2.2686,2.2623,2.251,2.2159,2.1933,2.1606,2.1041,2.0857,2.0492,1.9861,1.9798,1.9798,1.9798,1.9798,1.9798,1.9798,1.9798,1.9798,1.9798,1.9798,1.9798,1.9798,1.9798,1.9798,1.9798,1.9798,1.9798,1.9798,1.9798,1.9798,0.0,1.6486,1.648,1.648,1.6486,1.6495,1.6495,1.6516,0.0,1.6522,1.6522,1.6534,1.6572,1.6584,1.681,1.7604,1.81,1.8945,2.0605,2.1732,2.3025,2.4632,2.5247,2.5536,2.5536,2.6025,2.6408,2.6408,2.6408,2.6433,2.6402,2.6471,2.6176,2.5674,2.6189,2.5937,2.4833,2.482,2.4544,2.4004,2.4042,2.4305,2.4745,2.423,2.4004,2.3966,2.3389,2.3078,2.3078,2.3078,2.3078,2.3078,2.3078,2.3078,2.3078,2.3078,2.3078,2.3078,2.3078,2.3078,2.3078,2.3078,2.3078,2.3078,2.3078,2.3078,2.3078,2.3078,2.3078,2.3078,2.3078,2.3078,2.3078,2.3078,2.3078,2.3078,2.3078,2.3078,2.3078,2.3078,2.3078,2.3078,2.3078,2.3078,2.3078,2.3078,2.2698,2.2159,2.1556,2.1041,2.0555,1.9924,1.9861,1.9861,1.9861,1.9823,1.9798,1.9798,1.9798,1.9798,1.9798,1.9798,1.9798,1.9798,1.9798,1.9798,1.9798,1.9798,1.9798,1.9798,1.9798,1.9798,1.648,0.0,1.6485,1.6485,1.6511,1.6504,0.0,1.6485,1.6522,0.0,0.0,1.6672,1.7238,1.7257,1.7639,1.9069,1.9774,2.0526,2.1744,2.2887,2.3904,2.472,2.4933,2.5008,2.5008,2.5121,2.5209,2.5209,2.5209,2.5385,2.5774,2.5799,2.5937,2.6319,2.6458,2.5937,2.4833,2.482,2.4544,2.4004,2.4431,2.4469,2.4192,2.4054,2.4004,2.3966,2.3389,2.3078,2.3078,2.3078,2.3078,2.3078,2.3078,2.3078,2.3078,2.3078,2.3078,2.3078,2.3078,2.3078,2.3078,2.3078,2.3078,2.3078,2.3078,2.3078,2.3078,2.3078,2.3078,2.3078,2.3078,2.3078,2.3078,2.3078,2.3078,2.3078,2.3078,2.3078,2.3078,2.3078,2.3078,2.3078,2.3078,2.3078,2.3078,2.3078,2.2965,2.2585,2.1606,2.138,2.1079,2.0526,2.0517,2.0517,2.0517,2.0062,1.9798,1.9798,1.9798,1.9798,1.9798,1.9798,1.9798,1.9798,1.9798,1.9798,1.9798,1.9798,1.9798,1.9798,1.9798,1.9798,1.6522,1.6522,1.6522,1.6522,1.6522,1.6522,1.6522,0.0,0.0,0.0,0.0,1.6697,1.7358,1.7446,1.7915,1.9535,2.0062,2.0828,2.246,2.3452,2.4205,2.4757,2.482,2.482,2.482,2.482,2.482,2.482,2.482,2.4946,2.5222,2.5247,2.5385,2.5699,2.5937,2.5774,2.5184,2.4946,2.4669,2.4381,2.4418,2.4418,2.4368,2.4117,2.4004,2.3966,2.3389,2.3078,2.3078,2.3078,2.3078,2.3078,2.3078,2.3078,2.3078,2.3078,2.3078,2.3078,2.3078,2.3078,2.3078,2.3078,2.3078,2.3078,2.3078,2.3078,2.3078,2.3078,2.3078,2.3078,2.3078,2.3078,2.3078,2.3078,2.3078,2.3078,2.3078,2.3078,2.3078,2.3078,2.3078,2.3078,2.3078,2.3078,2.3078,2.3078,2.3078,2.2824,2.197,2.1644,2.138,2.1079,2.0869,2.0718,2.0718,2.0376,2.0087,1.9823,1.9798,1.9798,1.9798,1.9798,1.9798,1.9798,1.9798,1.9798,1.9798,1.9798,1.9798,1.9798,1.9798,1.9798,1.6514,1.7012,1.742,1.6683,1.6522,1.6522,1.6522,0.0,0.0,0.0,0.0,0.0,0.0,1.7576,0.0,1.9685,2.0075,2.0878,2.2802,2.3552,2.4042,2.4506,2.4556,2.4556,2.4556,2.4556,2.4556,2.4556,2.4556,2.4607,2.4695,2.4695,2.4732,2.482,2.5247,2.5473,2.5473,2.5046,2.482,2.4808,2.4167,2.4155,2.4669,2.4117,2.3866,2.3841,2.3351,2.3078,2.3078,2.3078,2.3078,2.3078,2.3078,2.3078,2.3078,2.3078,2.3078,2.3078,2.3078,2.3078,2.3078,2.3078,2.3078,2.3078,2.3078,2.3078,2.3078,2.3078,2.3078,2.3078,2.3078,2.3078,2.3078,2.3078,2.3078,2.3078,2.3078,2.3078,2.3078,2.3078,2.3078,2.3078,2.3078,2.3078,2.3078,2.3078,2.3078,2.2937,2.2385,2.1895,2.1606,2.1606,2.1192,2.0916,2.0916,2.0916,2.0639,1.9974,1.9849,1.9798,1.9798,1.9798,1.985,1.9952,1.9952,1.9991,2.0093,1.9991,1.9952,1.9952,1.9952,1.9952,1.6497,1.9432,2.1528,1.7501,1.6522,1.6522,1.6522,0.0,0.0,0.0,0.0,0.0,0.0,1.8455,1.9158,2.0338,2.1317,2.2209,2.2965,2.3153,2.3301,2.3315,2.3328,2.3328,2.3328,2.3328,2.3328,2.3328,2.3328,2.3602,2.4104,2.4117,2.4343,2.4808,2.4895,2.4946,2.4946,2.4858,2.482,2.4808,2.3766,2.3565,2.4104,2.3527,2.3263,2.3203,2.3115,2.3078,2.3078,2.3078,2.3078,2.3078,2.3078,2.3078,2.3078,2.3078,2.3078,2.3078,2.3078,2.3078,2.3078,2.3078,2.3078,2.3078,2.3078,2.3078,2.3078,2.3078,2.3078,2.3078,2.3078,2.3078,2.3078,2.3078,2.3078,2.3078,2.3078,2.3078,2.3078,2.3078,2.3078,2.3078,2.3078,2.3078,2.3078,2.3078,2.3078,2.2937,2.2385,2.2234,2.2184,2.2184,2.2108,2.2058,2.2058,2.2058,2.1619,2.0655,2.0075,1.9798,1.9798,1.9798,2.0055,2.066,2.066,2.093,2.1411,2.093,2.066,2.066,2.066,2.066,1.6507,1.8946,2.0769,1.7818,1.8113,1.8981,1.8503,0.0,0.0,0.0,0.0,0.0,0.0,1.9304,1.9911,2.133,2.2234,2.2849,2.304,2.3078,2.3078,2.3078,2.3078,2.3078,2.3078,2.3078,2.3078,2.3078,2.3078,2.3251,2.3514,2.3527,2.3653,2.3904,2.4217,2.423,2.3916,2.4217,2.4381,2.4368,2.354,2.3276,2.3527,2.3263,2.3078,2.3078,2.3078,2.3078,2.3078,2.3078,2.3078,2.3078,2.3078,2.3078,2.3078,2.3078,2.3078,2.3078,2.3078,2.3078,2.3078,2.3078,2.3078,2.3078,2.3078,2.3078,2.3078,2.3078,2.3078,2.3078,2.3078,2.3078,2.3078,2.3078,2.3078,2.3078,2.3078,2.3078,2.3078,2.3078,2.3078,2.3078,2.3078,2.3078,2.3078,2.3078,2.3078,2.2977,2.2786,2.2498,2.2422,2.2723,2.2485,2.2309,2.2309,2.2309,2.1845,2.0794,2.0125,1.9798,1.9798,2.0156,2.0497,2.0795,2.1113,2.1424,2.1697,2.1113,2.0979,2.1293,2.093,2.0979,1.679,1.8289,1.9487,1.8356,0.0,2.0514,1.9921,0.0,0.0,0.0,0.0,0.0,0.0,2.0476,2.1118,2.2344,2.316,2.3636,2.3636,2.3471,2.3365,2.3365,2.3185,2.3078,2.3078,2.3078,2.3078,2.3078,2.3078,2.3078,2.3078,2.3078,2.3078,2.3078,2.3565,2.359,2.3078,2.3577,2.3866,2.3991,2.3414,2.314,2.3339,2.3128,2.3078,2.3078,2.3078,2.3078,2.3078,2.3078,2.3078,2.3078,2.3078,2.3078,2.3078,2.3078,2.3078,2.3078,2.3078,2.3078,2.3078,2.3078,2.3078,2.3078,2.3078,2.3078,2.3078,2.3078,2.3078,2.3078,2.3078,2.3078,2.3078,2.3078,2.3078,2.3078,2.3078,2.3078,2.3078,2.3078,2.3078,2.3078,2.3078,2.3078,2.3078,2.3078,2.3078,2.3078,2.3078,2.2761,2.2623,2.2852,2.2686,2.2556,2.2731,2.2387,2.187,2.1161,2.0449,2.0055,2.0055,2.056,2.0944,2.1224,2.1677,2.1993,2.2132,2.1547,2.15,2.1899,2.1452,2.15,1.772,1.8974,1.9898,1.9619,0.0,0.0,1.9127,1.9169,0.0,1.9905,0.0,0.0,0.0,2.2179,2.3321,2.3332,2.439,2.5231,2.5231,2.4624,2.4234,2.4234,2.3531,2.3078,2.3078,2.3078,2.3078,2.3078,2.3078,2.3078,2.3078,2.3078,2.3078,2.3078,2.3115,2.3115,2.3078,2.3115,2.3464,2.3991,2.3414,2.3414,2.3916,2.3376,2.3078,2.3078,2.3078,2.3078,2.3078,2.3078,2.3078,2.3078,2.3078,2.3078,2.3078,2.3078,2.3078,2.3078,2.3078,2.3078,2.3078,2.3078,2.3078,2.3078,2.3078,2.3078,2.3078,2.3078,2.3078,2.3078,2.3078,2.3078,2.3078,2.3078,2.3078,2.3078,2.3078,2.3078,2.3078,2.3078,2.3078,2.3078,2.3078,2.3078,2.3078,2.3078,2.3078,2.3078,2.3078,2.304,2.2899,2.2422,2.2799,2.3361,2.4111,2.2578,2.1827,2.2418,2.1365,2.0746,2.0746,2.0746,2.1369,2.2558,2.2603,2.292,2.345,2.2875,2.2603,2.2649,2.2603,2.2603,1.7343,1.8442,1.93,1.922,0.0,0.0,0.0,0.0,2.1394,2.1669,2.1709,0.0,0.0,2.314,2.4128,2.4041,2.4819,2.5398,2.5398,2.5175,2.4794,2.435,2.4002,2.3662,2.3138,2.3078,2.3078,2.3078,2.3078,2.3078,2.3078,2.3078,2.3078,2.3078,2.3078,2.3078,2.3078,2.3078,2.3178,2.3464,2.3238,2.3251,2.3452,2.3178,2.3078,2.3078,2.3078,2.3078,2.3078,2.3078,2.3078,2.3078,2.3078,2.3078,2.3078,2.3078,2.3078,2.3078,2.3078,2.3078,2.3078,2.3078,2.3078,2.3078,2.3078,2.3078,2.3078,2.3078,2.3078,2.3078,2.3078,2.3078,2.3078,2.3078,2.3078,2.3078,2.3078,2.3078,2.3078,2.3078,2.3078,2.3078,2.3078,2.3078,2.3078,2.3078,2.3078,2.3078,2.3078,2.3078,2.299,2.2849,2.3416,2.3943,2.4292,2.4123,2.3751,2.3239,2.1696,2.0795,2.0795,2.1561,2.2221,2.2694,2.3054,2.3377,2.3595,2.3009,2.2875,2.3246,2.2875,2.2875,1.7221,1.8141,1.893,0.0,0.0,0.0,0.0,0.0,2.2509,2.2893,2.2965,2.2973,2.2929,2.4003,2.4832,2.4783,2.5523,2.6094,2.6094,2.5892,2.5563,2.5063,2.4567,2.406,2.3531,2.3245,2.3078,2.3078,2.3078,2.3078,2.3078,2.3078,2.3078,2.3078,2.3078,2.3078,2.3078,2.3078,2.3078,2.3078,2.3078,2.3078,2.3078,2.3078,2.3078,2.3078,2.3078,2.3078,2.3078,2.3078,2.3078,2.3078,2.3078,2.3078,2.3078,2.3078,2.3078,2.3078,2.3078,2.3078,2.3078,2.3078,2.3078,2.3078,2.3078,2.3078,2.3078,2.3078,2.3078,2.3078,2.3078,2.3078,2.3078,2.3078,2.3078,2.3078,2.3078,2.3078,2.3078,2.3078,2.3078,2.3078,2.3078,2.3078,2.3078,2.3078,2.3078,2.3078,2.3078,2.3078,2.3198,2.3424,2.3774,2.4296,2.4937,2.5087,2.4836,2.3974,2.2559,2.1621,2.1431,2.2221,2.2785,2.2965,2.3377,2.3595,2.3595,2.3201,2.3201,2.3595,2.3201,2.3201,1.7537,1.8311,1.9043,0.0,0.0,0.0,2.1545,2.1695,2.2069,2.334,2.3595,2.3614,2.3702,2.4749,2.5604,2.5604,2.668,2.7595,2.7595,2.6982,2.6496,2.6496,2.5175,2.4292,2.4292,2.3603,2.3078,2.3078,2.3078,2.3078,2.3078,2.3078,2.3078,2.3078,2.3078,2.3078,2.3078,2.3078,2.3078,2.3078,2.3078,2.3078,2.3078,2.3078,2.3078,2.3078,2.3078,2.3078,2.3078,2.3078,2.3078,2.3078,2.3078,2.3078,2.3078,2.3078,2.3078,2.3078,2.3078,2.3078,2.3078,2.3078,2.3078,2.3078,2.3078,2.3078,2.3078,2.3078,2.3078,2.3078,2.3078,2.3078,2.3078,2.3078,2.3078,2.3078,2.3078,2.3078,2.3078,2.3078,2.3078,2.3078,2.3078,2.3078,2.3078,2.3078,2.3078,2.3078,2.3078,2.3078,2.3424,2.4234,2.3751,2.4286,2.6347,2.53,2.4563,2.4722,2.41,2.3418,2.2723,2.2694,2.2965,2.3595,2.3595,2.3595,2.3595,2.3595,2.3595,2.3595,2.3595,2.3595,1.753,1.8227,0.0,1.9534,0.0,0.0,0.0,2.2054,0.0,0.0,2.3595,2.3611,2.3629,2.4313,2.488,2.4872,2.5607,2.6183,2.6183,2.6426,2.6358,2.5871,2.5354,2.4851,2.435,2.3603,2.3078,2.3078,2.3078,2.3078,2.3078,2.3078,2.3078,2.3078,2.3078,2.3078,2.3078,2.3078,2.3078,2.3078,2.3078,2.3078,2.3078,2.3078,2.3078,2.3078,2.3078,2.3078,2.3078,2.3078,2.3078,2.3078,2.3078,2.3078,2.3078,2.3078,2.3078,2.3078,2.3078,2.3078,2.3078,2.3078,2.3078,2.3078,2.3078,2.3078,2.3078,2.3078,2.3078,2.3078,2.3078,2.3078,2.3078,2.3078,2.3078,2.3078,2.3078,2.3078,2.3078,2.3078,2.3078,2.3078,2.3078,2.3078,2.3078,2.3078,2.3078,2.3078,2.3078,2.3078,2.3424,2.4234,2.4619,2.5246,2.6375,2.6637,2.6512,2.6075,2.5423,2.4317,2.2737,2.3113,2.3421,2.3595,2.3595,2.3595,2.3595,2.3595,2.3595,2.3595,2.3595,2.3595,1.7939,1.8597,0.0,1.9585,2.0498,2.144,2.1964,0.0,0.0,0.0,2.3595,2.3684,2.3954,2.4343,2.4672,2.4971,2.536,2.5615,2.5615,2.5959,2.6039,2.5619,2.5512,2.5134,2.4417,2.3858,2.3424,2.3138,2.3078,2.3078,2.3078,2.3078,2.3078,2.3078,2.3078,2.3078,2.3078,2.3078,2.3078,2.3078,2.3078,2.3078,2.3078,2.3078,2.3078,2.3078,2.3078,2.3078,2.3078,2.3078,2.3078,2.3078,2.3078,2.3078,2.3078,2.3078,2.3078,2.3078,2.3078,2.3078,2.3078,2.3078,2.3078,2.3078,2.3078,2.3078,2.3078,2.3078,2.3078,2.3078,2.3078,2.3078,2.3078,2.3078,2.3078,2.3078,2.3078,2.3078,2.3078,2.3078,2.3078,2.3078,2.3078,2.3078,2.3078,2.3078,2.3078,2.3078,2.3078,2.3078,2.3531,2.4624,2.5119,2.5837,2.6878,2.7357,2.729,2.6632,2.5974,2.4936,2.3507,2.357,2.3595,2.3595,2.3595,2.3595,2.3595,2.3595,2.3595,2.3595,2.3595,2.3595,1.8448,0.0,0.0,1.9675,2.0198,0.0,2.2308,2.3071,2.3535,2.3595,2.3595,2.3789,2.4373,2.4492,2.4732,2.533,2.5435,2.5435,2.5435,2.548,2.5525,2.5525,2.5467,2.516,2.4468,2.4336,2.404,2.3276,2.322,2.3185,2.3185,2.3125,2.3078,2.3078,2.3078,2.3078,2.3078,2.3078,2.3078,2.3078,2.3078,2.3078,2.3078,2.3078,2.3078,2.3078,2.3078,2.3078,2.3078,2.3078,2.3078,2.3078,2.3078,2.3078,2.3078,2.3078,2.3078,2.3078,2.3078,2.3078,2.3078,2.3078,2.3078,2.3078,2.3078,2.3078,2.3078,2.3078,2.3078,2.3078,2.3078,2.3078,2.3078,2.3078,2.3078,2.3078,2.3078,2.3078,2.3078,2.3078,2.3078,2.3078,2.3078,2.3078,2.3138,2.3198,2.3185,2.3245,2.3305,2.3305,2.3872,2.5342,2.5508,2.6054,2.7458,2.7625,2.737,2.6722,2.6004,2.5345,2.4701,2.3999,2.3595,2.3595,2.3595,2.3595,2.3595,2.3595,2.3595,2.3595,2.3595,2.3595,1.7861,1.8403,0.0,0.0,2.0198,2.0917,2.1724,2.2413,2.3011,2.349,2.3595,2.364,2.3789,2.3819,2.3864,2.4014,2.4029,2.4029,2.4029,2.4492,2.4837,2.4837,2.4761,2.4669,2.4469,2.4399,2.4327,2.4163,2.4059,2.406,2.406,2.3424,2.3078,2.3078,2.3078,2.3078,2.3078,2.3078,2.3078,2.3078,2.3078,2.3078,2.3078,2.3078,2.3078,2.3078,2.3078,2.3078,2.3078,2.3078,2.3078,2.3078,2.3078,2.3078,2.3078,2.3078,2.3078,2.3078,2.3078,2.3078,2.3078,2.3078,2.3078,2.3078,2.3078,2.3078,2.3078,2.3078,2.3078,2.3078,2.3078,2.3078,2.3078,2.3078,2.3078,2.3078,2.3078,2.3078,2.3078,2.3078,2.3078,2.3078,2.3078,2.3078,2.3305,2.3943,2.406,2.4221,2.4838,2.4894,2.5217,2.6176,2.6283,2.6616,2.7509,2.7625,2.7565,2.7365,2.6258,2.5555,2.5405,2.4238,2.3595,2.3595,2.3595,2.3595,2.3595,2.3595,2.3595,2.3595,2.3595,2.3595,0.0,0.0,0.0,1.96,0.0,2.0797,2.1141,2.1739,2.2293,2.2622,2.3176,2.3595,2.3595,2.3595,2.3595,2.3595,2.3595,2.3595,2.3595,2.3909,2.4133,2.4133,2.4382,2.4436,2.4072,2.4283,2.4277,2.3964,2.3848,2.38,2.3826,2.3331,2.3078,2.3078,2.3078,2.3078,2.3078,2.3078,2.3078,2.3078,2.3078,2.3078,2.3078,2.3078,2.3078,2.3078,2.3078,2.3078,2.3078,2.3078,2.3078,2.3078,2.3078,2.3078,2.3078,2.3078,2.3078,2.3078,2.3078,2.3078,2.3078,2.3078,2.3078,2.3078,2.3078,2.3078,2.3078,2.3078,2.2949,2.2736,2.2736,2.2736,2.2673,2.241,2.2749,2.3078,2.3078,2.3078,2.3002,2.2786,2.289,2.299,2.2786,2.2902,2.3365,2.4176,2.4292,2.4567,2.5287,2.5398,2.5673,2.6404,2.651,2.6826,2.7524,2.7625,2.749,2.7126,2.6153,2.5465,2.5151,2.4148,2.3595,2.3595,2.3595,2.3595,2.3595,2.3595,2.3595,2.3595,2.3595,2.3595,0.0,0.0,1.954,1.966,2.0124,0.0,2.0543,2.1051,2.153,2.153,2.2458,2.3266,2.3266,2.337,2.343,2.343,2.3535,2.3595,2.3595,2.3595,2.3595,2.3595,2.4103,2.4207,2.3565,2.4144,2.4261,2.3649,2.354,2.3497,2.3464,2.3251,2.3144,2.3125,2.2977,2.3037,2.3078,2.2977,2.3097,2.3305,2.3305,2.3245,2.3078,2.3245,2.3245,2.3078,2.3078,2.3078,2.3078,2.3078,2.3078,2.3078,2.3078,2.3078,2.3078,2.3078,2.3078,2.3078,2.3078,2.3078,2.3078,2.3078,2.3078,2.3078,2.3078,2.3078,2.3078,2.3078,2.2736,2.2309,2.2309,2.2234,2.2058,2.1594,2.2184,2.2874,2.2915,2.2927,2.2862,2.2397,2.2657,2.2875,2.2407,2.271,2.3275,2.4222,2.4349,2.4633,2.5506,2.5713,2.5957,2.6457,2.6596,2.693,2.7575,2.7625,2.729,2.6632,2.5974,2.5315,2.4612,2.3969,2.3595,2.3595,2.3595,2.3595,2.3595,2.3595,2.3595,2.3595,2.3595,2.3595,0.0,0.0,1.8972,0.0,1.975,1.9824,0.0,2.0348,2.0842,2.0842,2.144,2.1949,2.1949,2.2413,2.2802,2.2802,2.3251,2.3595,2.3595,2.3595,2.3595,2.3595,2.3684,2.3686,2.3599,2.4209,2.4565,2.4458,2.4399,2.432,2.4271,2.3641,2.3206,2.3125,2.2673,2.2648,2.3125,2.2661,2.3,2.4118,2.4118,2.3767,2.3138,2.3826,2.3767,2.3078,2.3078,2.3078,2.3078,2.3078,2.3078,2.3078,2.3078,2.3078,2.3078,2.3078,2.3078,2.3078,2.3078,2.3078,2.3078,2.3078,2.3078,2.3078,2.3078,2.3078,2.3078,2.3078,2.2736,2.2309,2.2309,2.1958,2.1581,2.1506,2.1606,2.1845,2.2322,2.2422,2.2397,2.2322,2.2411,2.2463,2.2385,2.2437,2.292,2.4285,2.4462,2.4955,2.6297,2.695,2.7134,2.6634,2.713,2.7509,2.7575,2.7625,2.729,2.6632,2.5974,2.5315,2.4612,2.3969,2.3595,2.3595,2.3595,2.3595,2.3595,2.3595,2.3595,2.3595,2.3595,2.3595,1.7608,1.8452,1.9244,0.0,2.0227,2.0379,2.0104,2.0264,2.0421,2.0175,2.0363,2.0797,2.156,2.1934,2.2128,2.2128,2.2667,2.3086,2.3086,2.3385,2.3595,2.3595,2.3595,2.3595,2.3595,2.3879,2.4059,2.4059,2.3985,2.392,2.3892,2.3204,2.2929,2.3276,2.2342,2.2128,2.2686,2.2863,2.3358,2.4292,2.4292,2.3884,2.3138,2.3943,2.3884,2.3138,2.3603,2.3543,2.3078,2.3078,2.3078,2.3078,2.3078,2.3078,2.3078,2.3078,2.3078,2.3078,2.3078,2.3078,2.3078,2.3078,2.3078,2.3078,2.3078,2.3078,2.3078,2.3078,2.2523,2.1845,2.1845,2.1443,2.0941,2.0627,2.1046,2.1609,2.1854,2.1898,2.1845,2.1845,2.1918,2.1943,2.1902,2.2159,2.2764,2.3829,2.3975,2.4493,2.5875,2.6617,2.6916,2.6617,2.7186,2.7625,2.7625,2.7625,2.7126,2.6108,2.5764,2.5136,2.4088,2.3759,2.3595,2.3595,2.3595,2.3595,2.3595,2.3595,2.3595,2.3595,2.3595,2.3595,0.0,0.0,1.9163,1.9878,2.0457,2.0764,2.0516,2.0483,2.0348,1.9945,1.9839,2.0119,2.103,2.1321,2.1455,2.1455,2.2143,2.2724,2.2724,2.3206,2.3595,2.3595,2.3595,2.3595,2.3595,2.3595,2.3595,2.3595,2.3538,2.3504,2.3474,2.2977,2.2879,2.3393,2.2326,2.207,2.2618,2.3313,2.3891,2.434,2.434,2.4076,2.3695,2.4337,2.4279,2.3708,2.4118,2.3852,2.3149,2.3301,2.3454,2.3431,2.3644,2.359,2.3424,2.3424,2.3245,2.3078,2.3078,2.3078,2.3078,2.3078,2.3078,2.3078,2.3078,2.3078,2.304,2.2962,2.2234,2.1455,2.1317,2.0865,2.0376,2.0087,2.0733,2.143,2.1575,2.1546,2.1597,2.1748,2.1681,2.1663,2.1799,2.2194,2.2753,2.3529,2.3621,2.4056,2.5206,2.5929,2.6348,2.6348,2.6931,2.738,2.761,2.7425,2.6841,2.5674,2.545,2.4837,2.3655,2.3595,2.3595,2.3595,2.3595,2.3595,2.3595,2.3595,2.3595,2.3595,2.3595,2.3595,0.0,1.7296,0.0,1.918,1.9898,2.0449,2.0862,2.0959,2.0829,2.0348,2.028,2.0174,1.9873,2.0318,2.0767,2.0767,2.1844,2.2724,2.2724,2.3206,2.3595,2.3595,2.3595,2.3595,2.3595,2.3595,2.3595,2.3595,2.3581,2.3555,2.3507,2.3469,2.3414,2.3379,2.2844,2.2816,2.3341,2.4098,2.4422,2.4393,2.4393,2.4709,2.5287,2.5342,2.5342,2.5231,2.4567,2.3905,2.3362,2.3997,2.4276,2.4394,2.5053,2.4838,2.4234,2.4234,2.3767,2.3078,2.3078,2.3078,2.3078,2.3078,2.3078,2.3078,2.3078,2.3078,2.2965,2.2498,2.1933,2.1368,2.084,2.0275,1.9974,2.0501,2.0733,2.0993,2.1496,2.1589,2.1809,2.2392,2.2083,2.1908,2.2552,2.2644,2.2904,2.3601,2.3688,2.3938,2.4581,2.5255,2.5659,2.5659,2.6243,2.6901,2.7565,2.7006,2.6348,2.5659,2.5016,2.4358,2.3625,2.3595,2.3595,2.3595,2.3595,2.3595,2.3595,2.3595,2.3595,2.3595,2.3595,2.3595,0.0,0.0,0.0,1.9183,2.0289,2.1102,2.1023,2.1213,2.1275,2.0829,2.0516,2.0246,2.0124,2.0086,2.0049,2.0049,2.0827,2.1425,2.1425,2.2338,2.3011,2.3011,2.3355,2.3595,2.3595,2.3595,2.3595,2.3595,2.3595,2.3612,2.357,2.3209,2.3126,2.3528,2.2536,2.254,2.356,2.3865,2.4132,2.4445,2.4445,2.4563,2.479,2.5272,2.5219,2.479,2.5006,2.4666,2.4015,2.3798,2.3768,2.3829,2.4502,2.4299,2.3695,2.4147,2.3767,2.3027,2.2736,2.2836,2.3015,2.2723,2.2849,2.3198,2.3708,2.3288,2.2723,2.3434,2.2328,2.1012,2.1223,2.0526,2.0042,2.1083,2.1698,2.2044,2.2267,2.1643,2.1108,2.1379,2.1588,2.1805,2.1993,2.2406,2.2781,2.2997,2.304,2.3269,2.3881,2.4552,2.5136,2.5555,2.5809,2.6393,2.7535,2.6572,2.5854,2.563,2.494,2.4313,2.3625,2.3595,2.3595,2.3595,2.3595,2.3595,2.3595,2.3595,2.3595,2.3595,2.3595,2.3595,1.6084,0.0,0.0,0.0,1.9972,2.0922,2.1164,2.1399,2.1521,2.1244,2.0943,2.0634,2.0348,2.0089,1.9874,1.9711,2.0258,2.0722,2.0722,2.1665,2.2428,2.2694,2.3041,2.337,2.358,2.3595,2.3595,2.3595,2.3595,2.3595,2.3595,2.3231,2.3201,2.3595,2.2786,2.2761,2.3652,2.3652,2.3973,2.4519,2.4264,2.4383,2.483,2.5048,2.5034,2.483,2.5084,2.4783,2.4096,2.3835,2.3792,2.3865,2.4538,2.4351,2.3784,2.4191,2.3742,2.2801,2.249,2.2432,2.2523,2.2159,2.2284,2.2631,2.3212,2.2884,2.2467,2.3232,2.2247,2.1067,2.1275,2.0733,2.0386,2.1465,2.2019,2.2381,2.2646,2.1814,2.1105,2.1402,2.1582,2.1838,2.2271,2.2711,2.3009,2.3009,2.3009,2.3143,2.3551,2.3999,2.4537,2.5211,2.527,2.5719,2.6811,2.5914,2.527,2.527,2.4657,2.4073,2.3625,2.3595,2.3595,2.3595,2.3595,2.3595,2.3595,2.3595,2.3595,2.3595,2.3595,2.3595,0.0,0.0,0.0,0.0,1.8874,1.9767,2.122,2.1565,2.1582,2.1582,2.1582,2.1321,2.0501,2.0314,2.0193,1.9782,2.0243,2.0677,2.0677,2.1261,2.1919,2.2604,2.2709,2.2921,2.3535,2.3595,2.3595,2.3595,2.3595,2.3595,2.3595,2.3595,2.3595,2.3595,2.3595,2.3595,2.3595,2.3595,2.3939,2.4552,2.3851,2.4247,2.5538,2.481,2.4907,2.554,2.4866,2.4172,2.355,2.4215,2.4513,2.4627,2.533,2.5114,2.4453,2.4468,2.3598,2.2417,2.2403,2.1995,2.1493,2.1468,2.1481,2.1493,2.1536,2.1941,2.2272,2.1825,2.1653,2.1457,2.0941,2.0785,2.0899,2.1561,2.1691,2.1874,2.2594,2.2193,2.1899,2.2543,2.2146,2.2132,2.3363,2.3595,2.3595,2.3595,2.3595,2.3595,2.3595,2.3595,2.3864,2.4507,2.4567,2.4821,2.5555,2.4986,2.4567,2.4582,2.3984,2.3595,2.3595,2.3595,2.3595,2.3595,2.3595,2.3595,2.3595,2.3595,2.3595,2.3595,2.3595,2.3595,1.5589,0.0,0.0,0.0,0.0,0.0,1.9941,2.0607,2.1244,2.1521,2.1368,2.1181,2.1228,2.0732,2.028,2.0158,2.004,1.9974,1.9974,2.0557,2.1231,2.1889,2.2383,2.2921,2.3535,2.3595,2.3595,2.3595,2.3595,2.3595,2.3595,2.3595,2.3595,2.3595,2.3595,2.3595,2.3595,2.3595,2.3684,2.3879,2.3688,2.4045,2.4851,2.4652,2.4698,2.4896,2.4657,2.4209,2.36,2.3777,2.3852,2.3954,2.4627,2.4452,2.3851,2.431,2.3598,2.2364,2.1944,2.166,2.143,2.1071,2.1154,2.1703,2.2711,2.2458,2.211,2.3387,2.2752,2.1545,2.0934,2.1491,2.2088,2.1799,2.2413,2.3109,2.3319,2.286,2.2498,2.2649,2.2543,2.268,2.345,2.3595,2.3595,2.3595,2.3595,2.3595,2.3595,2.3595,2.3864,2.4507,2.4178,2.4343,2.551,2.4552,2.4103,2.4552,2.3984,2.3595,2.3595,2.3595,2.3595,2.3595,2.3595,2.3595,2.3595,2.3595,2.3595,2.3595,2.3595,2.3595,0.0,0.0,0.0,1.7399,0.0,0.0,1.9923,2.0559,2.1166,2.1764,2.1705,2.1554,2.1582,2.118,2.0732,2.0348,2.0089,1.9909,1.9711,2.0034,2.0528,2.1201,2.1859,2.2517,2.3146,2.3445,2.3595,2.3595,2.3355,2.3206,2.3206,2.3206,2.3325,2.3595,2.3595,2.3595,2.3595,2.3595,2.3595,2.3595,2.3595,2.3804,2.4193,2.4193,2.4193,2.4193,2.4193,2.3969,2.3595,2.3595,2.3595,2.364,2.4044,2.3911,2.3608,2.3987,2.3439,2.2446,2.1843,2.1457,2.1155,2.0822,2.0937,2.1406,2.2451,2.2468,2.2325,2.3487,2.3014,2.1913,2.1028,2.1547,2.2193,2.1805,2.2469,2.3275,2.3551,2.3334,2.3054,2.3054,2.2875,2.2875,2.3508,2.3595,2.3595,2.3595,2.3595,2.3595,2.3595,2.3595,2.3744,2.4163,2.3834,2.3924,2.4702,2.4044,2.3774,2.4178,2.3819,2.3595,2.3595,2.3595,2.3595,2.3595,2.3595,2.3595,2.3595,2.3595,2.3595,2.3595,2.3595,2.3595,1.6667,1.6816,0.0,1.8298,1.8642,0.0,2.0413,2.0814,2.1103,2.1915,2.2077,2.1974,2.1598,2.1491,2.1197,2.0449,2.0314,2.0158,1.9747,1.969,1.9944,2.0632,2.1231,2.1844,2.2503,2.3056,2.3385,2.3385,2.2877,2.2607,2.2724,2.2649,2.2877,2.358,2.3535,2.3535,2.3595,2.3595,2.3595,2.3595,2.3595,2.3595,2.3595,2.3595,2.3595,2.3595,2.3595,2.3595,2.3595,2.3595,2.3595,2.3595,2.3595,2.3595,2.3595,2.3595,2.3231,2.2603,2.1993,2.139,2.0894,2.0894,2.0894,2.1028,2.1615,2.2253,2.2694,2.2785,2.2785,2.2512,2.1321,2.1438,2.1885,2.1852,2.2346,2.2934,2.3465,2.3595,2.3595,2.3595,2.3157,2.2965,2.3508,2.3595,2.3595,2.3595,2.3595,2.3595,2.3595,2.3595,2.3595,2.3595,2.3595,2.3595,2.3595,2.3595,2.3595,2.3595,2.3595,2.3595,2.3595,2.3595,2.3595,2.3595,2.3595,2.3595,2.3595,2.3595,2.3595,2.3595,2.3595,2.3595,1.7458,1.7488,1.7563,1.7817,1.8313,0.0,1.9091,1.9565,2.0104,2.0583,2.0682,2.0781,2.1055,2.0813,2.0516,2.0348,2.0314,2.0158,1.9747,1.969,1.9944,2.0632,2.0827,2.1171,2.1814,2.1994,2.2069,2.2069,2.1964,2.2113,2.2694,2.2173,2.2413,2.3565,2.3116,2.3101,2.3595,2.3595,2.3595,2.3595,2.3595,2.3595,2.3595,2.3595,2.3595,2.3595,2.3595,2.3595,2.3595,2.3595,2.3595,2.3595,2.3595,2.3595,2.3595,2.3595,2.3231,2.2694,2.2543,2.2053,2.152,2.152,2.152,2.1663,2.23,2.2603,2.2785,2.329,2.3421,2.3246,2.2512,2.277,2.3128,2.2634,2.2965,2.3465,2.3551,2.3595,2.3595,2.3595,2.3508,2.3465,2.3595,2.3595,2.3595,2.3595,2.3595,2.3595,2.3595,2.3595,2.3595,2.3595,2.3595,2.3595,2.3595,2.3595,2.3595,2.3595,2.3595,2.3595,2.3595,2.3595,2.3595,2.3595,2.3595,2.3595,2.3595,2.3595,2.3595,2.3595,2.3595,2.3595,1.816,1.813,1.8283,1.8612,1.8957,0.0,0.0,1.9756,2.0124,2.0565,2.0649,2.0715,2.0975,2.0797,2.0583,2.0348,2.0483,2.0431,1.9782,1.9874,2.0167,2.0632,2.1006,2.1455,2.2113,2.2458,2.2517,2.2203,2.2188,2.2338,2.2667,2.2368,2.2622,2.3565,2.3295,2.3281,2.3595,2.3595,2.3595,2.3595,2.3595,2.3595,2.3595,2.3595,2.3595,2.3595,2.3595,2.3595,2.3595,2.3595,2.3595,2.3595,2.3595,2.3595,2.3595,2.3595,2.3421,2.3113,2.2785,2.2498,2.2193,2.2193,2.2193,2.2346,2.2965,2.3143,2.3187,2.3508,2.3595,2.3465,2.2844,2.3143,2.3465,2.283,2.3143,2.3595,2.3595,2.3595,2.3595,2.3595,2.3595,2.3595,2.3595,2.3595,2.3595,2.3595,2.3595,2.3595,2.3595,2.3595,2.3595,2.3595,2.3595,2.3595,2.3595,2.3595,2.3595,2.3595,2.3595,2.3595,2.3595,2.3595,2.3595,2.3595,2.3595,2.3595,2.3595,2.3595,2.3595,2.3595,2.3595,2.3595,1.8832,1.8787,1.9016,1.9555,1.969,1.9782,0.0,0.0,0.0,2.0665,2.0731,2.0731,2.0731,2.0731,2.0632,2.0261,2.0565,2.0599,1.9818,2.007,2.0358,2.0475,2.1053,2.1618,2.2094,2.2547,2.2742,2.2503,2.2368,2.2413,2.2709,2.2604,2.2772,2.34,2.343,2.343,2.343,2.3535,2.3595,2.3595,2.3595,2.3595,2.3595,2.3595,2.3595,2.3595,2.3595,2.3595,2.3595,2.3595,2.3595,2.3595,2.3595,2.3595,2.3595,2.3595,2.3595,2.3508,2.3054,2.2875,2.2875,2.2875,2.2875,2.2965,2.3465,2.3595,2.3595,2.3595,2.3595,2.3508,2.3009,2.3231,2.3465,2.2965,2.3246,2.3595,2.3595,2.3595,2.3595,2.3595,2.3595,2.3595,2.3595,2.3595,2.3595,2.3595,2.3595,2.3595,2.3595,2.3595,2.3595,2.3595,2.3595,2.3595,2.3595,2.3595,2.3595,2.3595,2.3595,2.3595,2.3595,2.3595,2.3595,2.3595,2.3595,2.3595,2.3595,2.3595,2.3595,2.3595,2.3595,2.3595,1.957,1.957,1.9585,1.966,1.969,1.9711,1.9747,0.0,1.9782,1.9854,0.0,1.9854,1.9854,0.0,0.0,1.9782,2.0089,2.0227,1.9747,2.007,2.0189,1.9852,2.0183,2.0365,2.0055,2.0094,2.0602,2.1724,2.1261,2.1455,2.2664,2.2128,2.2113,2.2798,2.2787,2.2787,2.2787,2.3325,2.3595,2.3595,2.3595,2.3595,2.3595,2.3595,2.3595,2.3595,2.3595,2.3595,2.3595,2.3595,2.3595,2.3595,2.3595,2.3595,2.3595,2.3595,2.3595,2.3595,2.3508,2.3508,2.3508,2.3508,2.3508,2.3508,2.3595,2.3595,2.3595,2.3595,2.3595,2.3595,2.3508,2.3551,2.3595,2.3508,2.3551,2.3595,2.3595,2.3595,2.3595,2.3595,2.3595,2.3595,2.3595,2.3595,2.3595,2.3595,2.3595,2.3595,2.3595,2.3595,2.3595,2.3595,2.3595,2.3595,2.3595,2.3595,2.3595,2.3595,2.3595,2.3595,2.3595,2.3595,2.3595,2.3595,2.3595,2.3595,2.3595,2.3595,2.3595,2.3595,2.3595,2.3595,1.969,1.969,1.969,1.969,1.969,1.969,1.969,1.969,1.969,1.969,0.0,0.0,0.0,0.0,0.0,0.0,2.0035,2.0158,1.9747,2.0261,2.0587,2.0302,2.0442,2.063,2.085,2.1091,2.1356,2.1689,2.1799,2.2099,2.2694,2.2757,2.2921,2.3206,2.2862,2.2724,2.2724,2.2936,2.3071,2.3071,2.343,2.3595,2.3595,2.3595,2.3595,2.3595,2.3595,2.3595,2.3595,2.3595,2.3595,2.3595,2.3595,2.3595,2.3595,2.3595,2.3595,2.3595,2.3595,2.3595,2.3595,2.3595,2.3595,2.3595,2.3595,2.3595,2.3595,2.3595,2.3595,2.3595,2.3595,2.3595,2.3595,2.3595,2.3595,2.3595,2.3595,2.3595,2.3595,2.3595,2.3595,2.3595,2.3595,2.3595,2.3595,2.3595,2.3595,2.3595,2.3595,2.3595,2.3595,2.3595,2.3595,2.3595,2.3595,2.3595,2.3595,2.3595,2.3595,2.3595,2.3595,2.3595,2.3595,2.3595,2.3595,2.3595,2.3595,2.3595,2.3595,2.3595,2.3595,2.3595,1.9692,1.9713,1.9713,1.9713,1.9713,1.9692,1.9696,1.969,1.969,1.969,1.969,0.0,0.0,0.0,1.969,1.969,0.0,2.0035,1.9747,2.0243,2.06,2.0437,2.0438,2.0692,2.1365,2.1523,2.1645,2.1704,2.1964,2.2293,2.2694,2.3101,2.334,2.334,2.2906,2.2634,2.2413,2.2413,2.2413,2.2413,2.2862,2.3071,2.3086,2.3266,2.334,2.3355,2.3535,2.3595,2.3595,2.3595,2.3595,2.3595,2.3595,2.3595,2.3595,2.3595,2.3595,2.3595,2.3595,2.3595,2.3595,2.3595,2.3595,2.3595,2.3595,2.3595,2.3595,2.3595,2.3595,2.3595,2.3595,2.3595,2.3595,2.3595,2.3595,2.3595,2.3595,2.3595,2.3595,2.3595,2.3595,2.3595,2.3595,2.3595,2.3595,2.3595,2.3595,2.3595,2.3595,2.3595,2.3595,2.3595,2.3595,2.3595,2.3595,2.3595,2.3595,2.3595,2.3595,2.3595,2.3595,2.3595,2.3595,2.3595,2.3595,2.3595,2.3595,2.3595,2.3595,2.3595,2.3595,2.3595,1.9695,1.9722,1.9722,1.9722,1.9722,1.968,1.9687,1.969,1.969,1.969,1.969,1.969,1.969,1.969,1.969,1.969,1.9711,0.0,0.0,1.9711,1.9726,1.972,1.972,1.9989,2.0677,2.0139,2.0325,2.1605,2.1126,2.1335,2.2649,2.2739,2.2753,2.2753,2.2724,2.2368,2.1739,2.1724,2.1724,2.1724,2.1739,2.1754,2.1784,2.2413,2.2753,2.2783,2.334,2.3595,2.3595,2.3595,2.3595,2.3595,2.3595,2.3595,2.3595,2.3595,2.3595,2.3595,2.3595,2.3595,2.3595,2.3595,2.3595,2.3595,2.3595,2.3595,2.3595,2.3595,2.3595,2.3595,2.3595,2.3595,2.3595,2.3595,2.3595,2.3595,2.3595,2.3595,2.3595,2.3595,2.3595,2.3595,2.3595,2.3595,2.3595,2.3595,2.3595,2.3595,2.3595,2.3595,2.3595,2.3595,2.3595,2.3595,2.3595,2.3595,2.3595,2.3595,2.3595,2.3595,2.3595,2.3595,2.3595,2.3595,2.3595,2.3595,2.3595,2.3595,2.3595,2.3595,2.3595,2.3595,1.9713,2.0538,2.1284,2.0716,2.0117,1.9713,1.9696,1.969,1.969,1.969,1.969,1.969,1.969,1.969,1.969,1.969,1.969,1.969,0.0,1.969,1.969,1.969,1.9945,2.0091,2.004,2.0347,2.0634,2.0747,2.1384,2.1965,2.2424,2.2968,2.3101,2.2724,2.2263,2.171,2.1051,2.1051,2.1051,2.1051,2.1485,2.1695,2.171,2.1919,2.2263,2.2724,2.2906,2.3221,2.3595,2.3595,2.3595,2.3595,2.3595,2.3595,2.3595,2.3595,2.3595,2.3595,2.3595,2.3595,2.3595,2.3595,2.3595,2.3595,2.3595,2.3595,2.3595,2.3595,2.3595,2.3595,2.3595,2.3595,2.3595,2.3595,2.3595,2.3595,2.3595,2.3595,2.3595,2.3595,2.3595,2.3595,2.3595,2.3595,2.3595,2.3595,2.3595,2.3595,2.3595,2.3595,2.3595,2.3595,2.3595,2.3595,2.3595,2.3595,2.3595,2.3595,2.3595,2.3595,2.3595,2.3595,2.3595,2.3595,2.3595,2.3595,2.3595,2.3595,2.3595,2.3595,2.3948,2.3948,1.9697,2.0522,2.1253,2.0685,2.0338,2.0085,1.9782,1.9803,1.9874,1.9726,1.969,1.969,1.969,1.969,1.969,1.969,1.969,1.969,0.0,1.969,1.969,1.969,1.9945,2.0035,1.9929,2.0431,2.0682,2.055,2.1362,2.1864,2.1929,2.2696,2.2877,2.2379,2.1919,2.138,2.0722,2.0468,2.0348,2.0348,2.0782,2.0976,2.0991,2.1246,2.171,2.2338,2.2619,2.3026,2.3595,2.3595,2.3595,2.3595,2.3595,2.3595,2.3595,2.3595,2.3595,2.3595,2.3595,2.3595,2.3595,2.3595,2.3595,2.3595,2.3595,2.3595,2.3595,2.3595,2.3595,2.3595,2.3595,2.3595,2.3595,2.3595,2.3595,2.3595,2.3595,2.3595,2.3595,2.3595,2.3595,2.3595,2.3595,2.3595,2.3595,2.3595,2.3595,2.3595,2.3595,2.3595,2.3595,2.3595,2.3595,2.3595,2.3595,2.3595,2.3595,2.3595,2.3595,2.3595,2.3595,2.3595,2.3595,2.3595,2.3595,2.3595,2.3595,2.3595,2.3681,2.3879,2.4225,2.4307]},{"header":{"parameterUnit":"m.s-1","parameterCategory":1,"la1":30.6,"la2":29.2853,"lo1":-89.7004,"lo2":-87.6739,"dy":0.0162,"dx":0.0183,"nx":112,"ny":82,"refTime":"2024-07-29T06:00:00:Z","depth":0,"parameterNumber":3,"parameterNumberName":"V-component_of_WINDS"},"data":[0.0,0.0,0.0,0.0,0.0,0.0,0.0,0.0,0.0,0.0,0.0,0.0,0.0,0.0,0.0,0.0,0.0,0.0,0.0,0.0,0.0,0.0,0.0,0.0,0.0,0.0,0.0,0.0,0.0,0.0,0.0,0.0,0.0,0.0,0.0,0.0,0.0,0.0,0.0,0.0,0.0,0.0,0.0,0.0,0.0,0.0,0.0,0.0,0.0,0.0,0.0,0.0,0.0,0.0,0.0,0.0,0.0,0.0,0.0,0.0,0.0,0.0,0.0,0.0,0.0,0.0,0.0,0.0,0.0,0.0,0.0,0.0,0.0,0.0,0.0,0.0,0.0,0.0,0.0,0.0,0.0,0.0,0.0,0.0,0.0,0.0,0.0,0.0,0.0,0.0,-1.5702,-1.7078,-1.7216,-1.7235,-1.7215,-1.6917,-1.6317,-1.5337,0.0,0.0,0.0,0.0,0.0,0.0,0.0,0.0,0.0,0.0,0.0,0.0,0.0,0.0,0.0,0.0,0.0,0.0,0.0,0.0,0.0,0.0,0.0,0.0,0.0,0.0,0.0,0.0,0.0,0.0,0.0,0.0,0.0,0.0,0.0,0.0,0.0,0.0,0.0,0.0,0.0,0.0,0.0,0.0,0.0,0.0,0.0,0.0,0.0,0.0,0.0,0.0,0.0,0.0,0.0,0.0,0.0,0.0,0.0,0.0,0.0,0.0,0.0,0.0,0.0,0.0,0.0,0.0,0.0,0.0,0.0,0.0,0.0,0.0,0.0,0.0,0.0,0.0,0.0,0.0,0.0,0.0,0.0,0.0,0.0,0.0,0.0,0.0,0.0,0.0,0.0,0.0,0.0,0.0,0.0,0.0,0.0,0.0,0.0,0.0,0.0,0.0,0.0,0.0,-1.5577,-1.6758,-1.6876,-1.6889,-1.6882,-1.6586,-1.6291,-1.6059,0.0,0.0,0.0,0.0,0.0,0.0,0.0,0.0,0.0,0.0,0.0,0.0,0.0,0.0,0.0,0.0,0.0,0.0,0.0,0.0,0.0,0.0,0.0,0.0,0.0,0.0,0.0,0.0,0.0,0.0,0.0,0.0,0.0,0.0,0.0,0.0,0.0,0.0,0.0,0.0,0.0,0.0,0.0,0.0,0.0,0.0,0.0,0.0,0.0,0.0,0.0,0.0,0.0,0.0,0.0,0.0,0.0,0.0,0.0,0.0,0.0,0.0,0.0,0.0,0.0,0.0,0.0,0.0,0.0,0.0,0.0,0.0,0.0,0.0,0.0,0.0,0.0,0.0,0.0,0.0,0.0,0.0,0.0,0.0,0.0,0.0,0.0,0.0,0.0,0.0,0.0,0.0,0.0,0.0,0.0,0.0,0.0,0.0,0.0,0.0,0.0,0.0,0.0,-1.5304,-1.571,-1.6459,-1.6549,-1.6528,-1.6528,-1.6219,-1.5825,-1.5356,-1.503,0.0,0.0,0.0,0.0,0.0,0.0,0.0,0.0,0.0,0.0,0.0,0.0,0.0,0.0,0.0,0.0,0.0,0.0,0.0,0.0,0.0,0.0,0.0,0.0,0.0,0.0,0.0,0.0,0.0,0.0,0.0,0.0,0.0,0.0,0.0,0.0,0.0,0.0,0.0,0.0,0.0,0.0,0.0,0.0,0.0,0.0,0.0,0.0,0.0,0.0,0.0,0.0,0.0,0.0,0.0,0.0,0.0,0.0,0.0,0.0,0.0,0.0,0.0,0.0,0.0,0.0,0.0,0.0,0.0,0.0,0.0,0.0,0.0,0.0,0.0,0.0,0.0,0.0,0.0,0.0,0.0,0.0,0.0,0.0,0.0,0.0,0.0,0.0,0.0,0.0,0.0,0.0,0.0,0.0,0.0,0.0,0.0,0.0,0.0,0.0,0.0,0.0,-1.5571,-1.5971,-1.6266,-1.6301,-1.6274,-1.6191,-1.5818,-1.5293,-1.4655,-1.4463,0.0,0.0,0.0,0.0,0.0,0.0,0.0,0.0,0.0,0.0,0.0,0.0,0.0,0.0,0.0,0.0,0.0,0.0,0.0,0.0,0.0,0.0,0.0,0.0,0.0,0.0,0.0,0.0,0.0,0.0,0.0,0.0,0.0,0.0,0.0,0.0,0.0,0.0,0.0,0.0,0.0,0.0,0.0,0.0,0.0,0.0,0.0,0.0,0.0,0.0,0.0,0.0,0.0,0.0,0.0,0.0,0.0,0.0,0.0,0.0,0.0,0.0,0.0,0.0,0.0,0.0,0.0,0.0,0.0,0.0,0.0,0.0,0.0,0.0,0.0,0.0,0.0,0.0,0.0,0.0,0.0,0.0,0.0,0.0,0.0,0.0,0.0,0.0,0.0,0.0,0.0,0.0,0.0,0.0,0.0,0.0,0.0,0.0,0.0,0.0,0.0,0.0,-1.5772,-1.6266,-1.6285,-1.6301,-1.6163,-1.5856,-1.5229,-1.478,-1.4623,-1.403,0.0,0.0,0.0,0.0,0.0,0.0,0.0,0.0,0.0,0.0,0.0,0.0,0.0,0.0,0.0,0.0,0.0,0.0,0.0,0.0,0.0,0.0,0.0,0.0,0.0,0.0,0.0,0.0,0.0,0.0,0.0,0.0,0.0,0.0,0.0,0.0,0.0,0.0,0.0,0.0,0.0,0.0,0.0,0.0,0.0,0.0,0.0,0.0,0.0,0.0,0.0,0.0,0.0,0.0,0.0,0.0,0.0,0.0,0.0,0.0,0.0,0.0,0.0,0.0,0.0,0.0,0.0,0.0,0.0,0.0,0.0,0.0,0.0,0.0,0.0,0.0,0.0,0.0,0.0,0.0,0.0,0.0,0.0,0.0,0.0,0.0,0.0,0.0,0.0,0.0,0.0,0.0,0.0,0.0,0.0,0.0,0.0,0.0,0.0,0.0,0.0,0.0,-1.5762,-1.6319,-1.6586,-1.6421,-1.6313,-1.6436,-1.5811,-1.5292,-1.4923,0.0,0.0,0.0,0.0,0.0,0.0,0.0,0.0,0.0,0.0,0.0,0.0,0.0,0.0,0.0,0.0,0.0,0.0,0.0,0.0,0.0,0.0,0.0,0.0,0.0,0.0,0.0,0.0,0.0,0.0,0.0,0.0,0.0,0.0,0.0,0.0,0.0,0.0,0.0,0.0,0.0,0.0,0.0,0.0,0.0,0.0,0.0,0.0,0.0,0.0,0.0,0.0,0.0,0.0,0.0,0.0,0.0,0.0,0.0,0.0,0.0,0.0,0.0,0.0,0.0,0.0,0.0,0.0,0.0,0.0,0.0,0.0,0.0,0.0,0.0,0.0,0.0,0.0,0.0,0.0,0.0,0.0,0.0,0.0,0.0,0.0,0.0,0.0,0.0,0.0,0.0,0.0,0.0,0.0,0.0,0.0,0.0,0.0,0.0,0.0,0.0,0.0,-1.5051,-1.5866,-1.6508,-1.6767,-1.6581,-1.6554,-1.6789,-1.5883,-1.5257,-1.5119,0.0,0.0,0.0,0.0,0.0,0.0,0.0,0.0,0.0,0.0,0.0,0.0,0.0,0.0,0.0,0.0,0.0,0.0,0.0,0.0,0.0,0.0,0.0,0.0,0.0,0.0,0.0,0.0,0.0,0.0,0.0,0.0,0.0,0.0,0.0,0.0,0.0,0.0,0.0,0.0,0.0,0.0,0.0,0.0,0.0,0.0,0.0,0.0,0.0,0.0,0.0,0.0,0.0,0.0,0.0,0.0,0.0,0.0,0.0,0.0,0.0,0.0,0.0,0.0,0.0,0.0,0.0,0.0,0.0,0.0,0.0,0.0,0.0,0.0,0.0,0.0,0.0,0.0,0.0,0.0,0.0,0.0,0.0,0.0,0.0,0.0,0.0,0.0,0.0,0.0,0.0,0.0,0.0,0.0,0.0,0.0,0.0,0.0,0.0,0.0,0.0,0.0,-1.5117,-1.6104,-1.6815,-1.6815,-1.6815,-1.6815,-1.6815,-1.5263,-1.4551,0.0,0.0,0.0,0.0,0.0,0.0,0.0,0.0,0.0,0.0,0.0,0.0,0.0,0.0,0.0,0.0,0.0,0.0,0.0,0.0,0.0,0.0,0.0,0.0,0.0,0.0,0.0,0.0,0.0,0.0,0.0,0.0,0.0,0.0,0.0,0.0,0.0,0.0,0.0,0.0,0.0,0.0,0.0,0.0,0.0,0.0,0.0,0.0,0.0,0.0,0.0,0.0,0.0,0.0,0.0,0.0,0.0,0.0,0.0,0.0,0.0,0.0,0.0,0.0,0.0,0.0,0.0,0.0,0.0,0.0,0.0,0.0,0.0,0.0,0.0,0.0,0.0,0.0,0.0,0.0,0.0,0.0,0.0,0.0,0.0,0.0,0.0,0.0,0.0,0.0,0.0,0.0,0.0,0.0,0.0,0.0,0.0,0.0,0.0,0.0,0.0,0.0,0.0,-1.5459,-1.6647,-1.7519,-1.7519,-1.7296,-1.715,-1.715,-1.6,-1.5215,-1.5108,0.0,0.0,0.0,0.0,0.0,0.0,0.0,0.0,0.0,0.0,0.0,0.0,0.0,0.0,0.0,0.0,0.0,0.0,0.0,0.0,0.0,0.0,0.0,0.0,0.0,0.0,0.0,0.0,0.0,0.0,0.0,0.0,0.0,0.0,0.0,0.0,0.0,0.0,0.0,0.0,0.0,0.0,0.0,0.0,0.0,0.0,0.0,0.0,0.0,0.0,0.0,0.0,0.0,0.0,0.0,0.0,0.0,0.0,0.0,0.0,0.0,0.0,0.0,0.0,0.0,0.0,0.0,0.0,0.0,0.0,0.0,0.0,0.0,0.0,0.0,0.0,0.0,0.0,0.0,0.0,0.0,0.0,0.0,0.0,0.0,0.0,0.0,0.0,0.0,0.0,0.0,0.0,0.0,0.0,0.0,0.0,0.0,0.0,0.0,0.0,0.0,0.0,-1.5595,-1.6898,-1.7811,-1.7811,-1.7618,-1.7502,-1.7502,-1.6528,-1.5756,-1.533,0.0,0.0,0.0,0.0,0.0,0.0,0.0,0.0,0.0,0.0,0.0,0.0,0.0,0.0,0.0,0.0,0.0,0.0,0.0,0.0,0.0,0.0,0.0,0.0,0.0,0.0,0.0,0.0,0.0,0.0,0.0,0.0,0.0,0.0,0.0,0.0,0.0,0.0,0.0,0.0,0.0,0.0,0.0,0.0,0.0,0.0,0.0,0.0,0.0,0.0,0.0,0.0,0.0,0.0,0.0,0.0,0.0,0.0,0.0,0.0,0.0,0.0,0.0,0.0,0.0,0.0,0.0,0.0,0.0,0.0,0.0,0.0,0.0,0.0,0.0,0.0,0.0,0.0,0.0,0.0,0.0,0.0,0.0,0.0,0.0,0.0,0.0,0.0,0.0,0.0,0.0,0.0,0.0,0.0,0.0,0.0,0.0,0.0,0.0,0.0,0.0,0.0,-1.568,-1.6931,-1.7811,-1.7811,-1.7811,-1.7789,-1.7766,-1.6881,-1.6108,-1.5606,0.0,0.0,0.0,0.0,0.0,0.0,0.0,0.0,0.0,0.0,0.0,0.0,0.0,0.0,0.0,0.0,0.0,0.0,0.0,0.0,0.0,0.0,0.0,0.0,0.0,0.0,0.0,0.0,0.0,0.0,0.0,0.0,0.0,0.0,0.0,0.0,0.0,0.0,0.0,0.0,0.0,0.0,0.0,0.0,0.0,0.0,0.0,0.0,0.0,0.0,0.0,0.0,0.0,0.0,0.0,0.0,0.0,0.0,0.0,0.0,-1.4516,-1.413,0.0,0.0,0.0,0.0,0.0,0.0,0.0,0.0,0.0,0.0,0.0,0.0,0.0,0.0,0.0,0.0,0.0,0.0,0.0,0.0,0.0,0.0,0.0,0.0,0.0,0.0,0.0,0.0,0.0,0.0,0.0,0.0,0.0,0.0,0.0,0.0,0.0,0.0,0.0,0.0,-1.6394,-1.7253,-1.7811,-1.7811,-1.7811,-1.7681,-1.7415,-1.6909,-1.621,-1.5271,-1.4028,0.0,0.0,0.0,0.0,0.0,0.0,0.0,0.0,0.0,0.0,0.0,0.0,0.0,0.0,0.0,0.0,0.0,0.0,0.0,0.0,0.0,0.0,0.0,0.0,0.0,0.0,0.0,0.0,0.0,0.0,0.0,0.0,0.0,0.0,0.0,0.0,0.0,0.0,0.0,0.0,0.0,0.0,0.0,0.0,0.0,0.0,0.0,0.0,0.0,0.0,0.0,0.0,0.0,0.0,0.0,0.0,0.0,0.0,0.0,-1.5962,-1.5606,0.0,0.0,0.0,0.0,0.0,0.0,0.0,0.0,0.0,0.0,0.0,0.0,0.0,0.0,0.0,0.0,0.0,0.0,0.0,0.0,0.0,0.0,0.0,0.0,0.0,0.0,0.0,0.0,0.0,0.0,0.0,0.0,0.0,0.0,0.0,0.0,0.0,0.0,0.0,0.0,-1.7117,-1.7879,-1.8335,-1.8335,-1.8014,-1.7726,-1.7549,-1.735,-1.6833,-1.5929,-1.4658,0.0,0.0,0.0,0.0,0.0,0.0,0.0,0.0,0.0,0.0,0.0,0.0,0.0,0.0,0.0,0.0,0.0,0.0,0.0,0.0,0.0,0.0,0.0,0.0,0.0,0.0,0.0,0.0,0.0,0.0,0.0,0.0,0.0,0.0,0.0,0.0,0.0,0.0,0.0,0.0,0.0,0.0,0.0,0.0,0.0,0.0,0.0,0.0,0.0,0.0,0.0,0.0,0.0,-1.7448,-1.7526,-1.8014,-1.7476,-1.7541,-1.8014,-1.7462,-1.7234,-1.7213,-1.7093,0.0,0.0,0.0,0.0,0.0,0.0,0.0,0.0,0.0,0.0,0.0,0.0,0.0,0.0,0.0,0.0,0.0,0.0,0.0,0.0,0.0,0.0,-1.6621,-1.7327,-1.802,-1.7922,-1.5819,0.0,0.0,0.0,0.0,0.0,0.0,0.0,0.0,0.0,0.0,0.0,-1.8059,-1.8724,-1.9046,-1.891,-1.8352,-1.7946,-1.7805,-1.7811,-1.749,-1.6749,-1.5561,-1.4546,0.0,0.0,0.0,0.0,0.0,0.0,0.0,0.0,0.0,0.0,0.0,0.0,0.0,0.0,0.0,0.0,0.0,0.0,0.0,0.0,0.0,0.0,0.0,0.0,0.0,0.0,0.0,0.0,0.0,0.0,0.0,0.0,-1.4084,-1.4859,0.0,0.0,0.0,0.0,0.0,0.0,0.0,0.0,0.0,0.0,0.0,0.0,0.0,-1.8268,-1.806,-1.8455,-1.8632,-1.8571,-1.9066,-1.9337,-1.9417,-1.9337,-1.9337,-1.9417,-1.9337,0.0,-1.7646,-1.8205,0.0,0.0,0.0,0.0,0.0,0.0,0.0,0.0,0.0,0.0,0.0,0.0,0.0,0.0,0.0,0.0,0.0,0.0,0.0,0.0,0.0,0.0,-1.8795,-1.8361,-1.9042,-1.9505,-1.8611,-1.79,-1.755,-1.782,-1.6913,-1.617,0.0,0.0,0.0,0.0,0.0,0.0,-1.9529,-1.9782,-1.9621,-1.8961,-1.8809,-1.8504,-1.7862,-1.7811,-1.749,-1.6749,-1.6529,-1.6089,-1.5341,-1.4597,0.0,0.0,0.0,0.0,0.0,0.0,0.0,0.0,0.0,0.0,0.0,0.0,0.0,0.0,0.0,0.0,0.0,0.0,0.0,0.0,0.0,0.0,0.0,0.0,0.0,0.0,0.0,0.0,0.0,-1.4562,-1.5732,-1.6668,-1.7314,-1.7676,0.0,0.0,0.0,0.0,0.0,0.0,0.0,0.0,0.0,-1.9038,-1.9256,-1.9256,-1.9051,-1.9176,-1.9256,-1.9256,-1.9564,-1.969,-1.969,-1.969,-1.969,-1.969,-1.969,-1.937,-1.8807,-1.8717,-1.8661,-1.8505,0.0,0.0,0.0,0.0,-1.853,-1.8091,-1.8888,-1.8558,-1.7817,-1.7817,0.0,0.0,0.0,0.0,0.0,0.0,0.0,-1.8469,-1.8541,-1.896,-1.9401,-1.9463,-2.0036,-2.0478,-2.0188,-1.9792,-1.9388,-1.9044,-1.8743,-1.8319,-1.7457,-1.7388,0.0,0.0,0.0,-1.9427,-2.0534,-2.067,-2.0551,-2.0238,-1.9418,-1.8775,-1.8454,-1.8048,-1.7659,-1.7337,-1.6936,-1.6563,-1.6241,-1.5511,-1.4969,0.0,0.0,0.0,0.0,0.0,0.0,0.0,0.0,0.0,0.0,0.0,0.0,0.0,0.0,0.0,0.0,0.0,0.0,0.0,0.0,0.0,0.0,0.0,0.0,0.0,0.0,0.0,0.0,-1.6219,-1.6994,-1.8222,-1.8706,-1.8974,0.0,0.0,0.0,0.0,0.0,0.0,-1.9702,-2.011,-2.0192,-1.9852,-2.0207,-2.0273,-1.9948,-1.9771,-1.969,-1.969,-1.969,-1.969,-1.969,-1.969,-1.969,-1.969,-1.969,-1.969,-1.9645,-1.9151,-1.9114,-1.9275,-1.8788,-1.878,-1.9092,-1.9641,-1.9325,-1.8726,-1.9771,-1.9611,-1.8957,-1.8957,-1.8508,-1.7909,-1.7708,0.0,0.0,0.0,0.0,-1.8824,-1.9232,-1.9469,-1.9758,-2.0325,-2.0813,-2.1197,-2.1323,-2.1323,-2.1075,-2.0212,-2.0278,-2.0097,-1.8872,-1.8961,0.0,-1.8724,-1.9604,-2.0602,-2.138,-2.1465,-2.1397,-2.1221,-2.0162,-1.9401,-1.9198,-1.8504,-1.8082,-1.8082,-1.7388,-1.6965,-1.6965,-1.6441,-1.6069,-1.5883,0.0,0.0,0.0,0.0,0.0,0.0,0.0,0.0,0.0,0.0,0.0,0.0,0.0,0.0,0.0,0.0,0.0,0.0,0.0,0.0,0.0,0.0,0.0,0.0,0.0,0.0,0.0,0.0,0.0,-1.9171,-1.924,0.0,0.0,0.0,0.0,-2.0788,-2.1635,-2.2122,-2.2113,-2.1802,-2.1605,-2.159,-2.1003,-2.066,-2.0645,-2.0014,-1.969,-1.969,-1.969,-1.969,-1.969,-1.969,-1.969,-1.969,-1.969,-1.969,-1.969,-1.9645,-1.9666,-1.9666,-1.9636,-1.9656,-1.9656,-1.9687,-1.9687,-1.9621,-1.9696,-1.9696,-1.963,-1.963,-1.9196,-1.8816,-1.982,-1.9741,0.0,0.0,-2.0206,-2.0119,-1.9758,-1.9939,-2.0369,-2.0846,-2.1275,-2.1688,-2.2135,-2.2237,-2.2089,-2.1589,-2.094,-2.0621,-2.0972,0.0,-2.017,-2.0906,-2.1102,-2.1397,-2.2158,-2.2243,-2.1972,-2.1262,-2.1136,-2.0771,-2.0002,-1.9283,-1.8843,-1.8843,-1.8149,-1.7743,-1.7743,-1.7726,-1.7354,-1.6665,-1.6614,0.0,0.0,0.0,0.0,0.0,0.0,0.0,0.0,0.0,0.0,0.0,0.0,0.0,0.0,0.0,0.0,0.0,0.0,0.0,0.0,0.0,0.0,0.0,0.0,0.0,0.0,0.0,0.0,-2.0866,-2.0749,0.0,-2.1145,-2.1553,-2.1688,-2.1414,-2.1717,-2.1902,-2.1902,-2.1787,-2.1702,-2.1702,-2.1488,-2.135,-2.1327,-2.1116,-2.0757,-2.0354,-2.0354,-2.011,-1.969,-1.969,-1.969,-1.969,-1.969,-1.969,-1.969,-1.969,-1.969,-1.969,-1.969,-1.969,-1.969,-1.969,-1.969,-1.969,-1.969,-1.969,-1.969,-1.969,-1.9525,-1.9411,-1.9814,-1.9743,-1.9656,-1.9849,-2.0089,-2.028,-2.0124,-2.0616,-2.1165,-2.1337,-2.1735,-2.2106,-2.2254,-2.231,-2.2237,-2.2077,-2.1859,-2.1552,-2.1262,-2.1363,-2.1431,-2.1237,-2.16,-2.2006,-2.2276,-2.231,-2.2209,-2.1938,-2.1465,-2.1059,-2.0788,-2.0061,-1.9418,-1.8927,-1.8657,-1.8302,-1.7828,-1.7811,-1.7693,-1.7405,-1.6953,-1.6089,0.0,0.0,0.0,0.0,0.0,0.0,0.0,0.0,0.0,0.0,0.0,0.0,0.0,0.0,0.0,0.0,0.0,0.0,0.0,0.0,0.0,0.0,0.0,0.0,0.0,-1.9531,-2.019,-2.1908,-2.1706,-2.1622,-2.2049,-2.2317,-2.2309,-2.2061,-2.2381,-2.2555,-2.2366,-2.2497,-2.2555,-2.2366,-2.2163,-2.2049,-2.2049,-2.182,-2.1469,-2.1045,-2.081,-2.0466,-2.0029,-1.9822,-1.969,-1.969,-1.969,-1.969,-1.969,-1.969,-1.969,-1.969,-1.969,-1.969,-1.969,-1.969,-1.969,-1.969,-1.969,-1.969,-1.969,-1.969,-1.969,-1.969,-1.969,-1.969,-1.9726,-1.9874,-2.0,-2.0158,-2.0449,-2.0846,-2.1228,-2.1521,-2.1823,-2.2106,-2.2282,-2.231,-2.231,-2.231,-2.231,-2.2141,-2.1651,-2.1972,-2.2141,-2.1634,-2.1989,-2.231,-2.231,-2.231,-2.231,-2.231,-2.1854,-2.1566,-2.1566,-2.0856,-2.0196,-1.9705,-1.9418,-1.8944,-1.82,-1.8166,-1.8065,-1.7811,-1.732,-1.6948,-1.6712,0.0,0.0,0.0,0.0,0.0,0.0,0.0,0.0,0.0,0.0,0.0,0.0,0.0,0.0,0.0,0.0,0.0,0.0,0.0,0.0,0.0,0.0,0.0,-2.0825,-2.0505,-2.0767,-2.2139,-2.1968,-2.173,-2.1773,-2.2366,-2.2744,-2.2744,-2.3728,-2.4169,-2.3636,-2.4081,-2.4141,-2.361,-2.3051,-2.2744,-2.2744,-2.2076,-2.173,-2.1744,-2.109,-2.0752,-2.0706,-2.0059,-1.9771,-1.975,-1.975,-1.975,-1.975,-1.975,-1.9735,-1.972,-1.969,-1.969,-1.969,-1.969,-1.969,-1.969,-1.969,-1.969,-1.969,-1.969,-1.969,-1.972,-1.972,-1.9735,-1.9843,-2.0224,-2.0065,-1.9975,-2.0797,-2.0682,-2.0583,-2.143,-2.1612,-2.1764,-2.2209,-2.231,-2.231,-2.231,-2.231,-2.231,-2.231,-2.231,-2.231,-2.231,-2.231,0.0,-2.231,-2.231,-2.231,-2.231,-2.231,-2.231,-2.231,-2.1634,-2.1237,-2.1204,-2.0467,-1.9697,-1.8961,-1.8927,-1.8606,-1.7873,-1.7862,-1.82,-1.8894,0.0,0.0,0.0,0.0,0.0,0.0,0.0,0.0,0.0,0.0,0.0,0.0,0.0,0.0,0.0,0.0,0.0,0.0,0.0,0.0,0.0,-2.0303,-2.0623,-2.075,-2.1076,-2.1627,-2.2503,-2.2477,-2.2585,-2.3051,-2.3256,-2.3359,-2.3359,-2.3625,-2.3738,-2.3622,-2.3738,-2.3728,-2.3595,-2.3419,-2.3359,-2.3359,-2.3169,-2.2861,-2.2439,-2.2253,-2.1909,-2.1407,-2.1228,-2.1159,-2.1141,-2.1141,-2.1141,-2.1141,-2.1141,-2.0857,-2.0378,-1.9884,-1.969,-1.969,-1.969,-1.969,-1.969,-1.969,-1.969,-1.969,-1.969,-2.0034,-2.0438,-2.0438,-2.0767,-2.1136,-2.1055,-2.1198,-2.1363,-2.1405,-2.1598,-2.1811,-2.2049,-2.2106,-2.2135,-2.2282,-2.231,-2.231,-2.231,-2.231,-2.231,-2.231,-2.231,-2.231,-2.231,-2.231,-2.231,-2.231,-2.231,-2.231,-2.231,-2.231,-2.231,-2.231,-2.2124,-2.1769,-2.1237,-2.0974,-2.0517,-1.9714,-1.9697,-1.9596,-1.9393,-1.8877,-1.8691,0.0,0.0,0.0,0.0,0.0,0.0,0.0,0.0,0.0,0.0,0.0,0.0,0.0,0.0,0.0,0.0,0.0,0.0,0.0,0.0,0.0,0.0,-2.113,-2.1519,-2.1519,-2.186,-2.2366,-2.2993,-2.3081,-2.3198,-2.358,-2.3595,-2.3595,-2.3595,-2.3816,-2.3834,-2.3626,-2.381,-2.3816,-2.361,-2.3595,-2.3595,-2.3595,-2.3595,-2.3404,-2.3081,-2.2803,-2.2492,-2.2099,-2.1834,-2.1699,-2.1719,-2.1685,-2.1695,-2.1695,-2.1695,-2.147,-2.1051,0.0,0.0,0.0,0.0,-1.969,-1.9735,-2.0019,-2.0124,-2.0168,-2.0438,-2.0797,-2.1126,-2.1126,-2.1395,-2.1762,-2.2004,-2.1874,-2.18,-2.225,-2.2191,-2.2061,-2.2237,-2.231,-2.231,-2.231,-2.231,-2.231,-2.231,-2.231,0.0,-2.231,-2.231,-2.231,-2.231,-2.231,-2.231,-2.231,-2.231,-2.231,-2.231,-2.231,-2.231,-2.231,-2.231,0.0,0.0,0.0,-2.1312,-2.0534,-2.017,0.0,0.0,0.0,0.0,0.0,-1.9891,0.0,0.0,-2.0166,-2.0276,0.0,0.0,0.0,0.0,0.0,0.0,0.0,0.0,0.0,0.0,0.0,0.0,0.0,0.0,0.0,0.0,-2.1768,-2.2701,-2.2789,-2.2789,-2.2993,-2.3522,-2.3595,-2.3595,-2.3595,-2.3595,-2.3595,-2.3595,-2.4038,-2.4111,-2.361,-2.4038,0.0,0.0,0.0,-2.3595,-2.3595,-2.3595,-2.3595,-2.3595,-2.3066,-2.2789,-2.2759,-2.2196,-2.1913,-2.191,-2.1898,-2.1904,-2.1904,-2.1904,-2.1859,-2.1739,-2.1081,-2.0408,-1.9794,-1.9794,-1.9794,-1.9884,-2.0498,0.0,0.0,-2.1515,-2.1739,-2.1799,-2.1799,-2.1884,-2.2176,-2.2959,-2.2469,-2.1998,-2.3193,-2.2655,-2.191,-2.2327,-2.2361,-2.231,-2.231,-2.231,-2.231,-2.231,-2.231,-2.231,-2.231,-2.231,-2.231,-2.231,-2.231,-2.231,-2.231,-2.231,-2.231,-2.231,-2.231,0.0,-2.231,-2.231,-2.231,-2.231,-2.231,-2.2006,-2.1346,-2.0653,-2.0602,-2.1322,-2.1312,-2.1634,-2.231,-2.231,-2.231,-2.226,-2.047,-2.0379,0.0,0.0,0.0,0.0,0.0,0.0,0.0,0.0,0.0,0.0,0.0,0.0,0.0,0.0,0.0,-2.2622,-2.2683,-2.2876,-2.3374,-2.3419,-2.3477,-2.3595,-2.3595,-2.3595,-2.3595,-2.3595,-2.3595,-2.3595,-2.3698,-2.3713,-2.361,-2.3698,-2.3713,-2.3595,-2.3595,-2.3595,-2.3595,-2.3595,-2.3595,-2.3595,-2.3492,0.0,-2.3404,-2.3268,-2.3251,-2.3238,-2.3251,-2.3236,-2.3236,-2.3236,-2.2936,-2.2428,-2.1754,-2.1096,-2.0513,-2.0513,-2.0513,-2.0543,-2.0677,-2.1051,-2.153,-2.1665,-2.2054,-2.2488,-2.2488,-2.3147,0.0,-2.3887,-2.4019,-2.4161,-2.4252,-2.3654,-2.3068,-2.319,-2.2733,-2.231,-2.231,-2.231,-2.231,-2.231,-2.231,-2.231,-2.231,-2.231,-2.231,-2.231,-2.231,-2.231,-2.231,-2.231,-2.231,-2.231,-2.231,-2.231,-2.231,-2.231,-2.231,-2.231,-2.231,-2.2243,-2.209,-2.1955,-2.1938,-2.209,-2.209,-2.2175,-2.231,-2.231,-2.231,-2.2293,-2.1908,-2.1994,0.0,0.0,0.0,0.0,0.0,0.0,0.0,0.0,0.0,0.0,0.0,-2.1608,-2.1601,0.0,-2.2611,-2.2942,-2.3081,-2.3271,-2.358,-2.3595,-2.3595,-2.3595,-2.3595,-2.3595,-2.3595,-2.3595,-2.3595,-2.3595,-2.3595,-2.3595,-2.3595,-2.3595,-2.3595,-2.3595,-2.3595,-2.3595,-2.3595,-2.3595,-2.3595,-2.3595,-2.3595,-2.3595,-2.3595,-2.3595,-2.3595,-2.3595,-2.3595,-2.3595,-2.3595,-2.3595,-2.3415,-2.3101,-2.2772,-2.2054,-2.1201,-2.1201,-2.1201,-2.1261,-2.1575,-2.1919,-2.2233,-2.2547,-2.2877,-2.3131,-2.3131,-2.3553,-2.4039,-2.4225,-2.4324,-2.4495,-2.463,-2.4303,-2.3934,-2.3934,-2.3663,-2.3393,-2.3393,-2.3393,-2.3393,-2.3393,-2.3105,-2.2852,-2.2852,-2.2547,-2.231,-2.231,-2.231,-2.231,-2.231,-2.231,-2.231,-2.231,-2.231,-2.231,-2.231,-2.231,-2.231,-2.231,-2.231,-2.231,-2.231,-2.231,-2.231,-2.231,-2.231,-2.231,-2.231,-2.231,-2.231,-2.231,-2.231,-2.236,0.0,0.0,0.0,0.0,0.0,0.0,0.0,-2.0608,-2.1179,-2.1671,-2.2096,-2.2382,-2.2368,-2.2645,-2.2876,-2.2876,-2.3286,-2.3595,-2.3595,-2.3595,-2.3595,-2.3595,-2.3595,-2.3595,-2.3595,-2.3713,-2.3801,-2.3801,-2.3904,-2.4008,-2.4008,-2.4008,-2.4008,-2.4008,-2.4008,-2.3968,-2.4015,-2.4015,-2.3896,-2.3775,-2.3775,-2.3744,-2.3595,-2.3595,-2.3595,-2.3595,-2.3595,-2.3595,-2.3595,-2.3595,-2.3595,-2.3595,-2.3595,-2.2966,-2.2054,-2.1934,-2.1889,-2.1964,-2.2488,-2.2798,-2.2936,-2.343,-2.3595,-2.3595,-2.3595,-2.3681,-2.3837,-2.4266,-2.4359,-2.4425,-2.4931,-2.478,-2.4585,-2.4695,-2.4594,-2.4506,-2.4506,-2.4506,-2.4506,-2.4506,-2.4002,-2.3613,-2.3613,-2.3004,-2.2479,-2.2327,-2.231,-2.231,-2.231,-2.231,-2.231,-2.231,-2.231,-2.231,-2.231,-2.2209,-2.2209,-2.2282,-2.2209,-2.2209,-2.231,-2.231,-2.231,-2.231,-2.231,-2.231,-2.231,-2.231,-2.231,-2.231,-2.231,-2.231,-2.1728,-2.1338,-2.0799,-2.0956,-2.0811,-2.0751,0.0,-2.1541,-2.1645,-2.1697,-2.2201,-2.2661,-2.2651,-2.3103,-2.3492,-2.3492,-2.358,-2.3595,-2.3595,-2.3595,-2.3595,-2.3595,-2.3595,-2.3595,-2.3595,-2.4141,-2.4468,-2.4468,-2.5019,-2.5364,-2.5364,-2.5364,-2.5364,-2.5364,-2.5364,-2.5379,-2.5363,-2.5363,-2.5062,-2.4462,-2.4462,-2.4164,-2.3595,-2.3595,-2.3595,-2.3595,-2.3595,-2.3595,-2.3595,-2.3595,-2.3595,-2.3595,-2.3595,-2.3505,-2.331,-2.2772,-2.2604,-2.2619,-2.2694,-2.3041,-2.3505,-2.358,-2.3595,-2.3595,-2.3595,-2.3906,-2.4307,-2.4389,-2.4729,-2.5185,-2.5721,-2.532,-2.4878,-2.536,-2.4966,-2.4506,-2.4506,-2.4506,-2.4506,-2.4506,-2.4438,-2.4388,-2.4388,-2.3765,-2.3054,-2.2412,-2.231,-2.231,-2.231,-2.231,-2.231,-2.231,-2.231,-2.231,-2.231,-2.1928,-2.1869,-2.2265,-2.1899,-2.1869,-2.2282,-2.231,-2.231,-2.231,-2.231,-2.231,-2.231,-2.231,-2.231,-2.231,-2.231,-2.231,-2.1795,-2.1807,-2.1647,-2.1085,-2.1432,-2.1943,-2.2207,-2.2269,-2.2364,-2.2743,-2.3041,-2.3203,-2.321,-2.3419,-2.3595,-2.3595,-2.3595,-2.3595,-2.3595,-2.3595,-2.3595,-2.3595,-2.3934,-2.4157,-2.4157,-2.4438,-2.476,-2.5171,-2.5441,-2.5577,-2.5577,-2.5577,-2.5577,-2.5577,-2.5577,-2.5608,-2.5618,-2.5614,-2.5471,-2.5203,-2.5193,-2.4821,-2.4193,-2.4193,-2.3984,-2.3625,-2.4029,-2.3969,-2.3595,-2.3595,-2.3595,-2.3595,-2.3595,-2.3595,-2.3565,-2.331,-2.3206,-2.3206,-2.3206,-2.3385,-2.3595,-2.3595,-2.3595,-2.3595,-2.3595,-2.3752,-2.3906,-2.3906,-2.4307,-2.4792,-2.5012,-2.5034,-2.5159,-2.5692,-2.5613,-2.5447,-2.5728,-2.5778,-2.5778,-2.5778,-2.5423,-2.5135,-2.5135,-2.4526,-2.3934,-2.3613,-2.2852,-2.231,-2.231,-2.231,-2.231,-2.231,-2.231,-2.218,-2.1928,-2.1718,-2.1688,-2.1899,-2.1718,-2.1794,-2.2282,-2.231,-2.231,-2.231,-2.231,-2.231,-2.231,-2.231,-2.231,-2.2327,-2.275,-2.2936,-2.1579,-2.1717,-2.1913,-2.1383,-2.1972,-2.2722,-2.2894,-2.294,-2.3081,-2.3507,-2.3595,-2.3595,-2.3595,-2.3728,-2.3889,-2.3889,-2.4023,-2.4111,-2.3904,-2.3889,-2.3889,-2.3889,-2.4319,-2.4756,-2.5138,-2.5138,-2.5359,-2.5856,-2.6031,-2.6126,-2.6126,-2.6126,-2.6126,-2.6126,-2.6126,-2.6126,-2.6126,-2.6174,-2.605,-2.5872,-2.5896,-2.554,-2.4896,-2.4896,-2.4627,-2.4178,-2.4672,-2.4612,-2.4148,-2.4148,-2.4148,-2.4148,-2.4148,-2.4148,-2.4148,-2.4148,-2.3924,-2.3595,-2.3595,-2.3595,-2.3595,-2.3595,-2.3595,-2.3595,-2.3595,-2.3595,-2.3595,-2.3595,-2.3879,-2.4184,-2.4348,-2.4712,-2.5105,-2.5652,-2.5762,-2.5924,-2.6401,-2.6505,-2.6556,-2.6657,-2.6268,-2.5863,-2.5731,-2.5223,-2.4749,-2.4605,-2.3624,-2.2835,-2.2632,-2.2446,-2.231,-2.231,-2.231,-2.2163,-2.1823,-2.1568,-2.1538,-2.1794,-2.1568,-2.1705,-2.2282,-2.231,-2.231,-2.231,-2.231,-2.231,-2.231,-2.2513,-2.2615,-2.2632,-2.3359,-2.3799,-2.1568,-2.1309,-2.1552,-2.2426,-2.267,-2.2842,-2.3432,-2.355,-2.358,-2.3595,-2.3595,-2.3595,-2.3595,-2.4126,-2.4572,-2.4572,-2.5124,-2.5318,-2.4661,-2.4572,-2.4572,-2.4572,-2.4572,-2.5123,-2.6426,-2.6553,-2.6533,-2.6562,-2.717,-2.753,-2.753,-2.753,-2.753,-2.753,-2.753,-2.753,-2.753,-2.753,-2.72,-2.6572,-2.6557,-2.6213,-2.5585,-2.5585,-2.557,-2.5555,-2.557,-2.557,-2.5555,-2.5555,-2.5555,-2.5555,-2.5555,-2.5555,-2.5555,-2.5555,-2.4717,-2.3595,-2.3595,-2.3595,-2.3595,-2.3595,-2.3595,-2.3595,-2.3595,-2.3595,-2.3595,-2.3595,-2.3595,-2.3752,-2.4266,-2.443,-2.4552,-2.5105,-2.5221,-2.5373,-2.5888,-2.6013,-2.6156,-2.6624,-2.6674,-2.6522,-2.6052,-2.5731,-2.5379,-2.4858,-2.4578,-2.4154,-2.346,-2.275,-2.231,-2.231,-2.231,-2.2282,-2.2282,-2.1493,-2.1385,-2.2225,-2.1493,-2.1385,-2.2254,-2.231,-2.231,-2.231,-2.231,-2.231,-2.231,-2.3021,-2.3359,-2.3376,-2.4133,-2.4847,-2.2063,-2.2328,-2.2637,-2.2681,-2.3018,-2.333,-2.3533,-2.3595,-2.3595,-2.3595,-2.3595,-2.3595,-2.3595,-2.3786,-2.4074,-2.456,-2.4776,-2.4989,-2.5217,-2.5259,-2.5244,-2.5244,-2.5681,-2.6094,-2.6583,-2.6592,-2.6796,-2.725,-2.75,-2.7625,-2.7625,-2.7625,-2.7625,-2.7625,-2.7625,-2.7625,-2.7625,-2.7625,-2.7505,-2.7245,-2.6797,-2.6482,-2.6258,-2.6258,-2.6019,-2.563,-2.6078,-2.6019,-2.5615,-2.5615,-2.5615,-2.5615,-2.5615,-2.5615,-2.5615,-2.5615,-2.5315,-2.4941,-2.4941,-2.4941,-2.4866,-2.4418,-2.4283,-2.4193,-2.3729,-2.3595,-2.3595,-2.3595,-2.3595,-2.3638,-2.3837,-2.3879,-2.3991,-2.4552,-2.4672,-2.4894,-2.5815,-2.6013,-2.6156,-2.6624,-2.6691,-2.6657,-2.647,-2.6132,-2.5791,-2.5634,-2.4978,-2.4421,-2.4154,-2.39,-2.3562,-2.3088,-2.3038,-2.2768,-2.2165,-2.1826,-2.1869,-2.2264,-2.2016,-2.228,-2.3189,-2.322,-2.3393,-2.3748,-2.3748,-2.3748,-2.3748,-2.4002,-2.412,-2.4137,-2.4881,-2.5372,-2.2606,-2.2916,-2.3086,-2.303,-2.3336,-2.3595,-2.3595,-2.3595,-2.3595,-2.3595,-2.3595,-2.3595,-2.3595,-2.3801,-2.4163,-2.4849,-2.5174,-2.5459,-2.5893,-2.5956,-2.594,-2.594,-2.6527,-2.7045,-2.7294,-2.7543,-2.7676,-2.7604,-2.7625,-2.7625,-2.7625,-2.7625,-2.7625,-2.7625,-2.7625,-2.7625,-2.7625,-2.7625,-2.7625,-2.756,-2.7141,-2.6946,-2.6946,-2.6946,-2.6707,-2.6333,-2.6752,-2.6692,-2.6303,-2.6303,-2.6303,-2.6303,-2.6303,-2.6303,-2.6303,-2.6303,-2.6303,-2.6243,-2.5779,-2.5615,-2.554,-2.5121,-2.4986,-2.4852,-2.4178,-2.3969,-2.3924,-2.367,-2.3595,-2.3595,-2.3595,-2.3595,-2.3681,-2.4032,-2.4116,-2.4348,-2.5259,-2.5411,-2.5635,-2.6332,-2.6436,-2.6436,-2.6436,-2.6033,-2.5726,-2.5726,-2.5309,-2.4927,-2.4659,-2.4391,-2.3976,-2.3336,-2.3412,-2.3207,-2.2431,-2.2396,-2.2448,-2.2545,-2.239,-2.2728,-2.3637,-2.372,-2.3966,-2.4475,-2.4506,-2.4506,-2.4506,-2.4746,-2.4881,-2.4898,-2.5642,-2.5998,-2.3113,-2.3004,-2.2876,-2.3477,-2.3595,-2.3595,-2.3595,-2.3595,-2.3595,-2.3595,-2.3595,-2.3595,-2.358,-2.4126,-2.4795,-2.5453,-2.6146,-2.6592,-2.6672,-2.6672,-2.6672,-2.6672,-2.7184,-2.7855,-2.851,-2.9167,-2.9049,-2.7808,-2.7649,-2.7655,-2.7619,-2.764,-2.7625,-2.7625,-2.7625,-2.7625,-2.7625,-2.7625,-2.7625,-2.7625,-2.7625,-2.7625,-2.7625,-2.7625,-2.7625,-2.7625,-2.7625,-2.7625,-2.7625,-2.7625,-2.7625,-2.7625,-2.7625,-2.7625,-2.7625,-2.7625,-2.7625,-2.7445,-2.6138,-2.5704,-2.5704,-2.5674,-2.5659,-2.554,-2.4821,-2.4627,-2.4537,-2.3879,-2.3699,-2.3684,-2.3655,-2.3655,-2.364,-2.361,-2.3625,-2.3797,-2.4282,-2.442,-2.4744,-2.5779,-2.5977,-2.5977,-2.5977,-2.554,-2.5182,-2.5182,-2.5652,-2.5713,-2.4919,-2.4229,-2.3617,-2.3147,-2.3464,-2.3551,-2.3076,-2.3112,-2.3076,-2.3016,-2.2611,-2.2786,-2.3752,-2.3786,-2.405,-2.4594,-2.4625,-2.4625,-2.4625,-2.5321,-2.5659,-2.5676,-2.637,-2.6691,-2.2802,-2.3126,-2.3404,-2.358,-2.3595,-2.3595,-2.3595,-2.3595,-2.3595,-2.3595,-2.3595,-2.3477,-2.2993,-2.3831,-2.4661,-2.4811,-2.5824,-2.6781,-2.728,-2.7375,-2.7375,-2.7375,-2.7515,-2.7847,-2.8531,-2.877,-2.8915,-2.9051,-2.8652,-2.8333,-2.8345,-2.7874,-2.7625,-2.7625,-2.7625,-2.7625,-2.7625,-2.7625,-2.7625,-2.7625,-2.7625,-2.7625,-2.7625,-2.7625,-2.7625,-2.7625,-2.7625,-2.7625,-2.7625,-2.7625,-2.7625,-2.7625,-2.7625,-2.7625,-2.7625,-2.7625,-2.7625,-2.7565,-2.7186,-2.7066,-2.6991,-2.6497,-2.6348,-2.6213,-2.5555,-2.536,-2.5315,-2.5151,-2.5091,-2.4986,-2.4492,-2.4373,-2.4238,-2.3729,-2.3984,-2.4356,-2.439,-2.4808,-2.5191,-2.5371,-2.5411,-2.5411,-2.5411,-2.5297,-2.5067,-2.4657,-2.5411,-2.5786,-2.5169,-2.5285,-2.5151,-2.4435,-2.4123,-2.3959,-2.3829,-2.3478,-2.3328,-2.3431,-2.3338,-2.3717,-2.4788,-2.4825,-2.5226,-2.6116,-2.6133,-2.6133,-2.6133,-2.6319,-2.642,-2.642,-2.6607,-2.6691,-2.3008,-2.3359,-2.3595,-2.3595,-2.3595,-2.3522,-2.3271,-2.3404,-2.3419,-2.2876,-2.2993,-2.2993,-2.2381,-2.3073,-2.3963,-2.4505,-2.5497,-2.6482,-2.7434,-2.7625,-2.7625,-2.7625,-2.7876,-2.8323,-2.8958,-2.926,-2.9693,-3.0352,-2.956,-2.9049,-2.9044,-2.8674,-2.8457,-2.8457,-2.8457,-2.8323,-2.8023,-2.7775,-2.7625,-2.7625,-2.7625,-2.7625,-2.7625,-2.7625,-2.7625,-2.7625,-2.7625,-2.7625,-2.7625,-2.7625,-2.7625,-2.7625,-2.7625,-2.7625,-2.7625,-2.7625,-2.7625,-2.7625,-2.7625,-2.7625,-2.7565,-2.7141,-2.7021,-2.6901,-2.6243,-2.6033,-2.5974,-2.5689,-2.5615,-2.5525,-2.5151,-2.5061,-2.4956,-2.4582,-2.4777,-2.5032,-2.4937,-2.5238,-2.5446,-2.5309,-2.5234,-2.5144,-2.491,-2.4855,-2.4672,-2.4116,-2.4736,-2.5089,-2.4592,-2.5182,-2.5303,-2.4379,-2.4248,-2.4147,-2.3911,-2.3832,-2.3718,-2.3623,-2.3595,-2.4074,-2.5144,-2.5221,-2.5672,-2.6691,-2.6691,-2.6691,-2.6691,-2.6691,-2.6691,-2.6691,-2.6691,-2.6691,-2.3477,-2.3595,-2.3595,-2.3595,-2.3595,-2.3419,-2.2861,-2.3106,-2.3161,-2.1931,-2.2147,-2.2359,-2.1697,-2.2178,-2.3072,-2.4293,-2.5106,-2.6082,-2.7405,-2.7625,-2.7625,-2.7625,-2.8182,-2.8884,-2.955,-3.0182,-3.0776,-3.1422,-3.0473,-2.9837,-2.9748,-2.966,-2.9579,-2.9579,-2.9579,-2.9265,-2.8607,-2.8008,-2.7715,-2.7625,-2.7625,-2.7625,-2.7625,-2.7625,-2.7625,-2.7625,-2.7625,-2.7625,-2.7625,-2.7625,-2.7625,-2.7625,-2.7625,-2.7625,-2.7625,-2.7625,-2.7625,-2.7625,-2.7625,-2.7625,-2.7625,-2.7625,-2.7625,-2.7505,-2.6901,-2.6722,-2.6602,-2.6033,-2.5869,-2.5854,-2.5764,-2.5734,-2.5719,-2.563,-2.5674,-2.5719,-2.563,-2.5615,-2.5544,-2.5426,-2.5237,-2.4982,-2.4486,-2.4348,-2.4158,-2.3681,-2.4074,-2.4199,-2.3681,-2.4471,-2.4752,-2.3794,-2.4074,-2.4116,-2.3767,-2.4074,-2.4116,-2.3638,-2.3595,-2.4032,-2.5051,-2.5182,-2.5635,-2.659,-2.6657,-2.6691,-2.6691,-2.6624,-2.6624,-2.6624,-2.6624,-2.6624,-2.3578,-2.3595,-2.3595,-2.3595,-2.3595,-2.3419,-2.2861,-2.2793,0.0,-2.1856,-2.1789,-2.1658,-2.1,-2.1864,-2.2938,-2.3671,-2.478,-2.6082,-2.7405,-2.7625,-2.7625,-2.7625,-2.8166,-2.8887,-2.9536,-3.0175,-3.076,-3.1437,-3.1302,-3.0944,-3.0362,-2.9879,-2.9579,-2.9579,-2.9579,-2.9265,-2.8607,-2.8487,-2.8128,-2.7625,-2.7625,-2.7625,-2.7625,-2.7625,-2.7625,-2.7625,-2.7625,-2.7625,-2.7625,-2.7625,-2.7625,-2.7625,-2.7625,-2.7625,-2.7625,-2.7625,-2.7625,-2.7625,-2.7625,-2.7625,-2.7625,-2.7625,-2.7625,-2.7595,-2.749,-2.7445,-2.743,-2.726,-2.723,-2.7111,-2.6557,-2.6422,-2.6288,-2.5734,-2.6019,-2.6273,-2.5734,-2.5615,-2.5544,-2.5426,-2.5022,-2.4633,-2.4457,-2.4032,-2.3724,-2.3595,-2.4074,-2.4199,-2.3681,-2.4158,-2.4471,-2.4266,-2.3948,-2.3879,-2.4225,-2.3948,-2.3724,-2.3595,-2.3595,-2.3879,-2.4511,-2.4973,-2.5486,-2.612,-2.6505,-2.6691,-2.6691,-2.6297,-2.612,-2.612,-2.612,-2.612,-2.3595,-2.3595,-2.3595,-2.3595,-2.3595,-2.3359,-2.2395,0.0,0.0,-2.0926,-2.0933,-2.0952,-2.0288,-2.1003,-2.1972,-2.2948,-2.3937,-2.5121,-2.6825,-2.7378,-2.7733,-2.81,-2.8729,-2.9348,-3.0001,-3.0319,-3.077,-3.1437,-3.1482,-3.139,-3.1061,-3.0761,-3.0597,-3.0597,-2.9939,-2.943,-2.9116,-2.8412,-2.7904,-2.7625,-2.7625,-2.7625,-2.7625,-2.7625,-2.7625,-2.7625,-2.7625,-2.7625,-2.7625,-2.7625,-2.7625,-2.7625,-2.7625,-2.7625,-2.7625,-2.7625,-2.7625,-2.7625,-2.7625,-2.7625,-2.7625,-2.7625,-2.7625,-2.7625,-2.7625,-2.7625,-2.7625,-2.7625,-2.7625,-2.755,-2.7186,-2.7096,-2.7021,-2.6707,-2.6871,-2.7021,-2.6692,-2.6363,-2.6008,-2.5606,-2.5033,-2.4447,-2.4028,-2.3752,-2.3595,-2.3595,-2.3837,-2.3879,-2.3638,-2.3837,-2.3991,-2.3991,-2.3752,-2.3724,-2.3948,-2.3767,-2.3595,-2.3595,-2.3595,-2.3837,-2.4389,-2.491,-2.5449,-2.5997,-2.647,-2.659,-2.6332,-2.612,-2.5852,-2.5577,-2.5577,-2.5726,-2.3595,-2.3595,-2.3595,-2.3595,-2.3595,-2.3271,-2.1989,-2.2128,-2.1967,-2.0095,-2.011,-2.0303,-1.9822,-2.0125,-2.0952,-2.2476,-2.3096,-2.4169,-2.6285,-2.7212,-2.7869,-2.8512,-2.9342,-2.9974,-3.0424,-3.0636,-3.0941,-3.1437,-3.1482,-3.1482,-3.1482,-3.1482,-3.1482,-3.1482,-3.0387,-2.9714,-2.9579,-2.8397,-2.7724,-2.7625,-2.7625,-2.7625,-2.7625,-2.7625,-2.7625,-2.7625,-2.7625,-2.7625,-2.7625,-2.7625,-2.7625,-2.7625,-2.7625,-2.7625,-2.7625,-2.7625,-2.7625,-2.7625,-2.7625,-2.7625,-2.7625,-2.7625,-2.7625,-2.7625,-2.7625,-2.7625,-2.7625,-2.7625,-2.7625,-2.7625,-2.7625,-2.7625,-2.7625,-2.7625,-2.7625,-2.7625,-2.7625,-2.7171,-2.6602,-2.5944,-2.5405,-2.4792,-2.3954,-2.3819,-2.3774,-2.3625,-2.3595,-2.3595,-2.3595,-2.3595,-2.3595,-2.3595,-2.3595,-2.3595,-2.3595,-2.3595,-2.3595,-2.3595,-2.3595,-2.3794,-2.4184,-2.4736,-2.5221,-2.5652,-2.6245,-2.6332,-2.5815,-2.5815,-2.5561,-2.5028,-2.5028,-2.5259,-2.3595,-2.3595,-2.3595,-2.3595,-2.3595,-2.3271,-2.1989,0.0,-2.1394,-1.9999,-1.9756,-1.9756,-1.9726,-1.9756,-2.0451,-2.2393,0.0,-2.3701,-2.6238,-2.7185,-2.7874,-2.8527,-2.9704,-3.047,-3.0511,-3.1068,-3.1407,-3.1482,-3.1482,-3.1482,-3.1482,-3.1482,-3.1482,-3.1482,-3.0806,-3.0148,-2.9594,-2.8861,-2.8188,-2.7625,-2.7625,-2.7625,-2.7625,-2.7625,-2.7625,-2.7625,-2.7625,-2.7625,-2.7625,-2.7625,-2.7625,-2.7625,-2.7625,-2.7625,-2.7625,-2.7625,-2.7625,-2.7625,-2.7625,-2.7625,-2.7625,-2.7625,-2.7625,-2.7625,-2.7625,-2.7625,-2.7625,-2.7625,-2.7625,-2.7625,-2.7625,-2.7625,-2.7625,-2.7625,-2.7625,-2.7625,-2.7625,-2.7565,-2.729,-2.6632,-2.6452,-2.6019,-2.4747,-2.4492,-2.4313,-2.3684,-2.3595,-2.3595,-2.3595,-2.3595,-2.3595,-2.3595,-2.3595,-2.3595,-2.3595,-2.3595,-2.3595,-2.3595,-2.3595,-2.3638,-2.3681,-2.4199,-2.4511,-2.4552,-2.554,-2.5799,-2.5259,-2.5259,-2.4989,-2.4471,-2.4471,-2.4511,-2.3492,-2.3595,-2.3595,-2.3595,-2.3595,-2.3271,-2.1989,-2.1674,-2.1312,-1.9999,-1.969,-1.969,-1.969,-1.969,-2.0213,-2.1854,-2.2111,-2.2849,-2.5107,-2.6308,-2.7392,-2.8488,-2.9733,-3.066,-3.1068,-3.1319,-3.1482,-3.1482,-3.1482,-3.1482,-3.1482,-3.1482,-3.1482,-3.1482,-3.0866,-3.0208,-2.9594,-2.8936,-2.8248,-2.7625,-2.7625,-2.7625,-2.7625,-2.7625,-2.7625,-2.7625,-2.7625,-2.7625,-2.7625,-2.7625,-2.7625,-2.7625,-2.7625,-2.7625,-2.7625,-2.7625,-2.7625,-2.7625,-2.7625,-2.7625,-2.7625,-2.7625,-2.7625,-2.7625,-2.7625,-2.7625,-2.7625,-2.7625,-2.7625,-2.7625,-2.7625,-2.7625,-2.7625,-2.7625,-2.7625,-2.7625,-2.7625,-2.7625,-2.743,-2.6722,-2.6587,-2.6168,-2.4852,-2.4582,-2.4343,-2.3699,-2.3595,-2.3595,-2.3595,-2.3595,-2.3595,-2.3595,-2.3595,-2.3595,-2.3595,-2.3595,-2.3595,-2.3595,-2.3595,-2.3595,-2.3595,-2.4116,-2.4389,-2.4389,-2.5144,-2.5259,-2.4712,-2.4712,-2.443,-2.3921,-2.3921,-2.4074,-2.3198,-2.3477,-2.3595,-2.3595,-2.3477,-2.3066,-2.1975,-2.156,-2.1101,-1.9933,-1.969,-1.969,-1.969,-1.969,-2.008,0.0,-2.1582,-2.2381,-2.4339,-2.5774,-2.7107,-2.8427,-2.9594,-3.0492,-3.1165,-3.1362,-3.1482,-3.1482,-3.1482,-3.1482,-3.1482,-3.1482,-3.1482,-3.1482,-3.0866,-3.0208,-2.9594,-2.8936,-2.8248,-2.7625,-2.7625,-2.7625,-2.7625,-2.7625,-2.7625,-2.7625,-2.7625,-2.7625,-2.7625,-2.7625,-2.7625,-2.7625,-2.7625,-2.7625,-2.7625,-2.7625,-2.7625,-2.7625,-2.7625,-2.7625,-2.7625,-2.7625,-2.7625,-2.7625,-2.7625,-2.7625,-2.7625,-2.7625,-2.7625,-2.7625,-2.7625,-2.7625,-2.7625,-2.7625,-2.7625,-2.7625,-2.7625,-2.7625,-2.749,-2.6976,-2.6886,-2.6527,-2.5405,-2.5211,-2.4971,-2.4298,-2.4029,-2.3909,-2.3909,-2.3729,-2.3595,-2.3595,-2.3595,-2.3595,-2.3595,-2.3595,-2.3595,-2.3595,-2.3595,-2.3595,-2.3595,-2.3948,-2.4158,-2.4158,-2.4712,-2.4712,-2.4142,-2.4307,-2.4116,-2.3595,-2.3595,-2.3794,-2.2701,-2.3169,-2.3595,-2.3595,-2.3169,-2.2555,-2.1874,-2.1193,-2.0533,-1.9837,-1.969,-1.969,-1.969,-1.969,-1.9933,-2.0594,-2.1252,-2.2367,-2.4342,-2.5745,-2.7092,-2.842,-2.919,-2.9834,-3.0447,-3.1135,-3.1482,-3.1482,-3.1482,-3.1482,-3.1482,-3.1482,-3.1482,-3.1482,-3.0866,-3.0208,-2.9594,-2.8936,-2.8248,-2.7625,-2.7625,-2.7625,-2.7625,-2.7625,-2.7625,-2.7625,-2.7625,-2.7625,-2.7625,-2.7625,-2.7625,-2.7625,-2.7625,-2.7625,-2.7625,-2.7625,-2.7625,-2.7625,-2.7625,-2.7625,-2.7625,-2.7625,-2.7625,-2.7625,-2.7625,-2.7625,-2.7625,-2.7625,-2.7625,-2.7625,-2.7625,-2.7625,-2.7625,-2.7625,-2.7625,-2.7625,-2.7625,-2.7625,-2.7625,-2.761,-2.761,-2.735,-2.6692,-2.6572,-2.6348,-2.5689,-2.5031,-2.4567,-2.4567,-2.4029,-2.3595,-2.3595,-2.3595,-2.3595,-2.3595,-2.3595,-2.3595,-2.3595,-2.3595,-2.3595,-2.3595,-2.3595,-2.3595,-2.3595,-2.4158,-2.4142,-2.3595,-2.4158,-2.4116,-2.3595,-2.3595,-2.3595,-2.1898,-2.2178,-2.2294,-2.2294,-2.2178,-2.1841,-2.1153,-2.0827,-2.0497,-1.9837,-1.969,-1.969,-1.969,-1.969,-2.0243,-2.1798,-2.2243,-2.3069,-2.5014,-2.6415,-2.7629,-2.8502,-2.9968,-3.0986,-3.118,-3.1347,-3.1482,-3.1482,-3.1482,-3.1482,-3.1482,-3.1482,-3.1315,-3.0851,-3.0612,-2.9998,-2.8921,-2.9146,-2.8697,-2.7625,-2.8502,-2.8712,-2.8278,-2.8278,-2.8278,-2.8248,-2.7784,-2.7625,-2.7625,-2.7625,-2.7625,-2.7625,-2.7625,-2.7625,-2.7625,-2.7625,-2.7625,-2.7625,-2.7625,-2.7625,-2.7625,-2.7625,-2.7625,-2.7625,-2.7625,-2.7625,-2.7625,-2.7625,-2.7625,-2.7625,-2.7625,-2.7625,-2.7625,-2.7625,-2.7625,-2.7625,-2.7625,-2.7625,-2.7625,-2.7625,-2.7625,-2.7415,-2.6707,-2.6587,-2.6363,-2.5704,-2.5435,-2.5136,-2.4642,-2.4388,-2.4118,-2.3655,-2.3595,-2.3595,-2.3595,-2.3595,-2.3595,-2.3595,-2.3595,-2.3595,-2.3595,-2.3595,-2.3595,-2.3595,-2.3752,-2.3752,-2.3595,-2.3752,-2.3752,-2.3595,-2.3595,-2.3595,-2.1129,-2.1514,-2.1713,-2.1713,-2.1514,-2.1213,-2.078,-2.0482,-2.0192,-1.9771,-1.969,-1.969,-1.969,-1.969,-2.0206,-2.1706,-2.2165,-2.3005,-2.494,-2.6378,-2.7634,-2.8831,-3.0253,-3.115,-3.115,-3.1317,-3.1482,-3.1482,-3.1482,-3.1482,-3.1482,-3.1482,-3.121,-3.0522,-3.0761,-3.0268,-2.8981,-2.937,-2.9026,-2.7979,-2.8801,-2.9131,-2.8966,-2.8712,-2.8607,-2.8562,-2.7874,-2.7625,0.0,-2.7625,-2.7625,-2.7625,-2.7625,-2.7625,-2.7625,-2.7625,-2.7625,-2.7625,-2.7625,-2.7625,-2.7625,-2.7625,-2.7625,-2.7625,-2.7625,-2.7625,-2.7625,-2.7625,-2.7625,-2.7625,-2.7625,-2.7625,-2.7625,-2.7625,-2.7625,-2.7625,-2.7625,-2.7625,-2.7625,-2.7625,-2.7625,-2.749,-2.7036,-2.6961,-2.6826,-2.6408,-2.6138,-2.5749,-2.5076,-2.4746,-2.4313,-2.367,-2.3595,-2.3595,-2.3595,-2.3595,-2.3595,-2.3595,-2.3595,-2.3595,-2.3595,-2.3595,-2.3595,-2.3595,-2.3595,-2.3595,-2.3595,-2.3595,-2.3595,-2.3595,-2.3595,-2.3595,0.0,-2.1101,-2.1574,-2.1574,-2.1101,-2.0645,-2.0645,-2.0125,0.0,-1.969,-1.969,-1.9705,-1.975,-1.9765,-2.0034,-2.0795,-2.1476,-2.2577,-2.4448,-2.5899,-2.744,-2.9355,-3.0088,-3.0432,-3.0432,-3.1016,-3.1332,-3.1332,-3.1332,-3.1362,-3.1465,-3.1407,-3.1195,-3.0597,-3.121,-3.0911,-2.9594,-2.9579,-2.925,-2.8607,-2.8652,-2.8966,-2.949,-2.8876,-2.8607,-2.8562,-2.7874,-2.7625,-2.7625,-2.7625,-2.7625,-2.7625,-2.7625,-2.7625,-2.7625,-2.7625,-2.7625,-2.7625,-2.7625,-2.7625,-2.7625,-2.7625,-2.7625,-2.7625,-2.7625,-2.7625,-2.7625,-2.7625,-2.7625,-2.7625,-2.7625,-2.7625,-2.7625,-2.7625,-2.7625,-2.7625,-2.7625,-2.7625,-2.7625,-2.7625,-2.7625,-2.7625,-2.7625,-2.7625,-2.7625,-2.7625,-2.7051,-2.6408,-2.5689,-2.5076,-2.4388,-2.3744,-2.367,-2.367,-2.367,-2.3625,-2.3595,-2.3595,-2.3595,-2.3595,-2.3595,-2.3595,-2.3595,-2.3595,-2.3595,-2.3595,-2.3595,-2.3595,-2.3595,-2.3595,-2.3595,-2.3595,-1.9903,0.0,-2.0177,-2.0177,-2.0029,-1.9933,0.0,-1.9822,-1.969,0.0,0.0,-1.9869,-2.0363,-2.0475,-2.1021,-2.2626,-2.3462,-2.4462,-2.5914,-2.7275,-2.8487,-2.946,-2.9714,-2.9804,-2.9804,-2.9939,-3.0043,-3.0043,-3.0043,-3.0253,-3.0717,-3.0746,-3.0911,-3.1228,-3.1392,-3.0911,-2.9594,-2.9579,-2.925,-2.8607,-2.9116,-2.916,-2.8831,-2.8667,-2.8607,-2.8562,-2.7874,-2.7625,-2.7625,-2.7625,-2.7625,-2.7625,-2.7625,-2.7625,-2.7625,-2.7625,-2.7625,-2.7625,-2.7625,-2.7625,-2.7625,-2.7625,-2.7625,-2.7625,-2.7625,-2.7625,-2.7625,-2.7625,-2.7625,-2.7625,-2.7625,-2.7625,-2.7625,-2.7625,-2.7625,-2.7625,-2.7625,-2.7625,-2.7625,-2.7625,-2.7625,-2.7625,-2.7625,-2.7625,-2.7625,-2.7625,-2.749,-2.6916,-2.5749,-2.548,-2.5121,-2.4462,-2.4343,-2.4343,-2.4343,-2.3909,-2.3595,-2.3595,-2.3595,-2.3595,-2.3595,-2.3595,-2.3595,-2.3595,-2.3595,-2.3595,-2.3595,-2.3595,-2.3595,-2.3595,-2.3595,-2.3595,-1.969,-1.969,-1.969,-1.969,-1.969,-1.969,-1.969,0.0,0.0,0.0,0.0,-1.9899,-2.0594,-2.0699,-2.135,-2.3281,-2.3909,-2.4822,-2.6767,-2.7949,-2.8846,-2.9505,-2.9579,-2.9579,-2.9579,-2.9579,-2.9579,-2.9579,-2.9579,-2.9729,-3.0058,-3.0088,-3.0253,-3.0627,-3.0911,-3.0717,-3.0013,-2.9729,-2.94,-2.9056,-2.9101,-2.9101,-2.9041,-2.8742,-2.8607,-2.8562,-2.7874,-2.7625,-2.7625,-2.7625,-2.7625,-2.7625,-2.7625,-2.7625,-2.7625,-2.7625,-2.7625,-2.7625,-2.7625,-2.7625,-2.7625,-2.7625,-2.7625,-2.7625,-2.7625,-2.7625,-2.7625,-2.7625,-2.7625,-2.7625,-2.7625,-2.7625,-2.7625,-2.7625,-2.7625,-2.7625,-2.7625,-2.7625,-2.7625,-2.7625,-2.7625,-2.7625,-2.7625,-2.7625,-2.7625,-2.7625,-2.7625,-2.72,-2.6183,-2.5794,-2.548,-2.5121,-2.4761,-2.4582,-2.4582,-2.4283,-2.3939,-2.3625,-2.3595,-2.3595,-2.3595,-2.3595,-2.3595,-2.3595,-2.3595,-2.3595,-2.3595,-2.3595,-2.3595,-2.3595,-2.3595,-2.3595,-1.9594,-1.9657,-1.9689,-1.9707,-1.969,-1.969,-1.969,0.0,0.0,0.0,0.0,0.0,0.0,-2.0946,0.0,-2.346,-2.3924,-2.4881,-2.7295,-2.8068,-2.8652,-2.9205,-2.9265,-2.9265,-2.9265,-2.9265,-2.9265,-2.9265,-2.9265,-2.9325,-2.943,-2.943,-2.9475,-2.9579,-3.0088,-3.0357,-3.0357,-2.9849,-2.9579,-2.9564,-2.8801,-2.8786,-2.94,-2.8742,-2.8442,-2.8412,-2.7829,-2.7625,-2.7625,-2.7625,-2.7625,-2.7625,-2.7625,-2.7625,-2.7625,-2.7625,-2.7625,-2.7625,-2.7625,-2.7625,-2.7625,-2.7625,-2.7625,-2.7625,-2.7625,-2.7625,-2.7625,-2.7625,-2.7625,-2.7625,-2.7625,-2.7625,-2.7625,-2.7625,-2.7625,-2.7625,-2.7625,-2.7625,-2.7625,-2.7625,-2.7625,-2.7625,-2.7625,-2.7625,-2.7625,-2.7625,-2.7625,-2.7335,-2.6677,-2.6093,-2.5749,-2.5749,-2.5255,-2.4926,-2.4926,-2.4926,-2.4597,-2.3804,-2.3655,-2.3595,-2.3595,-2.3595,-2.3551,-2.3465,-2.3465,-2.3406,-2.3319,-2.3406,-2.3465,-2.3465,-2.3465,-2.3465,-1.9146,-1.9348,-1.9727,-1.9695,-1.969,-1.969,-1.969,0.0,0.0,0.0,0.0,0.0,0.0,-2.1994,-2.2832,-2.4238,-2.5405,-2.6467,-2.749,-2.7715,-2.7769,-2.791,-2.7925,-2.7925,-2.7925,-2.7925,-2.7925,-2.7925,-2.7925,-2.8128,-2.8727,-2.8742,-2.9011,-2.9564,-2.9669,-2.9729,-2.9729,-2.9624,-2.9579,-2.9564,-2.8323,-2.8083,-2.8727,-2.8038,-2.7724,-2.7775,-2.767,-2.7625,-2.7625,-2.7625,-2.7625,-2.7625,-2.7625,-2.7625,-2.7625,-2.7625,-2.7625,-2.7625,-2.7625,-2.7625,-2.7625,-2.7625,-2.7625,-2.7625,-2.7625,-2.7625,-2.7625,-2.7625,-2.7625,-2.7625,-2.7625,-2.7625,-2.7625,-2.7625,-2.7625,-2.7625,-2.7625,-2.7625,-2.7625,-2.7625,-2.7625,-2.7625,-2.7625,-2.7625,-2.7625,-2.7625,-2.7625,-2.7335,-2.6677,-2.6497,-2.6437,-2.6437,-2.6348,-2.6288,-2.6288,-2.6288,-2.5764,-2.4507,-2.3924,-2.3595,-2.3595,-2.3595,-2.3377,-2.2844,-2.2844,-2.2543,-2.1979,-2.2543,-2.2844,-2.2844,-2.2844,-2.2844,-1.9241,-1.928,-1.9282,-1.9276,-1.9509,-1.9655,-1.9329,0.0,0.0,0.0,0.0,0.0,0.0,-2.2503,-2.3729,-2.542,-2.6497,-2.723,-2.758,-2.7625,-2.7625,-2.7625,-2.7625,-2.7625,-2.7625,-2.7625,-2.7625,-2.7625,-2.7625,-2.7709,-2.8023,-2.8038,-2.8188,-2.8487,-2.8861,-2.8876,-2.8502,-2.8861,-2.9056,-2.9041,-2.8053,-2.7739,-2.8038,-2.7724,-2.7625,-2.7625,-2.7625,-2.7625,-2.7625,-2.7625,-2.7625,-2.7625,-2.7625,-2.7625,-2.7625,-2.7625,-2.7625,-2.7625,-2.7625,-2.7625,-2.7625,-2.7625,-2.7625,-2.7625,-2.7625,-2.7625,-2.7625,-2.7625,-2.7625,-2.7625,-2.7625,-2.7625,-2.7625,-2.7625,-2.7625,-2.7625,-2.7625,-2.7625,-2.7625,-2.7625,-2.7625,-2.7625,-2.7625,-2.7625,-2.7625,-2.7625,-2.7625,-2.7505,-2.7156,-2.6811,-2.6722,-2.7081,-2.6797,-2.6587,-2.6587,-2.6587,-2.6033,-2.4672,-2.3984,-2.3595,-2.3595,-2.329,-2.2965,-2.2694,-2.2346,-2.1993,-2.1697,-2.2346,-2.2498,-2.2146,-2.2543,-2.2498,-1.8812,-1.8939,-1.8818,-1.8436,0.0,-1.9297,-1.8987,0.0,0.0,0.0,0.0,0.0,0.0,-2.2642,-2.4187,-2.6046,-2.676,-2.7071,-2.7071,-2.724,-2.7357,-2.7357,-2.7509,-2.7625,-2.7625,-2.7625,-2.7625,-2.7625,-2.7625,-2.7625,-2.7625,-2.7625,-2.7625,-2.7625,-2.8083,-2.8113,-2.7625,-2.8098,-2.8442,-2.8592,-2.7904,-2.77,-2.7814,-2.7685,-2.7625,-2.7625,-2.7625,-2.7625,-2.7625,-2.7625,-2.7625,-2.7625,-2.7625,-2.7625,-2.7625,-2.7625,-2.7625,-2.7625,-2.7625,-2.7625,-2.7625,-2.7625,-2.7625,-2.7625,-2.7625,-2.7625,-2.7625,-2.7625,-2.7625,-2.7625,-2.7625,-2.7625,-2.7625,-2.7625,-2.7625,-2.7625,-2.7625,-2.7625,-2.7625,-2.7625,-2.7625,-2.7625,-2.7625,-2.7625,-2.7625,-2.7625,-2.7625,-2.7625,-2.7625,-2.7126,-2.6961,-2.7355,-2.7036,-2.6762,-2.6614,-2.6445,-2.5834,-2.4667,-2.3837,-2.3377,-2.3377,-2.2934,-2.2558,-2.2267,-2.1771,-2.1424,-2.128,-2.1927,-2.1974,-2.152,-2.2021,-2.1974,-1.6964,-1.7771,-1.8555,-1.7055,0.0,0.0,-1.8796,-1.892,0.0,-1.9732,0.0,0.0,0.0,-2.2374,-2.4044,-2.5351,-2.559,-2.5563,-2.5563,-2.6176,-2.6563,-2.6563,-2.7188,-2.7625,-2.7625,-2.7625,-2.7625,-2.7625,-2.7625,-2.7625,-2.7625,-2.7625,-2.7625,-2.7625,-2.767,-2.767,-2.7625,-2.767,-2.7964,-2.8592,-2.7904,-2.7904,-2.8502,-2.7859,-2.7625,-2.7625,-2.7625,-2.7625,-2.7625,-2.7625,-2.7625,-2.7625,-2.7625,-2.7625,-2.7625,-2.7625,-2.7625,-2.7625,-2.7625,-2.7625,-2.7625,-2.7625,-2.7625,-2.7625,-2.7625,-2.7625,-2.7625,-2.7625,-2.7625,-2.7625,-2.7625,-2.7625,-2.7625,-2.7625,-2.7625,-2.7625,-2.7625,-2.7625,-2.7625,-2.7625,-2.7625,-2.7625,-2.7625,-2.7625,-2.7625,-2.7625,-2.7625,-2.7625,-2.7625,-2.758,-2.729,-2.6722,-2.7171,-2.7232,-2.6544,-2.5973,-2.5331,-2.4572,-2.3418,-2.274,-2.274,-2.274,-2.2128,-2.0944,-2.0894,-2.0547,-1.994,-2.0597,-2.0894,-2.0845,-2.0894,-2.0894,-1.6821,-1.7424,-1.7763,-1.7154,0.0,0.0,0.0,0.0,-1.9264,-2.0207,-2.0422,0.0,0.0,-2.2542,-2.3402,-2.4679,-2.5146,-2.5398,-2.5398,-2.5618,-2.6014,-2.6457,-2.6774,-2.71,-2.7575,-2.7625,-2.7625,-2.7625,-2.7625,-2.7625,-2.7625,-2.7625,-2.7625,-2.7625,-2.7625,-2.7625,-2.7625,-2.7625,-2.7745,-2.7964,-2.7694,-2.7709,-2.7949,-2.7745,-2.7625,-2.7625,-2.7625,-2.7625,-2.7625,-2.7625,-2.7625,-2.7625,-2.7625,-2.7625,-2.7625,-2.7625,-2.7625,-2.7625,-2.7625,-2.7625,-2.7625,-2.7625,-2.7625,-2.7625,-2.7625,-2.7625,-2.7625,-2.7625,-2.7625,-2.7625,-2.7625,-2.7625,-2.7625,-2.7625,-2.7625,-2.7625,-2.7625,-2.7625,-2.7625,-2.7625,-2.7625,-2.7625,-2.7625,-2.7625,-2.7625,-2.7625,-2.7625,-2.7625,-2.7625,-2.7625,-2.752,-2.723,-2.7056,-2.6826,-2.651,-2.5089,-2.417,-2.396,-2.3165,-2.2694,-2.2694,-2.1941,-2.1272,-2.0795,-2.0396,-2.0055,-1.9798,-2.0446,-2.0597,-2.0207,-2.0597,-2.0597,-1.6271,-1.6917,-1.7271,0.0,0.0,0.0,0.0,0.0,-1.9056,-2.0254,-2.0497,-2.0867,-2.2142,-2.2286,-2.2655,-2.3933,-2.4433,-2.4654,-2.4654,-2.4894,-2.5231,-2.5728,-2.6229,-2.6721,-2.7188,-2.7458,-2.7625,-2.7625,-2.7625,-2.7625,-2.7625,-2.7625,-2.7625,-2.7625,-2.7625,-2.7625,-2.7625,-2.7625,-2.7625,-2.7625,-2.7625,-2.7625,-2.7625,-2.7625,-2.7625,-2.7625,-2.7625,-2.7625,-2.7625,-2.7625,-2.7625,-2.7625,-2.7625,-2.7625,-2.7625,-2.7625,-2.7625,-2.7625,-2.7625,-2.7625,-2.7625,-2.7625,-2.7625,-2.7625,-2.7625,-2.7625,-2.7625,-2.7625,-2.7625,-2.7625,-2.7625,-2.7625,-2.7625,-2.7625,-2.7625,-2.7625,-2.7625,-2.7625,-2.7625,-2.7625,-2.7625,-2.7625,-2.7625,-2.7625,-2.7625,-2.7625,-2.7625,-2.7625,-2.7625,-2.7625,-2.7524,-2.7306,-2.6637,-2.6054,-2.5823,-2.4546,-2.3568,-2.3253,-2.2657,-2.2292,-2.2095,-2.1272,-2.0696,-2.0497,-2.0055,-1.9798,-1.9798,-2.0258,-2.0258,-1.9798,-2.0258,-2.0258,-1.5044,-1.6059,-1.7146,0.0,0.0,0.0,-1.8078,-1.8204,-1.8518,-1.9585,-1.9798,-2.0168,-2.1342,-2.1514,-2.1868,-2.3054,-2.3193,-2.3053,-2.3053,-2.3767,-2.4279,-2.4279,-2.5618,-2.651,-2.651,-2.7152,-2.7625,-2.7625,-2.7625,-2.7625,-2.7625,-2.7625,-2.7625,-2.7625,-2.7625,-2.7625,-2.7625,-2.7625,-2.7625,-2.7625,-2.7625,-2.7625,-2.7625,-2.7625,-2.7625,-2.7625,-2.7625,-2.7625,-2.7625,-2.7625,-2.7625,-2.7625,-2.7625,-2.7625,-2.7625,-2.7625,-2.7625,-2.7625,-2.7625,-2.7625,-2.7625,-2.7625,-2.7625,-2.7625,-2.7625,-2.7625,-2.7625,-2.7625,-2.7625,-2.7625,-2.7625,-2.7625,-2.7625,-2.7625,-2.7625,-2.7625,-2.7625,-2.7625,-2.7625,-2.7625,-2.7625,-2.7625,-2.7625,-2.7625,-2.7625,-2.7625,-2.7625,-2.7625,-2.7625,-2.7625,-2.7306,-2.6563,-2.592,-2.5149,-2.4355,-2.4326,-2.3824,-2.2456,-2.1891,-2.1365,-2.0822,-2.0795,-2.0497,-1.9798,-1.9798,-1.9798,-1.9798,-1.9798,-1.9798,-1.9798,-1.9798,-1.9798,-1.4841,-1.5499,0.0,-1.6464,0.0,0.0,0.0,-1.8505,0.0,0.0,-1.9798,-1.99,-2.0271,-2.0673,-2.1062,-2.1431,-2.1774,-2.197,-2.197,-2.247,-2.3116,-2.3602,-2.4915,-2.596,-2.6457,-2.7152,-2.7625,-2.7625,-2.7625,-2.7625,-2.7625,-2.7625,-2.7625,-2.7625,-2.7625,-2.7625,-2.7625,-2.7625,-2.7625,-2.7625,-2.7625,-2.7625,-2.7625,-2.7625,-2.7625,-2.7625,-2.7625,-2.7625,-2.7625,-2.7625,-2.7625,-2.7625,-2.7625,-2.7625,-2.7625,-2.7625,-2.7625,-2.7625,-2.7625,-2.7625,-2.7625,-2.7625,-2.7625,-2.7625,-2.7625,-2.7625,-2.7625,-2.7625,-2.7625,-2.7625,-2.7625,-2.7625,-2.7625,-2.7625,-2.7625,-2.7625,-2.7625,-2.7625,-2.7625,-2.7625,-2.7625,-2.7625,-2.7625,-2.7625,-2.7625,-2.7625,-2.7625,-2.7625,-2.7625,-2.7625,-2.7306,-2.6563,-2.583,-2.5136,-2.4381,-2.3774,-2.3148,-2.2369,-2.1809,-2.1326,-2.0835,-2.0359,-2.0003,-1.9798,-1.9798,-1.9798,-1.9798,-1.9798,-1.9798,-1.9798,-1.9798,-1.9798,-1.5053,-1.5605,0.0,-1.6434,-1.72,-1.799,-1.843,0.0,0.0,0.0,-1.9798,-1.9874,-2.01,-2.0426,-2.0794,-2.0953,-2.128,-2.1493,-2.1493,-2.1782,-2.2141,-2.2566,-2.379,-2.4915,-2.5618,-2.6614,-2.7306,-2.7575,-2.7625,-2.7625,-2.7625,-2.7625,-2.7625,-2.7625,-2.7625,-2.7625,-2.7625,-2.7625,-2.7625,-2.7625,-2.7625,-2.7625,-2.7625,-2.7625,-2.7625,-2.7625,-2.7625,-2.7625,-2.7625,-2.7625,-2.7625,-2.7625,-2.7625,-2.7625,-2.7625,-2.7625,-2.7625,-2.7625,-2.7625,-2.7625,-2.7625,-2.7625,-2.7625,-2.7625,-2.7625,-2.7625,-2.7625,-2.7625,-2.7625,-2.7625,-2.7625,-2.7625,-2.7625,-2.7625,-2.7625,-2.7625,-2.7625,-2.7625,-2.7625,-2.7625,-2.7625,-2.7625,-2.7625,-2.7625,-2.7625,-2.7625,-2.7625,-2.7625,-2.7625,-2.7625,-2.7188,-2.6176,-2.5673,-2.4951,-2.3884,-2.3365,-2.2899,-2.2347,-2.1794,-2.1297,-2.0797,-2.013,-1.9798,-1.9798,-1.9798,-1.9798,-1.9798,-1.9798,-1.9798,-1.9798,-1.9798,-1.9798,-1.548,0.0,0.0,-1.6509,-1.6948,0.0,-1.8719,-1.9359,-1.9748,-1.9798,-1.9798,-1.9962,-2.0542,-2.0643,-2.0752,-2.1255,-2.1343,-2.1343,-2.1343,-2.138,-2.1418,-2.1418,-2.2532,-2.3565,-2.4255,-2.5533,-2.6582,-2.7253,-2.7429,-2.7509,-2.7509,-2.756,-2.7625,-2.7625,-2.7625,-2.7625,-2.7625,-2.7625,-2.7625,-2.7625,-2.7625,-2.7625,-2.7625,-2.7625,-2.7625,-2.7625,-2.7625,-2.7625,-2.7625,-2.7625,-2.7625,-2.7625,-2.7625,-2.7625,-2.7625,-2.7625,-2.7625,-2.7625,-2.7625,-2.7625,-2.7625,-2.7625,-2.7625,-2.7625,-2.7625,-2.7625,-2.7625,-2.7625,-2.7625,-2.7625,-2.7625,-2.7625,-2.7625,-2.7625,-2.7625,-2.7625,-2.7625,-2.7625,-2.7625,-2.7625,-2.7625,-2.7625,-2.7625,-2.7625,-2.7575,-2.7524,-2.7509,-2.7458,-2.7408,-2.7408,-2.6864,-2.5453,-2.5287,-2.4724,-2.3245,-2.3078,-2.2865,-2.2422,-2.182,-2.1267,-2.0819,-2.0137,-1.9798,-1.9798,-1.9798,-1.9798,-1.9798,-1.9798,-1.9798,-1.9798,-1.9798,-1.9798,-1.5054,-1.5442,0.0,0.0,-1.6948,-1.7551,-1.8229,-1.8807,-1.9309,-1.971,-1.9798,-1.9836,-1.9962,-1.9987,-2.0024,-2.015,-2.0162,-2.0162,-2.0162,-2.0552,-2.084,-2.084,-2.2003,-2.2803,-2.3018,-2.4187,-2.4973,-2.5131,-2.6141,-2.6721,-2.6721,-2.7306,-2.7625,-2.7625,-2.7625,-2.7625,-2.7625,-2.7625,-2.7625,-2.7625,-2.7625,-2.7625,-2.7625,-2.7625,-2.7625,-2.7625,-2.7625,-2.7625,-2.7625,-2.7625,-2.7625,-2.7625,-2.7625,-2.7625,-2.7625,-2.7625,-2.7625,-2.7625,-2.7625,-2.7625,-2.7625,-2.7625,-2.7625,-2.7625,-2.7625,-2.7625,-2.7625,-2.7625,-2.7625,-2.7625,-2.7625,-2.7625,-2.7625,-2.7625,-2.7625,-2.7625,-2.7625,-2.7625,-2.7625,-2.7625,-2.7625,-2.7625,-2.7625,-2.7625,-2.7408,-2.6826,-2.6721,-2.6549,-2.5946,-2.5892,-2.555,-2.4624,-2.4509,-2.4176,-2.3185,-2.3078,-2.3027,-2.2962,-2.2033,-2.1443,-2.1317,-2.0338,-1.9798,-1.9798,-1.9798,-1.9798,-1.9798,-1.9798,-1.9798,-1.9798,-1.9798,-1.9798,0.0,0.0,0.0,-1.6446,0.0,-1.7451,-1.7739,-1.8242,-1.8706,-1.8982,-1.9447,-1.9798,-1.9798,-1.9798,-1.9798,-1.9798,-1.9798,-1.9798,-1.9798,-2.0062,-2.025,-2.025,-2.1102,-2.181,-2.2154,-2.3044,-2.3753,-2.4069,-2.5351,-2.6087,-2.6116,-2.7077,-2.7625,-2.7625,-2.7625,-2.7625,-2.7625,-2.7625,-2.7625,-2.7625,-2.7625,-2.7625,-2.7625,-2.7625,-2.7625,-2.7625,-2.7625,-2.7625,-2.7625,-2.7625,-2.7625,-2.7625,-2.7625,-2.7625,-2.7625,-2.7625,-2.7625,-2.7625,-2.7625,-2.7625,-2.7625,-2.7625,-2.7625,-2.7625,-2.7625,-2.7625,-2.7625,-2.7625,-2.735,-2.7096,-2.7096,-2.7096,-2.7021,-2.6707,-2.7111,-2.7625,-2.7625,-2.7625,-2.7535,-2.7156,-2.74,-2.752,-2.7156,-2.7415,-2.7357,-2.6616,-2.651,-2.6229,-2.5508,-2.5398,-2.5119,-2.4408,-2.4292,-2.3943,-2.3198,-2.3078,-2.2965,-2.2761,-2.1945,-2.1368,-2.1104,-2.0263,-1.9798,-1.9798,-1.9798,-1.9798,-1.9798,-1.9798,-1.9798,-1.9798,-1.9798,-1.9798,0.0,0.0,-1.6396,-1.6497,-1.6886,0.0,-1.7237,-1.7664,-1.8066,-1.8066,-1.8844,-1.9522,-1.9522,-1.961,-1.966,-1.966,-1.9748,-1.9798,-1.9798,-1.9798,-1.9798,-1.9798,-2.0225,-2.0767,-2.1405,-2.1931,-2.2525,-2.3139,-2.4376,-2.5197,-2.5494,-2.6629,-2.7339,-2.756,-2.7505,-2.7455,-2.7625,-2.7505,-2.7405,-2.7408,-2.7408,-2.7458,-2.7625,-2.7458,-2.7458,-2.7625,-2.7625,-2.7625,-2.7625,-2.7625,-2.7625,-2.7625,-2.7625,-2.7625,-2.7625,-2.7625,-2.7625,-2.7625,-2.7625,-2.7625,-2.7625,-2.7625,-2.7625,-2.7625,-2.7625,-2.7625,-2.7625,-2.7625,-2.7096,-2.6587,-2.6587,-2.6497,-2.6288,-2.5734,-2.6437,-2.726,-2.743,-2.7445,-2.7245,-2.6692,-2.6882,-2.6902,-2.6351,-2.6708,-2.6893,-2.6203,-2.6112,-2.5844,-2.4955,-2.4939,-2.4741,-2.4032,-2.4053,-2.3826,-2.3138,-2.3078,-2.2899,-2.2347,-2.1794,-2.1242,-2.0743,-2.0112,-1.9798,-1.9798,-1.9798,-1.9798,-1.9798,-1.9798,-1.9798,-1.9798,-1.9798,-1.9798,0.0,0.0,-1.5919,0.0,-1.6572,-1.6635,0.0,-1.7074,-1.7488,-1.7488,-1.799,-1.8417,-1.8417,-1.8807,-1.9133,-1.9133,-1.951,-1.9798,-1.9798,-1.9798,-1.9798,-1.9798,-1.9874,-1.9963,-2.0066,-2.0585,-2.098,-2.1074,-2.226,-2.3485,-2.459,-2.5463,-2.6461,-2.756,-2.7021,-2.6991,-2.756,-2.7006,-2.6692,-2.6669,-2.6669,-2.6982,-2.7575,-2.693,-2.6982,-2.7625,-2.7625,-2.7625,-2.7625,-2.7625,-2.7625,-2.7625,-2.7625,-2.7625,-2.7625,-2.7625,-2.7625,-2.7625,-2.7625,-2.7625,-2.7625,-2.7625,-2.7625,-2.7625,-2.7625,-2.7625,-2.7625,-2.7625,-2.7096,-2.6587,-2.6587,-2.6168,-2.5719,-2.563,-2.5749,-2.6033,-2.6602,-2.6722,-2.6692,-2.6602,-2.5781,-2.5058,-2.497,-2.5028,-2.5013,-2.4713,-2.4676,-2.4205,-2.286,-2.3119,-2.3175,-2.2647,-2.2968,-2.3185,-2.3138,-2.3078,-2.2899,-2.2347,-2.1794,-2.1242,-2.0743,-2.0112,-1.9798,-1.9798,-1.9798,-1.9798,-1.9798,-1.9798,-1.9798,-1.9798,-1.9798,-1.9798,-1.484,-1.5076,-1.5308,0.0,-1.5732,-1.5567,-1.592,-1.6191,-1.6463,-1.6854,-1.7087,-1.7451,-1.8091,-1.8405,-1.8568,-1.8568,-1.902,-1.9371,-1.9371,-1.9623,-1.9798,-1.9798,-1.9798,-1.9798,-1.9798,-2.0037,-2.0188,-2.0188,-2.1407,-2.2404,-2.2972,-2.4346,-2.5243,-2.5401,-2.5815,-2.6024,-2.5982,-2.5956,-2.617,-2.651,-2.651,-2.6878,-2.7575,-2.6826,-2.6878,-2.7575,-2.7152,-2.7203,-2.7625,-2.7625,-2.7625,-2.7625,-2.7625,-2.7625,-2.7625,-2.7625,-2.7625,-2.7625,-2.7625,-2.7625,-2.7625,-2.7625,-2.7625,-2.7625,-2.7625,-2.7625,-2.7625,-2.7625,-2.6841,-2.6033,-2.6033,-2.5555,-2.4956,-2.4582,-2.4534,-2.464,-2.4919,-2.5527,-2.6033,-2.6033,-2.4993,-2.437,-2.5085,-2.4936,-2.4519,-2.4038,-2.3975,-2.3447,-2.2002,-2.2334,-2.2585,-2.2334,-2.2811,-2.3078,-2.3078,-2.3078,-2.2761,-2.1907,-2.1619,-2.1091,-2.0213,-1.9936,-1.9798,-1.9798,-1.9798,-1.9798,-1.9798,-1.9798,-1.9798,-1.9798,-1.9798,-1.9798,0.0,0.0,-1.4905,-1.5322,-1.5138,-1.5017,-1.532,-1.5365,-1.5543,-1.6151,-1.6281,-1.6585,-1.7568,-1.789,-1.8003,-1.8003,-1.8581,-1.8983,-1.8983,-1.9472,-1.9798,-1.9798,-1.9798,-1.9798,-1.9798,-1.9798,-1.9798,-1.9798,-2.0733,-2.1444,-2.1794,-2.3178,-2.39,-2.3701,-2.4471,-2.4728,-2.4468,-2.4674,-2.5176,-2.5987,-2.5987,-2.639,-2.7019,-2.6443,-2.6496,-2.7034,-2.6669,-2.6724,-2.7104,-2.7282,-2.71,-2.6835,-2.696,-2.7137,-2.7306,-2.7306,-2.7458,-2.7625,-2.7625,-2.7625,-2.7625,-2.7625,-2.7625,-2.7625,-2.7625,-2.7625,-2.758,-2.7365,-2.6497,-2.557,-2.5405,-2.4866,-2.4283,-2.3939,-2.3642,-2.349,-2.3649,-2.4461,-2.5065,-2.4908,-2.3974,-2.3435,-2.421,-2.4009,-2.3561,-2.3122,-2.3111,-2.263,-2.1433,-2.1757,-2.2108,-2.2108,-2.2598,-2.2975,-2.3065,-2.3012,-2.2523,-2.1543,-2.1355,-2.084,-1.9849,-1.9798,-1.9798,-1.9798,-1.9798,-1.9798,-1.9798,-1.9798,-1.9798,-1.9798,-1.9798,-1.9798,0.0,-1.4513,0.0,-1.4851,-1.5199,-1.541,-1.488,-1.4744,-1.4926,-1.5543,-1.5632,-1.5832,-1.6455,-1.7049,-1.7426,-1.7426,-1.8329,-1.8983,-1.8983,-1.9472,-1.9798,-1.9798,-1.9798,-1.9798,-1.9798,-1.9798,-1.9798,-1.9798,-1.9875,-2.0476,-2.173,-2.1885,-2.2512,-2.3687,-2.3145,-2.3117,-2.3752,-2.3068,-2.3379,-2.4607,-2.4607,-2.4926,-2.5508,-2.5453,-2.5453,-2.5563,-2.6229,-2.6202,-2.572,-2.6303,-2.5806,-2.4716,-2.5273,-2.5946,-2.6563,-2.6563,-2.6982,-2.7625,-2.7625,-2.7625,-2.7625,-2.7625,-2.7625,-2.7625,-2.7625,-2.7625,-2.749,-2.6811,-2.6138,-2.5465,-2.4837,-2.4163,-2.3804,-2.4433,-2.3642,-2.291,-2.3562,-2.3768,-2.3593,-2.2986,-2.2276,-2.1623,-2.1122,-2.1023,-2.1173,-2.1627,-2.1706,-2.1459,-2.081,-2.1192,-2.1531,-2.1531,-2.202,-2.2573,-2.3027,-2.2661,-2.2108,-2.1531,-2.0991,-2.0439,-1.9823,-1.9798,-1.9798,-1.9798,-1.9798,-1.9798,-1.9798,-1.9798,-1.9798,-1.9798,-1.9798,-1.9798,0.0,0.0,0.0,-1.472,-1.4606,-1.4503,-1.4652,-1.4376,-1.4283,-1.4926,-1.532,-1.5676,-1.5864,-1.6411,-1.6823,-1.6823,-1.7476,-1.7978,-1.7978,-1.8744,-1.9309,-1.9309,-1.9597,-1.9798,-1.9798,-1.9798,-1.9798,-1.9798,-1.9798,-1.9989,-2.0489,-2.0897,-2.1191,-2.1185,-2.1762,-2.215,-2.2358,-2.2061,-2.2405,-2.3299,-2.3299,-2.3824,-2.479,-2.4299,-2.4354,-2.479,-2.4573,-2.4666,-2.4868,-2.4751,-2.4399,-2.4038,-2.4609,-2.5272,-2.5972,-2.6352,-2.6982,-2.7565,-2.7096,-2.7215,-2.755,-2.7081,-2.723,-2.7524,-2.7034,-2.6908,-2.6723,-2.5574,-2.5126,-2.482,-2.42,-2.3822,-2.3466,-2.2908,-2.208,-2.1568,-2.1786,-2.3108,-2.3963,-2.2926,-2.2161,-2.1615,-2.1424,-2.1077,-2.0875,-2.1073,-2.1112,-2.086,-2.0217,-2.0602,-2.1091,-2.1443,-2.1656,-2.2146,-2.3002,-2.2297,-2.1694,-2.1506,-2.102,-2.0401,-1.9823,-1.9798,-1.9798,-1.9798,-1.9798,-1.9798,-1.9798,-1.9798,-1.9798,-1.9798,-1.9798,-1.9798,-1.3496,0.0,0.0,0.0,-1.4312,-1.4178,-1.4343,-1.4097,-1.3909,-1.4329,-1.4732,-1.5129,-1.5543,-1.5908,-1.6238,-1.6466,-1.6999,-1.7388,-1.7388,-1.8179,-1.8819,-1.8958,-1.9334,-1.961,-1.9786,-1.9798,-1.9798,-1.9798,-1.9798,-1.9798,-1.9798,-2.0194,-2.0258,-1.9798,-2.0607,-2.104,-2.1017,-2.1017,-2.1303,-2.1981,-2.2234,-2.2738,-2.346,-2.3256,-2.3243,-2.346,-2.2784,-2.2909,-2.3576,-2.3423,-2.3076,-2.2746,-2.3286,-2.3929,-2.4629,-2.505,-2.5796,-2.6579,-2.61,-2.6381,-2.6841,-2.6408,-2.6557,-2.6852,-2.6352,-2.6094,-2.5732,-2.4589,-2.4278,-2.4128,-2.3525,-2.3642,-2.3555,-2.2035,-2.1732,-2.1613,-2.0934,-2.2295,-2.3337,-2.2259,-2.1866,-2.1554,-2.1135,-2.072,-2.0446,-2.0446,-2.0446,-2.0295,-1.985,-2.0137,-2.0589,-2.1154,-2.1204,-2.1581,-2.2498,-2.1744,-2.1204,-2.1204,-2.069,-2.02,-1.9823,-1.9798,-1.9798,-1.9798,-1.9798,-1.9798,-1.9798,-1.9798,-1.9798,-1.9798,-1.9798,-1.9798,0.0,0.0,0.0,0.0,-1.4417,-1.4627,-1.3979,-1.3805,-1.3815,-1.3815,-1.3815,-1.4179,-1.5309,-1.5588,-1.5776,-1.638,-1.6986,-1.735,-1.735,-1.784,-1.8392,-1.8883,-1.897,-1.9233,-1.9748,-1.9798,-1.9798,-1.9798,-1.9798,-1.9798,-1.9798,-1.9798,-1.9798,-1.9798,-1.9798,-1.9798,-1.9798,-1.9798,-2.0087,-2.0693,-2.1381,-2.1641,-2.1524,-2.2242,-2.2133,-2.143,-2.0957,-2.1106,-2.1769,-2.2287,-2.1783,-2.0756,-2.1255,-2.1928,-2.2605,-2.2618,-2.3496,-2.4679,-2.4664,-2.5081,-2.5615,-2.5585,-2.56,-2.5615,-2.5553,-2.5129,-2.452,-2.3817,-2.363,-2.3519,-2.2853,-2.3596,-2.4042,-2.2133,-2.2658,-2.305,-2.1162,-2.1245,-2.152,-2.093,-2.1293,-2.128,-2.0042,-1.9798,-1.9798,-1.9798,-1.9798,-1.9798,-1.9798,-1.9798,-2.0024,-2.0655,-2.0706,-2.092,-2.1443,-2.0966,-2.0706,-2.0718,-2.0125,-1.9798,-1.9798,-1.9798,-1.9798,-1.9798,-1.9798,-1.9798,-1.9798,-1.9798,-1.9798,-1.9798,-1.9798,-1.9798,-1.3023,0.0,0.0,0.0,0.0,0.0,-1.4554,-1.4496,-1.4329,-1.3909,-1.4143,-1.4422,-1.4318,-1.4994,-1.5632,-1.582,-1.6374,-1.676,-1.676,-1.725,-1.7815,-1.8367,-1.8781,-1.9233,-1.9748,-1.9798,-1.9798,-1.9798,-1.9798,-1.9798,-1.9798,-1.9798,-1.9798,-1.9798,-1.9798,-1.9798,-1.9798,-1.9798,-1.9874,-2.0037,-2.0232,-2.0536,-2.0945,-2.1148,-2.1094,-2.0891,-2.0781,-2.0585,-2.0335,-2.0488,-2.0371,-2.01,-2.0665,-2.135,-2.2048,-2.2472,-2.3496,-2.4621,-2.4158,-2.4699,-2.554,-2.5,-2.5211,-2.5411,-2.4461,-2.4083,-2.3606,-2.2001,-2.1876,-2.2311,-2.2646,-2.2255,-2.1801,-2.1704,-2.1269,-2.0716,-2.0182,-2.0584,-2.0979,-2.0845,-2.093,-2.0782,-1.994,-1.9798,-1.9798,-1.9798,-1.9798,-1.9798,-1.9798,-1.9798,-2.0024,-2.0655,-2.0288,-2.0426,-2.1405,-2.0602,-2.0225,-2.0693,-2.0125,-1.9798,-1.9798,-1.9798,-1.9798,-1.9798,-1.9798,-1.9798,-1.9798,-1.9798,-1.9798,-1.9798,-1.9798,-1.9798,0.0,0.0,0.0,-1.4664,0.0,0.0,-1.4809,-1.4733,-1.4479,-1.36,-1.3695,-1.3931,-1.3815,-1.4354,-1.4994,-1.5543,-1.5908,-1.6194,-1.6466,-1.681,-1.7225,-1.779,-1.8342,-1.8894,-1.9422,-1.9673,-1.9798,-1.9798,-1.9597,-1.9472,-1.9472,-1.9472,-1.9572,-1.9798,-1.9798,-1.9798,-1.9798,-1.9798,-1.9798,-1.9798,-1.9798,-1.9974,-2.03,-2.03,-2.03,-2.03,-2.03,-2.0112,-1.9798,-1.9798,-1.9798,-1.9836,-2.0175,-2.0603,-2.0978,-2.1316,-2.2146,-2.3042,-2.2918,-2.3519,-2.4336,-2.3953,-2.4086,-2.4195,-2.3147,-2.2665,-2.2228,-2.1055,-2.0996,-2.1534,-2.2452,-2.1927,-2.1245,-2.1615,-2.0953,-2.0144,-1.985,-2.0105,-2.0396,-2.0396,-2.0597,-2.0597,-1.9901,-1.9798,-1.9798,-1.9798,-1.9798,-1.9798,-1.9798,-1.9798,-1.9924,-2.0275,-1.9999,-2.0075,-2.0727,-2.0175,-1.9949,-2.0288,-1.9987,-1.9798,-1.9798,-1.9798,-1.9798,-1.9798,-1.9798,-1.9798,-1.9798,-1.9798,-1.9798,-1.9798,-1.9798,-1.9798,-1.4047,-1.4173,0.0,-1.5354,-1.5643,0.0,-1.4967,-1.4846,-1.4571,-1.343,-1.32,-1.3334,-1.3826,-1.3956,-1.4365,-1.541,-1.5588,-1.582,-1.6423,-1.6522,-1.6735,-1.7313,-1.7815,-1.8329,-1.8882,-1.9346,-1.9623,-1.9623,-1.9196,-1.897,-1.8983,-1.892,-1.9196,-1.9786,-1.9748,-1.9748,-1.9798,-1.9798,-1.9798,-1.9798,-1.9798,-1.9798,-1.9798,-1.9798,-1.9798,-1.9798,-1.9798,-1.9798,-1.9798,-1.9798,-1.9798,-1.9798,-1.9798,-1.9798,-1.9798,-1.9798,-2.0194,-2.0894,-2.1424,-2.2053,-2.2603,-2.2603,-2.2603,-2.2452,-2.1805,-2.121,-2.0795,-2.0696,-2.0696,-2.0993,-2.2175,-2.2007,-2.1506,-2.1568,-2.1113,-2.056,-1.9952,-1.9798,-1.9798,-1.9798,-2.0308,-2.0497,-1.9901,-1.9798,-1.9798,-1.9798,-1.9798,-1.9798,-1.9798,-1.9798,-1.9798,-1.9798,-1.9798,-1.9798,-1.9798,-1.9798,-1.9798,-1.9798,-1.9798,-1.9798,-1.9798,-1.9798,-1.9798,-1.9798,-1.9798,-1.9798,-1.9798,-1.9798,-1.9798,-1.9798,-1.9798,-1.9798,-1.4714,-1.4739,-1.4802,-1.5016,-1.5367,0.0,-1.5529,-1.5844,-1.592,-1.5231,-1.5096,-1.496,-1.4606,-1.4915,-1.532,-1.5543,-1.5588,-1.582,-1.6423,-1.6522,-1.6735,-1.7313,-1.7476,-1.7765,-1.8304,-1.8455,-1.8518,-1.8518,-1.843,-1.8555,-1.8958,-1.8606,-1.8807,-1.9773,-1.9397,-1.9384,-1.9798,-1.9798,-1.9798,-1.9798,-1.9798,-1.9798,-1.9798,-1.9798,-1.9798,-1.9798,-1.9798,-1.9798,-1.9798,-1.9798,-1.9798,-1.9798,-1.9798,-1.9798,-1.9798,-1.9798,-2.0194,-2.0795,-2.093,-2.139,-2.1899,-2.1899,-2.1899,-2.1758,-2.1161,-2.0894,-2.0696,-2.0156,-2.0003,-2.0207,-2.0993,-2.0683,-2.0283,-2.0832,-2.0497,-1.9952,-1.985,-1.9798,-1.9798,-1.9798,-1.9901,-1.9952,-1.9798,-1.9798,-1.9798,-1.9798,-1.9798,-1.9798,-1.9798,-1.9798,-1.9798,-1.9798,-1.9798,-1.9798,-1.9798,-1.9798,-1.9798,-1.9798,-1.9798,-1.9798,-1.9798,-1.9798,-1.9798,-1.9798,-1.9798,-1.9798,-1.9798,-1.9798,-1.9798,-1.9798,-1.9798,-1.9798,-1.5306,-1.5281,-1.5341,-1.5618,-1.5906,0.0,0.0,-1.5856,-1.5864,-1.5287,-1.5141,-1.505,-1.4755,-1.4971,-1.5231,-1.5543,-1.5365,-1.5466,-1.638,-1.6238,-1.6404,-1.7313,-1.7626,-1.8003,-1.8555,-1.8844,-1.8894,-1.8631,-1.8618,-1.8744,-1.902,-1.8769,-1.8982,-1.9773,-1.9547,-1.9535,-1.9798,-1.9798,-1.9798,-1.9798,-1.9798,-1.9798,-1.9798,-1.9798,-1.9798,-1.9798,-1.9798,-1.9798,-1.9798,-1.9798,-1.9798,-1.9798,-1.9798,-1.9798,-1.9798,-1.9798,-2.0003,-2.0359,-2.0696,-2.0979,-2.1245,-2.1245,-2.1245,-2.1113,-2.0497,-2.0295,-2.0245,-1.9901,-1.9798,-1.9952,-2.066,-2.0295,-1.9952,-2.0646,-2.0295,-1.9798,-1.9798,-1.9798,-1.9798,-1.9798,-1.9798,-1.9798,-1.9798,-1.9798,-1.9798,-1.9798,-1.9798,-1.9798,-1.9798,-1.9798,-1.9798,-1.9798,-1.9798,-1.9798,-1.9798,-1.9798,-1.9798,-1.9798,-1.9798,-1.9798,-1.9798,-1.9798,-1.9798,-1.9798,-1.9798,-1.9798,-1.9798,-1.9798,-1.9798,-1.9798,-1.9798,-1.9798,-1.5872,-1.5834,-1.5957,-1.6409,-1.6522,-1.638,0.0,0.0,0.0,-1.5152,-1.5062,-1.5062,-1.5062,-1.5062,-1.5197,-1.5688,-1.5287,-1.5242,-1.6337,-1.5964,-1.5977,-1.7105,-1.751,-1.79,-1.8457,-1.892,-1.9083,-1.8882,-1.8769,-1.8807,-1.897,-1.8883,-1.9108,-1.9635,-1.966,-1.966,-1.966,-1.9748,-1.9798,-1.9798,-1.9798,-1.9798,-1.9798,-1.9798,-1.9798,-1.9798,-1.9798,-1.9798,-1.9798,-1.9798,-1.9798,-1.9798,-1.9798,-1.9798,-1.9798,-1.9798,-1.9798,-1.9901,-2.0396,-2.0597,-2.0597,-2.0597,-2.0597,-2.0497,-1.9952,-1.9798,-1.9798,-1.9798,-1.9798,-1.9901,-2.0446,-2.0194,-1.9952,-2.0497,-2.0207,-1.9798,-1.9798,-1.9798,-1.9798,-1.9798,-1.9798,-1.9798,-1.9798,-1.9798,-1.9798,-1.9798,-1.9798,-1.9798,-1.9798,-1.9798,-1.9798,-1.9798,-1.9798,-1.9798,-1.9798,-1.9798,-1.9798,-1.9798,-1.9798,-1.9798,-1.9798,-1.9798,-1.9798,-1.9798,-1.9798,-1.9798,-1.9798,-1.9798,-1.9798,-1.9798,-1.9798,-1.9798,-1.6421,-1.6421,-1.6434,-1.6497,-1.6522,-1.6466,-1.6423,0.0,-1.638,-1.6293,0.0,-1.6293,-1.6293,0.0,0.0,-1.638,-1.5908,-1.5732,-1.6423,-1.5964,-1.5844,-1.651,-1.6198,-1.6126,-1.6754,-1.6861,-1.7287,-1.8229,-1.784,-1.8003,-1.8933,-1.8568,-1.8555,-1.9046,-1.912,-1.912,-1.912,-1.9572,-1.9798,-1.9798,-1.9798,-1.9798,-1.9798,-1.9798,-1.9798,-1.9798,-1.9798,-1.9798,-1.9798,-1.9798,-1.9798,-1.9798,-1.9798,-1.9798,-1.9798,-1.9798,-1.9798,-1.9798,-1.9901,-1.9901,-1.9901,-1.9901,-1.9901,-1.9901,-1.9798,-1.9798,-1.9798,-1.9798,-1.9798,-1.9798,-1.9901,-1.985,-1.9798,-1.9901,-1.985,-1.9798,-1.9798,-1.9798,-1.9798,-1.9798,-1.9798,-1.9798,-1.9798,-1.9798,-1.9798,-1.9798,-1.9798,-1.9798,-1.9798,-1.9798,-1.9798,-1.9798,-1.9798,-1.9798,-1.9798,-1.9798,-1.9798,-1.9798,-1.9798,-1.9798,-1.9798,-1.9798,-1.9798,-1.9798,-1.9798,-1.9798,-1.9798,-1.9798,-1.9798,-1.9798,-1.9798,-1.9798,-1.6522,-1.6522,-1.6522,-1.6522,-1.6522,-1.6522,-1.6522,-1.6522,-1.6522,-1.6522,0.0,0.0,0.0,0.0,0.0,0.0,-1.6008,-1.582,-1.6423,-1.5688,-1.5584,-1.6885,-1.6777,-1.6856,-1.7418,-1.7156,-1.7294,-1.8119,-1.8292,-1.8543,-1.8958,-1.9095,-1.9233,-1.9472,-1.9183,-1.8983,-1.8983,-1.9246,-1.9359,-1.9359,-1.966,-1.9798,-1.9798,-1.9798,-1.9798,-1.9798,-1.9798,-1.9798,-1.9798,-1.9798,-1.9798,-1.9798,-1.9798,-1.9798,-1.9798,-1.9798,-1.9798,-1.9798,-1.9798,-1.9798,-1.9798,-1.9798,-1.9798,-1.9798,-1.9798,-1.9798,-1.9798,-1.9798,-1.9798,-1.9798,-1.9798,-1.9798,-1.9798,-1.9798,-1.9798,-1.9798,-1.9798,-1.9798,-1.9798,-1.9798,-1.9798,-1.9798,-1.9798,-1.9798,-1.9798,-1.9798,-1.9798,-1.9798,-1.9798,-1.9798,-1.9798,-1.9798,-1.9798,-1.9798,-1.9798,-1.9798,-1.9798,-1.9798,-1.9798,-1.9798,-1.9798,-1.9798,-1.9798,-1.9798,-1.9798,-1.9798,-1.9798,-1.9798,-1.9798,-1.9798,-1.9798,-1.9798,-1.6305,-1.625,-1.625,-1.625,-1.625,-1.6305,-1.6454,-1.6522,-1.6522,-1.6522,-1.6522,0.0,0.0,0.0,-1.6522,-1.6522,0.0,-1.6008,-1.6423,-1.5744,-1.5664,-1.6998,-1.7149,-1.7363,-1.7928,-1.7429,-1.7372,-1.8131,-1.843,-1.8706,-1.8958,-1.9384,-1.9585,-1.9585,-1.9221,-1.8908,-1.8807,-1.8807,-1.8807,-1.8807,-1.9183,-1.9359,-1.9371,-1.9522,-1.9585,-1.9597,-1.9748,-1.9798,-1.9798,-1.9798,-1.9798,-1.9798,-1.9798,-1.9798,-1.9798,-1.9798,-1.9798,-1.9798,-1.9798,-1.9798,-1.9798,-1.9798,-1.9798,-1.9798,-1.9798,-1.9798,-1.9798,-1.9798,-1.9798,-1.9798,-1.9798,-1.9798,-1.9798,-1.9798,-1.9798,-1.9798,-1.9798,-1.9798,-1.9798,-1.9798,-1.9798,-1.9798,-1.9798,-1.9798,-1.9798,-1.9798,-1.9798,-1.9798,-1.9798,-1.9798,-1.9798,-1.9798,-1.9798,-1.9798,-1.9798,-1.9798,-1.9798,-1.9798,-1.9798,-1.9798,-1.9798,-1.9798,-1.9798,-1.9798,-1.9798,-1.9798,-1.9798,-1.9798,-1.9798,-1.9798,-1.9798,-1.9798,-1.5807,-1.5617,-1.5617,-1.5617,-1.5617,-1.5795,-1.6373,-1.6522,-1.6522,-1.6522,-1.6522,-1.6522,-1.6522,-1.6522,-1.6522,-1.6522,-1.6466,0.0,0.0,-1.6466,-1.6479,-1.6547,-1.6547,-1.6773,-1.735,-1.6898,-1.6979,-1.8129,-1.7727,-1.7903,-1.892,-1.8995,-1.9008,-1.9008,-1.8983,-1.8769,-1.8242,-1.8229,-1.8229,-1.8229,-1.8242,-1.8254,-1.8279,-1.8807,-1.9008,-1.9033,-1.9585,-1.9798,-1.9798,-1.9798,-1.9798,-1.9798,-1.9798,-1.9798,-1.9798,-1.9798,-1.9798,-1.9798,-1.9798,-1.9798,-1.9798,-1.9798,-1.9798,-1.9798,-1.9798,-1.9798,-1.9798,-1.9798,-1.9798,-1.9798,-1.9798,-1.9798,-1.9798,-1.9798,-1.9798,-1.9798,-1.9798,-1.9798,-1.9798,-1.9798,-1.9798,-1.9798,-1.9798,-1.9798,-1.9798,-1.9798,-1.9798,-1.9798,-1.9798,-1.9798,-1.9798,-1.9798,-1.9798,-1.9798,-1.9798,-1.9798,-1.9798,-1.9798,-1.9798,-1.9798,-1.9798,-1.9798,-1.9798,-1.9798,-1.9798,-1.9798,-1.9798,-1.9798,-1.9798,-1.9798,-1.9798,-1.9798,-1.625,-1.6191,-1.6184,-1.6185,-1.6218,-1.625,-1.6454,-1.6522,-1.6522,-1.6522,-1.6522,-1.6522,-1.6522,-1.6522,-1.6522,-1.6522,-1.6522,-1.6522,0.0,-1.6522,-1.6522,-1.6522,-1.6151,-1.6125,-1.6742,-1.5897,-1.5619,-1.6429,-1.701,-1.7472,-1.7836,-1.8933,-1.9384,-1.8983,-1.8681,-1.8216,-1.7664,-1.7664,-1.7664,-1.7664,-1.8028,-1.8204,-1.8216,-1.8392,-1.8681,-1.8983,-1.9221,-1.9484,-1.9798,-1.9798,-1.9798,-1.9798,-1.9798,-1.9798,-1.9798,-1.9798,-1.9798,-1.9798,-1.9798,-1.9798,-1.9798,-1.9798,-1.9798,-1.9798,-1.9798,-1.9798,-1.9798,-1.9798,-1.9798,-1.9798,-1.9798,-1.9798,-1.9798,-1.9798,-1.9798,-1.9798,-1.9798,-1.9798,-1.9798,-1.9798,-1.9798,-1.9798,-1.9798,-1.9798,-1.9798,-1.9798,-1.9798,-1.9798,-1.9798,-1.9798,-1.9798,-1.9798,-1.9798,-1.9798,-1.9798,-1.9798,-1.9798,-1.9798,-1.9798,-1.9798,-1.9798,-1.9798,-1.9798,-1.9798,-1.9798,-1.9798,-1.9798,-1.9798,-1.9798,-1.9798,-1.9307,-1.9307,-1.6237,-1.6179,-1.6161,-1.6161,-1.6034,-1.5976,-1.638,-1.6324,-1.6238,-1.6479,-1.6522,-1.6522,-1.6522,-1.6522,-1.6522,-1.6522,-1.6522,-1.6522,0.0,-1.6522,-1.6522,-1.6522,-1.6151,-1.6008,-1.6139,-1.5466,-1.5096,-1.5276,-1.5951,-1.6551,-1.6979,-1.8215,-1.8859,-1.8695,-1.8392,-1.794,-1.7388,-1.7174,-1.7074,-1.7074,-1.7438,-1.7601,-1.7614,-1.7827,-1.8216,-1.8744,-1.8895,-1.9321,-1.9798,-1.9798,-1.9798,-1.9798,-1.9798,-1.9798,-1.9798,-1.9798,-1.9798,-1.9798,-1.9798,-1.9798,-1.9798,-1.9798,-1.9798,-1.9798,-1.9798,-1.9798,-1.9798,-1.9798,-1.9798,-1.9798,-1.9798,-1.9798,-1.9798,-1.9798,-1.9798,-1.9798,-1.9798,-1.9798,-1.9798,-1.9798,-1.9798,-1.9798,-1.9798,-1.9798,-1.9798,-1.9798,-1.9798,-1.9798,-1.9798,-1.9798,-1.9798,-1.9798,-1.9798,-1.9798,-1.9798,-1.9798,-1.9798,-1.9798,-1.9798,-1.9798,-1.9798,-1.9798,-1.9798,-1.9798,-1.9798,-1.9798,-1.9798,-1.9798,-1.9695,-1.9423,-1.8927,-1.8821]}]]